Date StartTime U_cm/s V_cm/s W_cm/s Ustd_cm/s Vstd_cm/s Wstd_cm/s Uvar_(cm/s)^2 Vvar_(cm/s)^2 Wvar_(cm/s)^2 KE_(m/s)^2 TurbulentKE_(m/s)^2 HorizWindSpeed_cm/s FrictionSpeec_cm/s DragCoef SpeedOfSound_m/s SonicTemperature_C Pressure_mb 
05/18/2013  00:00:00     -205.102      -32.401      -11.714       75.801       64.838       36.009     5745.784     4204.023     1296.640        2.725        0.562      207.646       35.661        0.029      338.682       11.495      861.651
05/18/2013  00:01:00     -210.124      -56.737      -15.974       61.591       49.377       33.232     3793.398     2438.067     1104.398        2.748        0.367      217.650       21.600        0.010      338.676       11.486      861.672
05/18/2013  00:02:00     -226.443      -64.234      -17.639       67.330       67.152       31.598     4533.348     4509.417      998.440        3.288        0.502      235.377       20.347        0.007      338.683       11.497      861.709
05/18/2013  00:03:00     -220.621        7.355      -17.651       90.131       88.557       44.832     8123.599     7842.318     2009.870        3.350        0.899      220.743       29.861        0.018      338.676       11.485      861.727
05/18/2013  00:04:00     -235.865      -54.276      -30.754       89.966       94.076       41.433     8093.924     8850.330     1716.717        3.909        0.933      242.029       34.870        0.021      338.700       11.527      861.725
05/18/2013  00:05:00     -118.208       -4.757       -6.943       85.037      111.302       40.104     7231.272    12388.027     1608.361        1.763        1.061      118.304       50.670        0.183      338.692       11.514      861.735
05/18/2013  00:06:00     -162.821      -85.077      -19.164       74.244       61.238       39.404     5512.242     3750.062     1552.669        2.246        0.541      183.708       28.483        0.024      338.707       11.540      861.731
05/18/2013  00:07:00     -188.898      -29.168      -11.390       85.713       65.488       48.364     7346.791     4288.682     2339.101        2.532        0.699      191.137       40.582        0.045      338.725       11.569      861.739
05/18/2013  00:08:00     -146.112      -58.630        1.188       78.821       88.509       48.761     6212.708     7833.884     2377.653        2.060        0.821      157.437       38.903        0.061      338.713       11.550      861.741
05/18/2013  00:09:00     -167.464      -81.895        1.974       96.602       77.825       39.091     9331.964     6056.717     1528.078        2.583        0.846      186.416       38.849        0.043      338.702       11.530      861.765
05/18/2013  00:10:00     -155.466      -91.766       -1.460       74.190       85.286       55.430     5504.225     7273.696     3072.503        2.422        0.793      180.529       37.751        0.044      338.654       11.449      861.781
05/18/2013  00:11:00     -198.565       -7.685       -9.195       89.756       72.667       46.568     8056.054     5280.509     2168.615        2.754        0.775      198.713       51.256        0.067      338.684       11.498      861.791
05/18/2013  00:12:00     -248.227      -64.110      -22.673       74.799       73.940       37.781     5594.930     5467.167     1427.432        3.936        0.624      256.373       26.552        0.011      338.703       11.531      861.787
05/18/2013  00:13:00     -281.960      -92.432       -4.806       98.515       76.401       48.681     9705.244     5837.164     2369.815        5.299        0.896      296.724       38.355        0.017      338.721       11.563      861.775
05/18/2013  00:14:00     -282.094      -84.807      -42.178       50.138       75.178       37.633     2513.826     5651.685     1416.243        4.906        0.479      294.567       25.485        0.007      338.748       11.606      861.778
05/18/2013  00:15:00     -199.584      -24.656      -14.063       79.973       73.888       37.853     6395.741     5459.455     1432.827        2.696        0.664      201.101       36.127        0.032      338.680       11.493      861.789
05/18/2013  00:16:00     -175.461       40.655      -12.298       73.503       55.279       37.556     5402.635     3055.744     1410.467        2.123        0.493      180.109       33.814        0.035      338.685       11.503      861.788
05/18/2013  00:17:00     -319.533       56.557      -29.645       74.426       58.562       33.827     5539.235     3429.456     1144.291        5.814        0.506      324.499       34.140        0.011      338.730       11.578      861.786
05/18/2013  00:18:00     -201.011      -93.525       -6.339       93.165       89.563       50.191     8679.763     8021.571     2519.155        3.420        0.961      221.704       45.763        0.043      338.685       11.502      861.779
05/18/2013  00:19:00     -126.990       20.892        0.305       78.626       76.752       39.511     6182.044     5890.869     1561.087        1.510        0.682      128.697       37.533        0.085      338.659       11.461      861.792
05/18/2013  00:20:00     -135.852       13.905       -3.749       65.320       62.281       37.820     4266.651     3878.951     1430.361        1.412        0.479      136.561       31.205        0.052      338.627       11.406      861.797
05/18/2013  00:21:00     -158.402      -37.600      -12.218       68.943       63.594       29.763     4753.168     4044.216      885.809        1.817        0.484      162.804       29.143        0.032      338.690       11.511      861.811
05/18/2013  00:22:00     -117.619       29.496      -16.641       41.718       50.216       23.654     1740.378     2521.598      559.525        0.990        0.241      121.261       13.744        0.013      338.712       11.548      861.824
05/18/2013  00:23:00      -80.252        0.333       11.162       64.474       41.600       35.576     4156.950     1730.570     1265.669        0.686        0.358       80.252       41.560        0.268      338.697       11.526      861.848
05/18/2013  00:24:00     -118.890      -60.919      -12.778       73.911       43.294       33.597     5462.857     1874.376     1128.762        1.324        0.423      133.589       14.290        0.011      338.718       11.560      861.851
05/18/2013  00:25:00      -29.237       33.155        0.934       30.185       44.566       27.818      911.112     1986.150      773.845        0.281        0.184       44.205       18.119        0.168      338.643       11.434      861.855
05/18/2013  00:26:00      -53.273       51.341       13.429       57.837       54.176       38.801     3345.066     2935.062     1505.540        0.672        0.389       73.986       38.897        0.276      338.639       11.429      861.846
05/18/2013  00:27:00     -105.005      109.073      -22.088       39.424       45.038       23.817     1554.246     2028.438      567.253        1.378        0.207      151.403       20.547        0.018      338.700       11.530      861.840
05/18/2013  00:28:00     -135.379       23.497      -20.164       58.236       68.365       34.657     3391.468     4673.744     1201.085        1.427        0.463      137.403       30.807        0.050      338.730       11.580      861.851
05/18/2013  00:29:00     -127.329       34.586      -13.560       47.094       54.321       29.011     2217.802     2950.735      841.656        1.180        0.301      131.942       27.770        0.044      338.702       11.535      861.867
05/18/2013  00:30:00      -95.896       -4.919      -12.347       40.851       43.273       19.059     1668.794     1872.530      363.239        0.664        0.195       96.022       10.789        0.013      338.700       11.532      861.887
05/18/2013  00:31:00      -54.430       43.152      -16.501       26.557       25.339       22.409      705.274      642.077      502.147        0.347        0.092       69.460       16.236        0.055      338.645       11.435      861.889
05/18/2013  00:32:00      -90.621       -2.971       -3.852       43.732       38.577       20.397     1912.495     1488.187      416.018        0.603        0.191       90.669       16.862        0.035      338.637       11.424      861.886
05/18/2013  00:33:00     -104.040       16.374      -16.732       37.606       68.850       25.556     1414.178     4740.384      653.093        0.909        0.340      105.320       16.771        0.025      338.634       11.417      861.889
05/18/2013  00:34:00      -73.289       23.605       -8.223       38.201       57.563       26.641     1459.345     3313.497      709.732        0.574        0.274       76.996       24.568        0.102      338.649       11.444      861.888
05/18/2013  00:35:00      -47.924       92.098       -5.022       44.605       61.984       33.846     1989.563     3842.029     1145.526        0.889        0.349      103.821       29.321        0.080      338.751       11.617      861.875
05/18/2013  00:36:00      -79.520       96.621      -17.496       52.363       36.332       25.460     2741.896     1319.986      648.231        1.034        0.236      125.136       21.943        0.031      338.755       11.623      861.873
05/18/2013  00:37:00      -90.145      136.161      -21.514       64.712       58.089       38.799     4187.622     3374.318     1505.355        1.810        0.453      163.297       42.463        0.068      338.735       11.587      861.891
05/18/2013  00:38:00     -123.772      134.844      -15.389       45.405       59.819       32.285     2061.586     3578.340     1042.339        2.021        0.334      183.037       23.963        0.017      338.711       11.546      861.910
05/18/2013  00:39:00      -67.838       45.913      -11.580       44.724       35.314       25.529     2000.219     1247.104      651.748        0.537        0.195       81.915       25.505        0.097      338.737       11.592      861.926
05/18/2013  00:40:00      -82.894      -41.688        2.915       59.346       57.402       26.001     3521.893     3295.006      676.044        0.805        0.375       92.786       29.448        0.101      338.677       11.490      861.933
05/18/2013  00:41:00      -86.689       28.835      -12.741       49.784       28.666       26.778     2478.413      821.716      717.063        0.626        0.201       91.359       21.498        0.055      338.707       11.542      861.937
05/18/2013  00:42:00      -96.166      -25.567        6.289       36.100       27.388       24.059     1303.238      750.083      578.851        0.629        0.132       99.507       19.833        0.040      338.630       11.411      861.944
05/18/2013  00:43:00      -53.829       28.876      -14.927       27.642       25.153       18.260      764.080      632.676      333.410        0.284        0.087       61.085       15.950        0.068      338.657       11.456      861.963
05/18/2013  00:44:00      -56.844       46.327      -13.488       36.544       56.321       21.900     1335.451     3172.053      479.594        0.527        0.249       73.331       33.147        0.204      338.669       11.477      861.985
05/18/2013  00:45:00      -62.150      120.137      -10.756       36.977       49.788       29.571     1367.324     2478.820      874.449        1.156        0.236      135.261       27.269        0.041      338.681       11.496      861.997
05/18/2013  00:46:00      -55.461      132.324      -11.756       38.955       44.136       22.689     1517.521     1947.980      514.780        1.235        0.199      143.476       12.175        0.007      338.738       11.594      861.986
05/18/2013  00:47:00      -30.529      214.871      -25.308       34.595       49.696       28.056     1196.832     2469.688      787.114        2.610        0.223      217.029       25.713        0.014      338.760       11.628      861.989
05/18/2013  00:48:00     -106.193      108.662      -25.852       42.309       38.386       22.810     1790.010     1473.478      520.281        1.377        0.189      151.936       16.093        0.011      338.722       11.568      862.006
05/18/2013  00:49:00     -107.114      100.464      -15.373       80.129       41.987       33.440     6420.593     1762.877     1118.224        1.555        0.465      146.855       37.126        0.064      338.717       11.558      862.027
05/18/2013  00:50:00      -78.755       38.540      -12.054       58.926       35.006       24.486     3472.326     1225.417      599.540        0.656        0.265       87.679       31.960        0.133      338.830       11.748      862.029
05/18/2013  00:51:00       -8.488       81.729        3.119       39.265       56.462       22.754     1541.740     3187.939      517.728        0.600        0.262       82.168       26.591        0.105      338.756       11.623      862.023
05/18/2013  00:52:00      -34.875       85.081       -8.411       36.162       42.745       18.120     1307.692     1827.105      328.332        0.599        0.173       91.952       22.059        0.058      338.796       11.692      862.013
05/18/2013  00:53:00        5.491       50.044       -7.606       29.946       25.178       14.038      896.754      633.948      197.054        0.216        0.086       50.344       16.330        0.105      338.727       11.576      862.015
05/18/2013  00:54:00       10.769       64.138      -10.930       24.333       26.464       13.217      592.102      700.358      174.698        0.291        0.073       65.036        8.654        0.018      338.563       11.300      862.014
05/18/2013  00:55:00      -51.878       22.015      -11.917       24.745       29.908       11.702      612.295      894.485      136.927        0.248        0.082       56.356        7.039        0.016      338.549       11.275      862.039
05/18/2013  00:56:00        9.513       39.049       -3.229       35.394       33.036       18.965     1252.756     1091.393      359.652        0.216        0.135       40.191       19.974        0.247      338.458       11.122      862.033
05/18/2013  00:57:00       23.532       26.020        6.094       18.497       17.707       19.060      342.133      313.537      363.284        0.114        0.051       35.082       11.529        0.108      338.500       11.195      862.016
05/18/2013  00:58:00       62.341       67.232       12.356       68.582       22.932       23.089     4703.462      525.875      533.114        0.716        0.288       91.687       31.113        0.115      338.449       11.108      862.005
05/18/2013  00:59:00       47.937       52.347       -2.728       62.183       43.580       20.891     3866.677     1899.245      436.443        0.562        0.310       70.980        5.446        0.006      338.468       11.142      861.975
05/18/2013  01:00:00       -1.800       58.065       -8.700       16.259       26.314        9.451      264.366      692.436       89.324        0.225        0.052       58.093        9.262        0.025      338.751       11.616      862.003
05/18/2013  01:01:00      -74.762      -15.696       -4.293       52.106       44.111       22.017     2714.998     1945.785      484.733        0.550        0.257       76.392       17.504        0.053      338.593       11.350      862.014
05/18/2013  01:02:00      -38.131      -36.163        1.231       53.130       37.521       18.626     2822.768     1407.839      346.911        0.367        0.229       52.553        8.899        0.029      338.628       11.407      862.005
05/18/2013  01:03:00        6.877       64.948       -6.638       13.790       23.628       12.226      190.174      558.273      149.484        0.260        0.045       65.311       12.092        0.034      338.637       11.423      862.002
05/18/2013  01:04:00        8.706       88.241       -2.049       17.551       35.759       16.742      308.026     1278.701      280.279        0.487        0.093       88.669       17.856        0.041      338.605       11.372      862.003
05/18/2013  01:05:00       42.170       39.035       -1.025       30.420       29.037       19.699      925.347      843.124      388.070        0.273        0.108       57.463       16.783        0.085      338.444       11.099      861.978
05/18/2013  01:06:00       -1.824       41.470       -7.794       34.264       43.240       15.881     1174.048     1869.669      252.196        0.254        0.165       41.510       18.192        0.192      338.482       11.163      861.986
05/18/2013  01:07:00      -34.001       38.670       -9.512       21.743       30.778       10.875      472.751      947.294      118.267        0.214        0.077       51.492       11.053        0.046      338.501       11.196      862.013
05/18/2013  01:08:00      -17.035      -15.737       -0.661       14.200       11.258        8.412      201.654      126.732       70.767        0.047        0.020       23.192        6.764        0.085      338.400       11.026      862.013
05/18/2013  01:09:00      -73.237      -10.677      -18.109       20.562       20.823       13.741      422.800      433.577      188.822        0.343        0.052       74.011        9.470        0.016      338.377       10.988      862.017
05/18/2013  01:10:00     -198.239      -22.462       -8.246       73.430       46.504       34.352     5392.030     2162.648     1180.055        2.430        0.437      199.507       34.585        0.030      338.421       11.059      862.028
05/18/2013  01:11:00     -110.604       39.054       -8.638       56.106       29.066       17.476     3147.858      844.844      305.405        0.906        0.215      117.297       19.839        0.029      338.369       10.974      862.015
05/18/2013  01:12:00      -28.964       48.673       -9.200       19.216       33.976       10.615      369.248     1154.367      112.674        0.246        0.082       56.639        7.209        0.016      338.502       11.197      861.991
05/18/2013  01:13:00       -8.002       48.549       -9.878       15.694       35.140        8.125      246.304     1234.834       66.015        0.203        0.077       49.204       12.189        0.061      338.641       11.431      861.980
05/18/2013  01:14:00        1.277       98.464      -14.889       18.778       27.653       11.655      352.623      764.681      135.829        0.559        0.063       98.473       11.978        0.015      338.721       11.567      861.981
05/18/2013  01:15:00      -76.496       55.338      -16.657       32.000       26.721       18.237     1023.995      714.009      332.581        0.563        0.104       94.414       14.526        0.024      338.681       11.497      861.981
05/18/2013  01:16:00     -107.547       36.222      -15.105       31.434       23.047       17.194      988.085      531.145      295.639        0.746        0.091      113.483       11.057        0.009      338.413       11.047      861.973
05/18/2013  01:17:00     -190.724      -10.480      -27.382       58.809       39.322       26.444     3458.545     1546.201      699.269        2.147        0.285      191.012       26.502        0.019      338.344       10.930      861.977
05/18/2013  01:18:00     -146.495      -11.853      -23.794       80.940       39.855       23.977     6551.353     1588.396      574.901        1.544        0.436      146.973       16.729        0.013      338.224       10.727      861.984
05/18/2013  01:19:00      -76.478      -36.746       -0.968       39.212       25.565       21.209     1537.576      653.591      449.835        0.492        0.132       84.848       19.332        0.052      338.209       10.705      861.975
05/18/2013  01:20:00      -61.161      -25.621      -10.250       18.509       21.031        8.587      342.597      442.306       73.733        0.268        0.043       66.310        8.435        0.016      338.326       10.903      861.963
05/18/2013  01:21:00      -64.660      -10.519      -18.600       14.154       11.281        8.179      200.333      127.257       66.896        0.252        0.020       65.510        4.246        0.004      338.435       11.084      861.944
05/18/2013  01:22:00      -57.429       11.128       -6.608       14.156       15.842        9.557      200.400      250.978       91.333        0.200        0.027       58.497        6.655        0.013      338.499       11.192      861.940
05/18/2013  01:23:00      -59.108       33.900      -11.018       16.905       17.759       13.431      285.792      315.387      180.384        0.277        0.039       68.139       10.843        0.025      338.328       10.904      861.943
05/18/2013  01:24:00     -105.674       17.480      -13.290       22.957       30.926       10.576      527.007      956.399      111.849        0.662        0.080      107.110        8.309        0.006      338.443       11.098      861.937
05/18/2013  01:25:00     -126.631      -25.973       -9.633       50.432       36.069       20.634     2543.428     1300.982      425.748        1.054        0.214      129.268       16.453        0.016      338.454       11.116      861.944
05/18/2013  01:26:00     -160.112      -26.846       -5.088       71.458       53.971       34.946     5106.283     2912.887     1221.205        1.781        0.462      162.347       36.684        0.051      338.060       10.454      861.960
05/18/2013  01:27:00     -145.123      -73.568        1.446       55.450       42.676       30.335     3074.668     1821.267      920.241        1.614        0.291      162.705       32.275        0.039      338.026       10.397      861.954
05/18/2013  01:28:00      -97.738      -34.260       -8.099       42.190       28.353       23.129     1780.023      803.881      534.944        0.695        0.156      103.569       21.861        0.045      337.964       10.294      861.948
05/18/2013  01:29:00      -93.684      -26.680      -12.022       24.038       23.618       15.768      577.830      557.818      248.620        0.551        0.069       97.409       12.542        0.017      338.042       10.425      861.937
05/18/2013  01:30:00      -82.442      -15.265       -7.346       21.167       29.721       15.900      448.040      883.335      252.803        0.433        0.079       83.843        8.823        0.011      338.024       10.396      861.932
05/18/2013  01:31:00      -93.776       -0.012      -14.508       21.191       30.673       14.040      449.063      940.845      197.130        0.530        0.079       93.776       14.338        0.023      337.946       10.264      861.932
05/18/2013  01:32:00     -134.012       31.154      -21.769       35.436       25.696       18.732     1255.730      660.291      350.895        1.083        0.113      137.586        9.168        0.004      337.986       10.331      861.934
05/18/2013  01:33:00     -124.265       47.283      -14.888       27.641       34.575       16.595      764.026     1195.438      275.392        1.007        0.112      132.957       11.969        0.008      338.039       10.419      861.935
05/18/2013  01:34:00      -90.188      129.589      -25.560       35.426       36.283       29.679     1255.003     1316.480      880.816        1.452        0.173      157.883       21.639        0.019      338.164       10.630      861.928
05/18/2013  01:35:00     -124.489       26.104      -11.734       29.983       37.978       22.069      898.982     1442.354      487.043        0.957        0.141      127.197       16.436        0.017      338.075       10.481      861.921
05/18/2013  01:36:00     -147.242      -75.785       -3.442       54.079       43.082       25.440     2924.511     1856.086      647.178        1.643        0.271      165.601       23.671        0.020      338.017       10.380      861.917
05/18/2013  01:37:00     -128.627      -15.270      -12.180       60.695       37.608       20.581     3683.885     1414.339      423.576        1.122        0.276      129.530       21.561        0.028      337.777        9.980      861.920
05/18/2013  01:38:00     -152.939        0.456      -24.786       29.007       25.244       15.865      841.393      637.238      251.701        1.287        0.087      152.940       12.766        0.007      337.738        9.916      861.922
05/18/2013  01:39:00     -139.074      -38.758      -10.467       32.997       34.820       19.134     1088.808     1212.449      366.113        1.181        0.133      144.373       13.107        0.008      337.742        9.920      861.928
05/18/2013  01:40:00     -102.067      -60.961       -6.199       35.261       43.157       21.706     1243.315     1862.522      471.142        0.887        0.179      118.886       10.415        0.008      337.702        9.853      861.929
05/18/2013  01:41:00      -61.644        8.071      -13.768       28.531       26.457       18.458      814.024      699.961      340.703        0.295        0.093       62.170       14.767        0.056      337.646        9.763      861.932
05/18/2013  01:42:00      -96.048      -18.761       -8.546       37.384       37.621       20.980     1397.534     1415.329      440.141        0.645        0.163       97.863       14.546        0.022      337.718        9.882      861.936
05/18/2013  01:43:00     -189.032       -4.607       -7.962       50.348       64.324       27.525     2534.879     4137.513      757.627        2.162        0.372      189.088       26.220        0.019      337.660        9.782      861.943
05/18/2013  01:44:00     -125.538      -16.847       -7.669       41.477       38.311       26.120     1720.363     1467.742      682.272        0.999        0.194      126.663       22.490        0.032      337.601        9.685      861.943
05/18/2013  01:45:00     -103.285        7.184      -15.767       22.377       32.364       18.276      500.735     1047.407      334.011        0.642        0.094      103.534        8.408        0.007      337.581        9.652      861.939
05/18/2013  01:46:00     -141.606        6.615      -18.592       33.360       44.530       25.162     1112.866     1982.950      633.135        1.208        0.186      141.761       17.324        0.015      337.603        9.688      861.916
05/18/2013  01:47:00     -149.575      -31.651      -15.413       32.189       39.351       20.641     1036.110     1548.503      426.066        1.331        0.151      152.887       12.635        0.007      337.563        9.621      861.907
05/18/2013  01:48:00     -148.990      -43.367      -10.350       35.221       36.038       20.667     1240.485     1298.758      427.144        1.358        0.148      155.173       19.520        0.016      337.583        9.655      861.899
05/18/2013  01:49:00     -117.668      -35.386       -2.967       50.454       48.696       24.715     2545.626     2371.286      610.815        1.032        0.276      122.874       20.419        0.028      337.530        9.566      861.902
05/18/2013  01:50:00     -203.775       28.848      -14.066       58.156       36.571       22.547     3382.100     1337.427      508.345        2.389        0.261      205.807       25.272        0.015      337.467        9.458      861.907
05/18/2013  01:51:00     -149.223        6.859      -14.876       29.967       30.378       17.962      898.026      922.845      322.616        1.234        0.107      149.381       12.349        0.007      337.480        9.482      861.902
05/18/2013  01:52:00     -128.898      -38.370      -14.312       39.043       24.548       18.862     1524.339      602.617      355.771        1.039        0.124      134.488       21.905        0.027      337.537        9.578      861.888
05/18/2013  01:53:00     -133.639      -35.548      -19.256       29.809       29.823       13.897      888.548      889.436      193.124        1.073        0.099      138.286       12.931        0.009      337.552        9.603      861.882
05/18/2013  01:54:00     -110.079      -33.116      -11.740       36.826       40.219       23.146     1356.167     1617.555      535.721        0.843        0.175      114.952       20.816        0.033      337.522        9.552      861.883
05/18/2013  01:55:00     -100.085      -29.238       -5.247       28.337       27.791       19.008      802.998      772.346      361.303        0.642        0.097      104.268       15.310        0.022      337.509        9.532      861.901
05/18/2013  01:56:00      -94.294      -38.946       -6.192       32.581       27.278       17.409     1061.509      744.078      303.062        0.628        0.105      102.020       17.982        0.031      337.546        9.592      861.911
05/18/2013  01:57:00      -88.847      -23.504       -1.536       28.468       27.208       14.783      810.440      740.293      218.541        0.511        0.088       91.903       13.303        0.021      337.575        9.641      861.917
05/18/2013  01:58:00     -111.661      -18.473      -18.147       33.848       31.760       14.169     1145.720     1008.693      200.757        0.775        0.118      113.179       10.266        0.008      337.558        9.613      861.933
05/18/2013  01:59:00     -127.351      -28.292      -15.021       48.384       36.473       24.185     2341.024     1330.308      584.922        1.075        0.213      130.456       16.152        0.015      337.555        9.609      861.953
05/18/2013  02:00:00     -181.191      -39.200      -20.009       36.921       41.858       25.126     1363.189     1752.115      631.327        1.926        0.187      185.383       22.250        0.014      337.431        9.399      861.958
05/18/2013  02:01:00     -171.645        2.144      -25.768       28.525       34.577       20.222      813.681     1195.547      408.922        1.627        0.121      171.658       11.022        0.004      337.397        9.346      861.954
05/18/2013  02:02:00     -159.731       14.546      -24.716       52.460       30.844       25.716     2752.074      951.347      661.308        1.535        0.218      160.392       24.710        0.024      337.391        9.333      861.969
05/18/2013  02:03:00     -125.267      -27.209      -16.044       45.251       35.289       27.404     2047.674     1245.289      750.981        1.037        0.202      128.188       23.024        0.032      337.385        9.322      861.971
05/18/2013  02:04:00     -155.805        9.066      -13.667       29.355       25.004       17.593      861.730      625.214      309.503        1.317        0.090      156.068       16.621        0.011      337.360        9.281      861.984
05/18/2013  02:05:00     -139.176      -58.280      -15.918       30.870       29.983       20.533      952.984      898.983      421.619        1.265        0.114      150.886       18.117        0.014      337.396        9.342      862.009
05/18/2013  02:06:00     -190.124      -36.542      -16.569       40.488       52.909       29.298     1639.240     2799.326      858.365        2.153        0.265      193.604       21.329        0.012      337.363        9.284      862.031
05/18/2013  02:07:00     -131.097       14.480      -28.536       41.358       50.112       25.143     1710.444     2511.182      632.184        1.153        0.243      131.894       24.234        0.034      337.399        9.347      862.031
05/18/2013  02:08:00     -123.513       46.788      -16.363       40.087       27.869       25.487     1606.976      776.668      649.604        1.037        0.152      132.077       11.594        0.008      337.469        9.466      862.023
05/18/2013  02:09:00      -89.064       16.773       -9.775       20.618       41.590       17.341      425.086     1729.752      300.722        0.538        0.123       90.630       12.739        0.020      337.582        9.653      862.002
05/18/2013  02:10:00      -77.543      -32.112       -5.598       32.990       36.994       15.550     1088.356     1368.590      241.807        0.489        0.135       83.930       11.202        0.018      337.506        9.525      861.983
05/18/2013  02:11:00     -131.136      -51.289      -15.127       33.303       32.081       18.237     1109.064     1029.185      332.579        1.126        0.124      140.810        7.420        0.003      337.447        9.427      861.974
05/18/2013  02:12:00     -136.841      -23.545      -13.193       30.575       31.885       22.220      934.835     1016.622      493.716        1.095        0.122      138.851       11.883        0.007      337.394        9.337      861.956
05/18/2013  02:13:00     -102.728       12.291      -15.889       30.652       24.765       17.151      939.565      613.322      294.164        0.640        0.092      103.461        6.116        0.003      337.451        9.434      861.922
05/18/2013  02:14:00     -103.455       11.442      -13.117       29.634       21.425       13.651      878.184      459.031      186.359        0.626        0.076      104.085       10.008        0.009      337.469        9.463      861.927
05/18/2013  02:15:00     -110.060      -19.885      -19.075       27.414       21.592       13.638      751.553      466.197      185.995        0.714        0.070      111.842       12.180        0.012      337.436        9.408      861.932
05/18/2013  02:16:00      -81.632       31.270      -11.799       22.576       23.410       24.661      509.656      548.006      608.155        0.472        0.083       87.416       16.825        0.037      337.489        9.499      861.936
05/18/2013  02:17:00      -64.394       63.692      -12.562       29.987       41.718       19.011      899.194     1740.383      361.422        0.568        0.150       90.572       14.890        0.027      337.742        9.921      861.946
05/18/2013  02:18:00     -109.844      -26.243       -5.239       33.418       26.531       15.350     1116.795      703.915      235.634        0.742        0.103      112.935       13.607        0.015      337.597        9.678      861.963
05/18/2013  02:19:00     -162.728      -59.459       -9.726       39.547       27.746       18.429     1563.969      769.813      339.624        1.639        0.134      173.250       13.497        0.006      337.361        9.283      861.973
05/18/2013  02:20:00      -63.899      -13.627       -7.348       35.781       32.307       19.219     1280.307     1043.736      369.375        0.351        0.135       65.336       16.907        0.067      337.375        9.308      861.974
05/18/2013  02:21:00      -16.631       -6.338       -4.536       26.246       29.295       19.925      688.871      858.184      397.018        0.114        0.097       17.798       18.704        1.104      337.467        9.461      861.969
05/18/2013  02:22:00      -53.485       69.882      -17.178       27.514       32.912       15.027      757.012     1083.191      225.816        0.505        0.103       88.001        7.547        0.007      337.697        9.846      861.991
05/18/2013  02:23:00      -33.650      -18.566        0.162       35.935       43.773       19.726     1291.299     1916.099      389.100        0.254        0.180       38.432       22.276        0.336      337.565        9.623      862.007
05/18/2013  02:24:00      -16.055      -13.963       -0.549       25.126       16.125        9.928      631.293      260.020       98.561        0.072        0.049       21.277       11.141        0.274      337.595        9.674      862.023
05/18/2013  02:25:00      -26.264      -22.291       -9.627       16.940       11.712       13.728      286.955      137.175      188.459        0.095        0.031       34.448       11.986        0.121      337.682        9.821      862.037
05/18/2013  02:26:00      -20.411      -19.296        0.948       12.220       12.737        9.278      149.331      162.235       86.084        0.059        0.020       28.088        7.129        0.064      337.635        9.742      862.056
05/18/2013  02:27:00        1.547      -28.726       16.016       14.525       34.418       20.998      210.982     1184.589      440.897        0.146        0.092       28.768       13.998        0.237      337.635        9.743      862.051
05/18/2013  02:28:00       -6.701       42.708       67.899       22.884       34.782       32.084      523.689     1209.818     1029.402        0.462        0.138       43.230       21.422        0.246      337.646        9.762      862.025
05/18/2013  02:29:00       28.632      -33.586       33.661       47.969       66.267       58.638     2301.028     4391.325     3438.429        0.660        0.507       44.134       50.673        1.318      337.677        9.812      861.993
05/18/2013  02:30:00       13.451       24.334       82.855       44.097       76.898       39.319     1944.557     5913.377     1545.990        0.852        0.470       27.805       43.041        2.396      337.568        9.629      861.985
05/18/2013  02:31:00       55.451      -28.564       42.700       47.146       68.928       44.049     2222.773     4751.026     1940.332        0.731        0.446       62.376       25.303        0.165      337.569        9.630      862.005
05/18/2013  02:32:00       46.269       57.485       46.326       36.022       24.895       22.730     1297.550      619.785      516.653        0.501        0.122       73.793       20.021        0.074      337.497        9.511      862.021
05/18/2013  02:33:00       83.282       44.655       20.902       21.136       20.645       22.738      446.720      426.211      517.001        0.538        0.069       94.499        7.858        0.007      337.500        9.516      862.040
05/18/2013  02:34:00       68.944       65.970       44.266       34.021       20.293       29.838     1157.430      411.814      890.317        0.676        0.123       95.422       14.029        0.022      337.642        9.753      862.041
05/18/2013  02:35:00       37.769       56.990       59.823       26.034       23.604       16.766      677.789      557.135      281.113        0.488        0.076       68.369       11.571        0.029      337.522        9.553      862.039
05/18/2013  02:36:00       38.683       41.249       41.639       33.118       29.135       18.816     1096.784      848.875      354.036        0.362        0.115       56.550       15.051        0.071      337.567        9.628      862.035
05/18/2013  02:37:00       56.897      -30.456        9.665       27.827       37.244       23.202      774.352     1387.104      538.344        0.348        0.135       64.535       17.174        0.071      337.698        9.847      862.031
05/18/2013  02:38:00       48.256        4.880        4.837       23.779       41.089       17.561      565.462     1688.297      308.397        0.247        0.128       48.502       14.408        0.088      337.735        9.910      862.036
05/18/2013  02:39:00       22.745       60.349       -3.083       21.202       21.399       19.904      449.542      457.924      396.182        0.274        0.065       64.493       16.604        0.066      337.448        9.428      862.040
05/18/2013  02:40:00       60.755       40.210        9.669       25.314       19.390       14.294      640.807      375.965      204.323        0.331        0.061       72.857        9.257        0.016      337.618        9.715      862.040
05/18/2013  02:41:00       53.793       29.503       12.349       13.746       11.402        9.997      188.953      130.012       99.934        0.217        0.021       61.352        3.585        0.003      337.673        9.805      862.030
05/18/2013  02:42:00       51.667       30.277       21.755       14.134       15.761       14.935      199.762      248.418      223.043        0.237        0.034       59.884        6.817        0.013      337.688        9.832      862.023
05/18/2013  02:43:00       56.085       38.871       23.263       18.136       14.762       18.651      328.928      217.918      347.872        0.305        0.045       68.238        7.851        0.013      337.727        9.897      862.024
05/18/2013  02:44:00       17.823       73.336        3.812       14.682       18.378       18.432      215.553      337.743      339.738        0.330        0.045       75.470        9.777        0.017      337.695        9.844      862.036
05/18/2013  02:45:00       17.795       71.088        2.242       25.264       24.925       16.697      638.270      621.238      278.805        0.346        0.077       73.281       14.740        0.040      337.682        9.820      862.050
05/18/2013  02:46:00       42.621       43.307        6.105       15.256       11.230       14.192      232.747      126.102      201.420        0.214        0.028       60.762       10.520        0.030      337.717        9.881      862.060
05/18/2013  02:47:00       52.210       40.779       37.754       17.741       17.979       13.370      314.737      323.254      178.766        0.332        0.041       66.248        4.308        0.004      337.718        9.881      862.057
05/18/2013  02:48:00       11.098       39.401       50.901       27.830       25.268       10.614      774.506      638.485      112.652        0.290        0.076       40.934       12.214        0.089      337.751        9.937      862.042
05/18/2013  02:49:00       10.346       34.978       51.950       19.004       20.476       10.984      361.167      419.275      120.640        0.247        0.045       36.477        9.718        0.071      337.796       10.012      862.044
05/18/2013  02:50:00       15.559       19.148       37.157       19.829       16.625       10.428      393.182      276.399      108.741        0.138        0.039       24.673       10.177        0.170      337.790       10.001      862.055
05/18/2013  02:51:00       14.943       32.457       56.339       20.375       23.356       17.053      415.146      545.523      290.800        0.285        0.063       35.731       15.642        0.192      337.759        9.950      862.071
05/18/2013  02:52:00        9.730       23.508       52.058       17.346       23.681       14.542      300.874      560.785      211.475        0.222        0.054       25.442       11.086        0.190      337.700        9.850      862.094
05/18/2013  02:53:00        9.941      -10.846       33.101       19.282       38.142       27.494      371.782     1454.811      755.924        0.195        0.129       14.713       24.149        2.694      337.659        9.783      862.116
05/18/2013  02:54:00       20.404       19.633       39.770       24.791       21.098       15.392      614.594      445.144      236.913        0.184        0.065       28.316       12.647        0.199      337.573        9.636      862.137
05/18/2013  02:55:00       64.257       33.723       24.140       28.155       20.954       21.855      792.692      439.073      477.659        0.378        0.085       72.569       18.168        0.063      337.652        9.771      862.138
05/18/2013  02:56:00       87.214       37.237       16.853       28.431       17.614       22.615      808.350      310.255      511.446        0.545        0.082       94.831       15.763        0.028      337.632        9.736      862.140
05/18/2013  02:57:00       66.243       35.901        6.191       23.676       17.070       16.458      560.544      291.376      270.879        0.342        0.056       75.346       12.625        0.028      337.480        9.483      862.145
05/18/2013  02:58:00       58.424       35.066       11.177       22.818       19.176       17.863      520.667      367.733      319.096        0.299        0.060       68.139       13.300        0.038      337.402        9.351      862.156
05/18/2013  02:59:00       72.005       41.676       24.129       19.608       16.764       18.214      384.482      281.019      331.750        0.425        0.050       83.196       10.187        0.015      337.367        9.293      862.161
05/18/2013  03:00:00       76.927       57.330       31.948       28.371       19.197       17.132      804.924      368.518      293.489        0.585        0.073       95.940       15.058        0.025      337.507        9.528      862.159
05/18/2013  03:01:00       40.921       44.814       47.115       32.396       19.278       17.299     1049.482      371.658      299.252        0.381        0.086       60.686        5.842        0.009      337.560        9.617      862.157
05/18/2013  03:02:00        2.244        3.571       25.053       16.984       22.177       12.702      288.446      491.829      161.333        0.079        0.047        4.218       15.001       12.650      337.473        9.470      862.145
05/18/2013  03:03:00       -0.546      -31.242       23.033       19.281       19.775       18.370      371.768      391.041      337.445        0.130        0.055       31.246        7.238        0.054      337.742        9.921      862.144
05/18/2013  03:04:00      -33.014       -3.973       -0.612       19.777       13.684       11.708      391.116      187.256      137.066        0.091        0.036       33.252       10.822        0.106      337.632        9.738      862.157
05/18/2013  03:05:00      -38.518      -10.052       -4.150       10.910       10.706       10.238      119.036      114.614      104.823        0.097        0.017       39.808        5.282        0.018      337.451        9.433      862.179
05/18/2013  03:06:00      -21.089        7.071        0.748       11.508       13.046        8.607      132.425      170.187       74.087        0.044        0.019       22.243        5.452        0.060      337.464        9.454      862.195
05/18/2013  03:07:00       -9.057       24.821        4.115        9.135       10.543        6.554       83.443      111.165       42.960        0.048        0.012       26.422        5.371        0.041      337.480        9.483      862.222
05/18/2013  03:08:00      -38.037       39.532       -8.282       12.243        9.118        7.912      149.883       83.141       62.605        0.169        0.015       54.860        7.700        0.020      337.606        9.695      862.242
05/18/2013  03:09:00      -49.066       28.515      -11.531       10.278        9.531        8.401      105.638       90.832       70.573        0.181        0.013       56.751        6.226        0.012      337.481        9.485      862.258
05/18/2013  03:10:00      -38.741       11.459       -6.079       10.940       12.596        6.711      119.685      158.664       45.044        0.100        0.016       40.400        6.167        0.023      337.455        9.440      862.264
05/18/2013  03:11:00      -28.739      -27.745        0.229       26.162       16.918        9.292      684.429      286.206       86.348        0.133        0.053       39.946        7.226        0.033      337.561        9.618      862.255
05/18/2013  03:12:00      -24.347      -55.931       -7.660       14.918       26.243       12.315      222.549      688.688      151.662        0.242        0.053       61.001        9.361        0.024      337.577        9.644      862.232
05/18/2013  03:13:00      -34.396      -77.346       -6.188       32.476       45.285       19.337     1054.713     2050.760      373.911        0.534        0.174       84.650       15.935        0.035      337.505        9.523      862.223
05/18/2013  03:14:00      -62.503       -8.346        1.113       47.061       25.556       23.066     2214.705      653.115      532.053        0.369        0.170       63.058       22.706        0.130      337.301        9.184      862.219
05/18/2013  03:15:00      -48.598       -8.481        7.253       45.726       21.404       16.002     2090.869      458.118      256.064        0.265        0.140       49.332       18.931        0.147      337.259        9.113      862.229
05/18/2013  03:16:00      -35.825      -45.696        7.966       39.675       29.127       20.393     1574.101      848.372      415.880        0.314        0.142       58.065       18.900        0.106      337.348        9.261      862.239
05/18/2013  03:17:00      -63.374      -70.115        1.186       49.678       35.589       17.552     2467.888     1266.612      308.073        0.649        0.202       94.511       17.907        0.036      337.251        9.100      862.248
05/18/2013  03:18:00      -80.948      -75.197        0.518       41.465       28.326       27.396     1719.382      802.353      750.565        0.774        0.164      110.486       28.510        0.067      337.260        9.114      862.250
05/18/2013  03:19:00      -98.828      -77.592        1.728       55.774       34.449       26.757     3110.751     1186.750      715.921        1.040        0.251      125.648       25.218        0.040      337.216        9.040      862.251
05/18/2013  03:20:00      -73.727      -86.618       -4.899       52.483       27.705       21.163     2754.496      767.567      447.862        0.847        0.198      113.747       15.964        0.020      337.320        9.216      862.243
05/18/2013  03:21:00      -40.765      -51.026       14.881       49.230       22.838       18.764     2423.589      521.578      352.080        0.389        0.165       65.310       19.242        0.087      337.303        9.185      862.244
05/18/2013  03:22:00      -52.623      -75.891        6.333       72.303       49.468       35.735     5227.732     2447.040     1276.960        0.876        0.448       92.350       35.775        0.150      337.352        9.268      862.261
05/18/2013  03:23:00     -105.187      -80.841       -1.314       56.771       44.347       28.244     3222.892     1966.647      797.714        1.179        0.299      132.664       24.701        0.035      337.225        9.054      862.272
05/18/2013  03:24:00      -70.805      -57.945       16.823       47.661       43.544       29.385     2271.585     1896.099      863.497        0.684        0.252       91.493       28.736        0.099      337.206        9.024      862.289
05/18/2013  03:25:00     -141.607     -120.852      -15.013       33.859       26.184       22.809     1146.449      685.584      520.254        1.862        0.118      186.166       17.096        0.008      337.171        8.965      862.306
05/18/2013  03:26:00      -92.273      -75.421       -0.297       48.933       47.494       26.205     2394.452     2255.726      686.702        0.977        0.267      119.174       25.208        0.045      337.164        8.954      862.318
05/18/2013  03:27:00      -63.693      -52.146        3.347       44.813       34.880       23.164     2008.182     1216.646      536.579        0.527        0.188       82.317       25.522        0.096      337.177        8.976      862.325
05/18/2013  03:28:00      -68.662      -53.178        2.133       37.487       41.979       22.440     1405.245     1762.241      503.544        0.561        0.184       86.847       24.855        0.082      337.217        9.042      862.325
05/18/2013  03:29:00      -60.291      -34.561       -1.533       29.097       40.714       17.579      846.627     1657.645      309.031        0.382        0.141       69.494       10.144        0.021      337.172        8.967      862.324
05/18/2013  03:30:00      -59.232       -4.543       -1.471       37.908       22.661       19.368     1436.999      513.540      375.128        0.293        0.116       59.406       20.397        0.118      337.008        8.690      862.328
05/18/2013  03:31:00      -57.530        0.063       -2.288       25.213       18.045       15.106      635.680      325.611      228.193        0.225        0.059       57.530       11.663        0.041      336.852        8.431      862.332
05/18/2013  03:32:00      -53.825       -5.628       -0.680       23.194       16.158        9.241      537.966      261.091       85.403        0.191        0.044       54.118        9.468        0.031      336.839        8.411      862.333
05/18/2013  03:33:00      -45.468      -15.374        1.021       23.189       17.019        9.800      537.715      289.660       96.044        0.161        0.046       47.997        8.567        0.032      336.883        8.483      862.330
05/18/2013  03:34:00      -39.476      -21.929        2.208       26.087       20.782        9.513      680.554      431.907       90.494        0.162        0.060       45.158        7.685        0.029      337.077        8.807      862.333
05/18/2013  03:35:00     -108.810      -27.386       -9.838       20.702       19.309       12.532      428.556      372.833      157.063        0.682        0.048      112.204        9.567        0.007      336.985        8.652      862.336
05/18/2013  03:36:00      -82.117      -60.498        1.291       39.428       23.828       19.161     1554.588      567.776      367.130        0.645        0.124      101.996       18.832        0.034      337.005        8.686      862.345
05/18/2013  03:37:00      -63.407      -47.580        2.610       38.202       22.693       18.980     1459.384      514.959      360.257        0.431        0.117       79.274       17.601        0.049      337.089        8.826      862.351
05/18/2013  03:38:00      -72.623      -53.507       -7.786       30.862       14.555       10.792      952.468      211.856      116.467        0.474        0.064       90.206        9.577        0.011      337.078        8.806      862.354
05/18/2013  03:39:00      -80.561     -106.688        5.193       60.043       43.907       33.638     3605.194     1927.802     1131.492        1.228        0.333      133.687       28.410        0.045      337.064        8.785      862.356
05/18/2013  03:40:00      -80.589      -82.938       -4.862       69.777       55.296       31.326     4868.861     3057.676      981.348        1.115        0.445      115.643       29.211        0.064      337.018        8.707      862.363
05/18/2013  03:41:00      -66.671      -78.840       14.614       66.556       45.589       34.703     4429.669     2078.333     1204.270        0.929        0.386      103.251       31.159        0.091      337.038        8.742      862.378
05/18/2013  03:42:00     -133.577      -98.007       -0.235       47.978       38.960       32.376     2301.863     1517.916     1048.186        1.616        0.243      165.675       23.707        0.020      337.038        8.740      862.381
05/18/2013  03:43:00     -108.965     -118.358       -4.092       56.729       55.633       30.061     3218.168     3095.040      903.650        1.656        0.361      160.879       29.300        0.033      336.983        8.649      862.382
05/18/2013  03:44:00     -126.479      -78.815       -1.509       65.984       55.195       26.069     4353.908     3046.514      679.578        1.514        0.404      149.026       22.300        0.022      336.936        8.572      862.383
05/18/2013  03:45:00      -63.811      -51.500        8.313       37.922       31.660       20.545     1438.064     1002.372      422.105        0.483        0.143       82.000       22.956        0.078      336.886        8.488      862.390
05/18/2013  03:46:00      -99.611     -108.592       -4.304       81.253       45.018       38.488     6602.011     2026.616     1481.289        1.592        0.505      147.359       47.138        0.102      337.010        8.694      862.394
05/18/2013  03:47:00      -70.766      -97.033        4.188       49.715       68.696       29.136     2471.555     4719.176      848.930        1.124        0.402      120.097       22.866        0.036      336.941        8.578      862.398
05/18/2013  03:48:00     -110.506     -133.332       -9.903       33.264       56.678       28.366     1106.480     3212.398      804.620        1.760        0.256      173.173       17.264        0.010      336.882        8.480      862.410
05/18/2013  03:49:00     -131.096      -53.587       -7.157       49.132       40.445       22.924     2413.915     1635.831      525.532        1.234        0.229      141.625       14.276        0.010      336.861        8.448      862.425
05/18/2013  03:50:00     -109.406      -53.933       -8.081       46.804       59.154       27.289     2190.590     3499.220      744.713        1.069        0.322      121.977       22.301        0.033      336.884        8.484      862.449
05/18/2013  03:51:00     -105.665      -29.106       -4.716       54.208       42.509       26.868     2938.534     1807.009      721.875        0.875        0.273      109.601       25.309        0.053      336.722        8.216      862.472
05/18/2013  03:52:00     -121.343      -24.097       -0.798       46.513       50.772       26.515     2163.504     2577.756      703.020        1.037        0.272      123.713       27.304        0.049      336.584        7.985      862.497
05/18/2013  03:53:00     -107.934      -49.458       -3.738       46.551       30.194       20.780     2166.951      911.691      431.827        0.881        0.176      118.726       15.868        0.018      336.557        7.938      862.507
05/18/2013  03:54:00      -87.476      -32.885        3.218       46.076       37.363       23.291     2123.000     1395.995      542.480        0.640        0.203       93.453       24.463        0.069      336.497        7.838      862.498
05/18/2013  03:55:00     -102.215      -53.252        0.616       34.575       27.357       23.902     1195.434      748.405      571.309        0.790        0.126      115.255       22.097        0.037      336.580        7.977      862.493
05/18/2013  03:56:00      -78.813      -31.680        1.475       44.267       25.856       22.375     1959.534      668.550      500.622        0.517        0.156       84.942       22.465        0.070      336.608        8.024      862.500
05/18/2013  03:57:00     -105.294      -25.132      -14.163       31.039       26.160       20.525      963.406      684.370      421.258        0.699        0.103      108.252       12.621        0.014      336.642        8.083      862.501
05/18/2013  03:58:00     -120.656      -43.490       -5.412       34.443       31.479       19.243     1186.294      990.914      370.285        0.951        0.127      128.255       17.437        0.018      336.528        7.891      862.491
05/18/2013  03:59:00     -100.209       -5.659        0.154       55.595       37.458       24.332     3090.793     1403.112      592.037        0.758        0.254      100.369       28.708        0.082      336.415        7.701      862.478
05/18/2013  04:00:00     -105.789      -28.925        2.350       39.845       33.347       22.054     1587.633     1112.022      486.389        0.761        0.159      109.672       20.988        0.037      336.406        7.686      862.452
05/18/2013  04:01:00      -80.930      -34.545        3.915       47.741       30.410       19.306     2279.226      924.785      372.727        0.567        0.179       87.994       22.342        0.064      336.431        7.730      862.425
05/18/2013  04:02:00     -102.144      -22.450       -5.113       33.420       28.263       23.874     1116.916      798.775      569.984        0.672        0.124      104.582       18.899        0.033      336.456        7.770      862.408
05/18/2013  04:03:00      -93.494       -6.447        5.091       44.014       26.000       20.565     1937.251      676.011      422.938        0.592        0.152       93.716       22.580        0.058      336.367        7.622      862.404
05/18/2013  04:04:00      -92.248      -13.999        7.233       42.781       28.141       23.263     1830.223      791.902      541.151        0.596        0.158       93.304       24.902        0.071      336.421        7.710      862.424
05/18/2013  04:05:00     -100.740       -9.150       -4.662       44.380       24.649       20.753     1969.564      607.568      430.683        0.663        0.150      101.155       21.926        0.047      336.428        7.724      862.424
05/18/2013  04:06:00     -113.743       -3.444       -8.908       28.814       21.612       16.054      830.220      467.065      257.715        0.729        0.078      113.795       15.907        0.020      336.411        7.694      862.422
05/18/2013  04:07:00     -107.872       -6.302      -10.861       30.558       19.248       12.567      933.822      370.473      157.920        0.663        0.073      108.056       13.443        0.015      336.490        7.825      862.437
05/18/2013  04:08:00      -74.642      -25.459       -7.056       20.033       22.411       12.936      401.322      502.261      167.346        0.367        0.054       78.864       12.621        0.026      336.501        7.845      862.443
05/18/2013  04:09:00      -81.582      -35.883      -10.834       12.448       15.551        9.597      154.958      241.846       92.104        0.427        0.024       89.124        4.766        0.003      336.484        7.817      862.444
05/18/2013  04:10:00      -86.480      -18.505      -13.373       13.601        9.800       10.166      184.992       96.033      103.346        0.419        0.019       88.438        7.140        0.007      336.497        7.839      862.450
05/18/2013  04:11:00      -74.741      -21.770      -10.635       15.555       20.704       12.207      241.972      428.648      149.021        0.350        0.041       77.847        7.895        0.010      336.508        7.859      862.468
05/18/2013  04:12:00      -82.046       -5.852       -7.320       24.213       20.428       11.970      586.256      417.309      143.288        0.398        0.057       82.255        6.834        0.007      336.469        7.793      862.486
05/18/2013  04:13:00      -82.199      -46.467       -5.131       25.586       16.642       12.565      654.643      276.956      157.867        0.502        0.054       94.424        6.665        0.005      336.494        7.834      862.492
05/18/2013  04:14:00      -86.335      -46.043      -10.022       18.867       15.037       12.554      355.958      226.104      157.601        0.521        0.037       97.845        6.002        0.004      336.541        7.909      862.497
05/18/2013  04:15:00      -86.102      -46.257       -5.549       17.874       17.744       11.370      319.464      314.837      129.277        0.517        0.038       97.740       11.484        0.014      336.544        7.915      862.508
05/18/2013  04:16:00      -80.121      -40.044        2.531       30.428       18.391       14.786      925.863      338.217      218.623        0.476        0.074       89.570       15.796        0.031      336.536        7.904      862.526
05/18/2013  04:17:00      -28.051      -32.423        6.701       26.812       23.093       15.976      718.890      533.296      255.219        0.169        0.075       42.873       14.456        0.114      336.640        8.078      862.526
05/18/2013  04:18:00      -37.070      -52.091        7.658       40.182       26.950       24.192     1614.619      726.283      585.243        0.354        0.146       63.934       24.464        0.146      336.707        8.190      862.518
05/18/2013  04:19:00      -13.568      -39.551       12.364       34.758       25.280       19.750     1208.124      639.073      390.071        0.207        0.112       41.813       13.262        0.101      336.723        8.217      862.520
05/18/2013  04:20:00      -64.957      -42.461       12.744       44.698       33.008       23.182     1997.912     1089.506      537.415        0.490        0.181       77.604       23.088        0.089      336.634        8.069      862.526
05/18/2013  04:21:00      -55.599      -28.291        7.303       50.600       25.039       20.981     2560.340      626.947      440.203        0.379        0.181       62.383       23.872        0.146      336.628        8.059      862.524
05/18/2013  04:22:00      -35.142      -42.648       13.602       44.433       25.269       23.076     1974.329      638.508      532.511        0.319        0.157       55.262       25.517        0.213      336.655        8.106      862.514
05/18/2013  04:23:00      -80.328      -37.656        3.139       34.733       24.472       19.808     1206.372      598.899      392.346        0.504        0.110       88.716       18.441        0.043      336.589        7.994      862.498
05/18/2013  04:24:00      -97.535      -21.067       -4.553       27.193       21.025       15.708      739.441      442.070      246.757        0.570        0.071       99.784       13.505        0.018      336.486        7.820      862.481
05/18/2013  04:25:00      -97.621       -8.373       -3.277       30.039       23.076       18.660      902.362      532.516      348.199        0.570        0.089       97.979       17.268        0.031      336.360        7.610      862.479
05/18/2013  04:26:00      -84.569       -2.913       -3.317       35.541       18.376       17.609     1263.148      337.680      310.064        0.454        0.096       84.619       13.706        0.026      336.211        7.362      862.482
05/18/2013  04:27:00      -74.879       -6.039       -0.892       32.883       19.078       15.153     1081.312      363.972      229.616        0.366        0.084       75.122       17.541        0.055      336.169        7.289      862.482
05/18/2013  04:28:00      -39.506       -0.039       -2.515       21.862       10.846        9.589      477.934      117.643       91.945        0.113        0.034       39.506        9.437        0.057      336.192        7.329      862.484
05/18/2013  04:29:00      -31.953      -10.559       -7.803       13.913       11.965        4.815      193.580      143.151       23.186        0.078        0.018       33.653        3.616        0.012      336.408        7.689      862.478
05/18/2013  04:30:00      -15.751      -18.683        0.928       14.882       12.003       10.258      221.477      144.083      105.234        0.053        0.024       24.437        7.437        0.093      336.460        7.775      862.470
05/18/2013  04:31:00      -13.232      -16.915       -0.177       15.101       11.697       10.824      228.054      136.816      117.150        0.047        0.024       21.476        1.805        0.007      336.489        7.826      862.462
05/18/2013  04:32:00      -14.382      -24.040        3.144       25.317       14.287       18.309      640.931      204.128      335.235        0.099        0.059       28.014       11.208        0.160      336.520        7.879      862.454
05/18/2013  04:33:00      -54.370      -37.260        3.711       44.585       20.089       18.357     1987.840      403.554      336.993        0.354        0.136       65.912       19.512        0.088      336.436        7.736      862.459
05/18/2013  04:34:00     -133.456      -44.656       -6.098       25.796       20.787       13.444      665.448      432.094      180.730        1.056        0.064      140.730        6.994        0.002      336.177        7.303      862.460
05/18/2013  04:35:00     -121.107      -51.869       -6.069       44.545       22.549       19.838     1984.263      508.480      393.551        1.014        0.144      131.747        9.924        0.006      336.142        7.246      862.472
05/18/2013  04:36:00      -83.084      -34.179       -4.229       31.124       16.490       14.471      968.688      271.915      209.423        0.477        0.073       89.839       15.626        0.030      336.209        7.357      862.487
05/18/2013  04:37:00      -55.423      -29.738       -3.294       18.176       13.372        8.558      330.358      178.821       73.231        0.227        0.029       62.898       10.332        0.027      336.316        7.534      862.488
05/18/2013  04:38:00      -54.750      -27.980       -1.203       15.183       11.856       11.329      230.520      140.558      128.342        0.214        0.025       61.485        6.549        0.011      336.408        7.691      862.495
05/18/2013  04:39:00      -85.584      -41.730       -7.567       18.472       19.440       11.032      341.226      377.918      121.711        0.498        0.042       95.216        3.365        0.001      336.386        7.651      862.499
05/18/2013  04:40:00      -41.184      -30.410        0.385       32.884       21.749       18.410     1081.333      473.010      338.926        0.226        0.095       51.195       17.281        0.114      336.345        7.585      862.501
05/18/2013  04:41:00      -50.858      -48.352       -1.389       38.482       24.658       16.778     1480.834      608.004      281.495        0.365        0.119       70.174       16.513        0.055      336.333        7.564      862.497
05/18/2013  04:42:00      -90.942      -48.442      -10.613       20.598       16.190       13.568      424.283      262.115      184.100        0.580        0.044      103.039        8.832        0.007      336.385        7.650      862.509
05/18/2013  04:43:00      -74.107      -62.318       -0.318       30.966       30.311       20.179      958.916      918.743      407.179        0.583        0.114       96.827       11.623        0.014      336.398        7.672      862.519
05/18/2013  04:44:00      -66.388      -33.177        6.131       61.401       26.276       23.445     3770.126      690.445      549.660        0.528        0.251       74.216       25.081        0.114      336.336        7.569      862.535
05/18/2013  04:45:00     -122.041      -73.072       -4.510       50.744       29.150       25.244     2574.934      849.720      637.253        1.216        0.203      142.245       26.957        0.036      336.145        7.251      862.547
05/18/2013  04:46:00      -94.889      -60.448       -2.979       45.120       25.753       20.113     2035.812      663.240      404.532        0.788        0.155      112.508       23.233        0.043      336.127        7.219      862.557
05/18/2013  04:47:00      -94.004      -74.765        4.898       40.937       31.360       25.346     1675.834      983.480      642.439        0.888        0.165      120.110       24.644        0.042      336.164        7.282      862.559
05/18/2013  04:48:00     -119.746      -60.255       -4.014       29.573       27.068       15.764      874.545      732.662      248.499        0.992        0.093      134.051        9.617        0.005      336.097        7.170      862.564
05/18/2013  04:49:00     -134.813      -61.867       -0.619       32.897       26.463       17.327     1082.182      700.295      300.212        1.204        0.104      148.331       13.778        0.009      336.129        7.223      862.567
05/18/2013  04:50:00     -136.078      -45.253       -0.802       26.205       32.099       21.788      686.728     1030.342      474.736        1.138        0.110      143.405       17.497        0.015      336.132        7.229      862.571
05/18/2013  04:51:00     -105.030      -18.006       -7.860       44.438       30.848       19.801     1974.729      951.569      392.086        0.737        0.166      106.562       20.642        0.038      336.049        7.090      862.566
05/18/2013  04:52:00     -116.118      -11.557        4.332       70.304       38.287       26.841     4942.699     1465.888      720.459        1.038        0.356      116.692       38.400        0.108      335.916        6.868      862.549
05/18/2013  04:53:00      -96.905      -31.185       -9.032       36.586       29.030       13.667     1338.512      842.713      186.784        0.641        0.118      101.799        6.703        0.004      335.919        6.872      862.533
05/18/2013  04:54:00      -17.511       -8.228       -1.007       20.031       15.498        9.792      401.234      240.189       95.886        0.056        0.037       19.348       11.541        0.356      335.944        6.912      862.519
05/18/2013  04:55:00       -8.375        0.958        1.508        7.529        8.159        9.265       56.681       66.573       85.835        0.014        0.010        8.430        3.549        0.177      335.990        6.990      862.512
05/18/2013  04:56:00      -65.977        2.858      -12.617       31.586        7.380       11.721      997.649       54.458      137.391        0.285        0.059       66.039       16.341        0.061      336.073        7.130      862.514
05/18/2013  04:57:00     -100.864      -27.500      -13.913       13.651       16.060        9.582      186.338      257.923       91.823        0.583        0.027      104.545        6.835        0.004      336.175        7.300      862.522
05/18/2013  04:58:00     -120.188      -37.583      -15.979        9.861       15.317        9.464       97.240      234.621       89.561        0.827        0.021      125.928        5.028        0.002      336.073        7.128      862.540
05/18/2013  04:59:00      -93.303      -50.781       -3.166       32.342       26.656       22.667     1046.015      710.550      513.785        0.678        0.114      106.227       20.176        0.036      336.017        7.036      862.559
05/18/2013  05:00:00      -63.605      -42.548       -4.351       34.637       31.061       17.189     1199.693      964.811      295.475        0.417        0.123       76.524        7.734        0.010      335.953        6.929      862.570
05/18/2013  05:01:00      -50.765      -10.527       -8.622       13.472       15.348        9.937      181.491      235.574       98.740        0.164        0.026       51.845        5.948        0.013      335.993        6.997      862.574
05/18/2013  05:02:00      -46.371        5.181      -13.045       11.845       13.932       10.834      140.300      194.093      117.386        0.140        0.023       46.659        7.582        0.026      336.060        7.109      862.575
05/18/2013  05:03:00      -52.534       10.586      -14.590       13.585       11.281        9.121      184.554      127.257       83.189        0.174        0.020       53.590        6.992        0.017      336.286        7.485      862.584
05/18/2013  05:04:00      -33.194       -5.528       -5.697       10.192       14.558        7.596      103.875      211.941       57.699        0.077        0.019       33.651        4.784        0.020      336.302        7.511      862.602
05/18/2013  05:05:00      -67.954      -27.150       -8.951       20.684       13.852        7.811      427.825      191.890       61.017        0.306        0.034       73.177        5.127        0.005      336.263        7.448      862.617
05/18/2013  05:06:00     -106.357      -30.820      -12.738       13.484       13.481        6.864      181.813      181.747       47.120        0.642        0.021      110.732        5.630        0.003      336.070        7.125      862.628
05/18/2013  05:07:00     -105.789      -32.243      -13.359       18.315       15.231       11.119      335.435      231.983      123.635        0.655        0.035      110.594        7.796        0.005      335.991        6.993      862.641
05/18/2013  05:08:00      -98.890      -22.112      -16.166       14.366       13.665       10.584      206.388      186.733      112.012        0.552        0.025      101.332        5.849        0.003      335.996        7.000      862.651
05/18/2013  05:09:00      -56.231      -17.596      -11.743       13.917       12.472        7.521      193.676      155.561       56.561        0.201        0.020       58.920        2.247        0.001      336.054        7.099      862.661
05/18/2013  05:10:00      -52.947      -18.323       -5.253       12.496       10.823        5.768      156.144      117.142       33.266        0.174        0.015       56.028        4.646        0.007      336.148        7.254      862.657
05/18/2013  05:11:00      -45.140      -17.889       -5.984       12.187        8.816        6.985      148.535       77.715       48.788        0.133        0.014       48.556        3.112        0.004      336.218        7.371      862.651
05/18/2013  05:12:00      -23.371      -23.227       -7.499       22.636       13.175       10.357      512.406      173.583      107.269        0.097        0.040       32.950        9.876        0.090      336.180        7.308      862.671
05/18/2013  05:13:00      -12.485      -35.138        5.123       22.182       23.816       14.785      492.019      567.211      218.596        0.135        0.064       37.290        8.550        0.053      336.217        7.371      862.682
05/18/2013  05:14:00      -40.846      -70.043       -6.744       24.980       28.254       13.591      623.988      798.287      184.727        0.411        0.080       81.083        6.750        0.007      336.319        7.541      862.680
05/18/2013  05:15:00      -45.793      -48.516       -3.231       27.141       31.939       20.675      736.645     1020.110      427.470        0.332        0.109       66.715       13.367        0.040      336.336        7.568      862.682
05/18/2013  05:16:00      -14.109      -37.146        3.261       32.244       16.716       13.462     1039.652      279.424      181.221        0.154        0.075       39.735       11.279        0.081      336.458        7.772      862.696
05/18/2013  05:17:00      -25.199      -38.052        3.902       20.179       15.974       15.857      407.209      255.175      251.443        0.151        0.046       45.640       11.102        0.059      336.427        7.722      862.705
05/18/2013  05:18:00      -21.312      -12.876        7.729       22.192       15.865       13.504      492.492      251.690      182.351        0.080        0.046       24.899        9.251        0.138      336.403        7.681      862.710
05/18/2013  05:19:00      -34.442      -41.198        6.327       33.313       27.421       15.825     1109.740      751.915      250.435        0.252        0.106       53.699        6.178        0.013      336.417        7.705      862.721
05/18/2013  05:20:00      -55.197      -68.104        1.936       28.484       28.231       21.052      811.312      797.009      443.195        0.487        0.103       87.663       15.495        0.031      336.369        7.621      862.735
05/18/2013  05:21:00      -52.009      -56.016        4.675       31.760       21.882       20.429     1008.695      478.838      417.344        0.388        0.095       76.438       17.656        0.053      336.371        7.628      862.750
05/18/2013  05:22:00      -39.814      -39.663        3.205       27.455       30.884       14.724      753.771      953.836      216.783        0.255        0.096       56.199       15.211        0.073      336.374        7.634      862.768
05/18/2013  05:23:00      -19.973        0.571        4.019       22.857       17.682       11.006      522.445      312.650      121.139        0.069        0.048       19.981       10.506        0.276      336.281        7.477      862.773
05/18/2013  05:24:00       -5.210        9.333        4.296       17.841       12.290       12.592      318.318      151.032      158.570        0.038        0.031       10.689       13.009        1.481      336.214        7.366      862.769
05/18/2013  05:25:00       -1.698        2.024        4.731       11.103       12.682        7.505      123.284      160.831       56.320        0.018        0.017        2.642        6.433        5.926      336.099        7.172      862.767
05/18/2013  05:26:00      -40.975        7.177       -4.631       25.659       15.988       10.475      658.364      255.608      109.723        0.139        0.051       41.599       11.040        0.070      336.126        7.219      862.768
05/18/2013  05:27:00      -75.689      -12.836       -5.375       15.858       17.123       11.123      251.490      293.213      123.717        0.330        0.033       76.770        9.866        0.017      336.142        7.244      862.782
05/18/2013  05:28:00      -97.313      -26.545       -4.311       29.506       15.802       14.206      870.601      249.704      201.818        0.576        0.066      100.868       12.793        0.016      336.131        7.227      862.798
05/18/2013  05:29:00      -88.929      -32.703       -2.033       27.840       20.097       14.879      775.051      403.904      221.382        0.519        0.070       94.752       11.985        0.016      336.127        7.219      862.808
05/18/2013  05:30:00      -61.181      -36.576        5.319       35.597       23.197       14.811     1267.138      538.088      219.362        0.357        0.101       71.280       17.036        0.057      336.210        7.358      862.805
05/18/2013  05:31:00      -90.843      -37.519       -5.615       21.573       17.156       15.109      465.396      294.329      228.283        0.534        0.049       98.286       11.569        0.014      336.185        7.315      862.810
05/18/2013  05:32:00      -76.527      -27.079       -6.958       25.193       17.862       10.639      634.683      319.040      113.195        0.385        0.053       81.176       10.439        0.017      336.151        7.260      862.802
05/18/2013  05:33:00      -79.306      -20.446       -0.599       21.050       18.237       12.715      443.087      332.588      161.665        0.382        0.047       81.899       10.241        0.016      336.113        7.197      862.799
05/18/2013  05:34:00      -86.376      -24.293       -8.046       16.474       14.670       10.415      271.399      215.201      108.479        0.436        0.030       89.727        7.854        0.008      336.178        7.304      862.802
05/18/2013  05:35:00      -87.311      -22.353       -9.837       21.229       15.659       11.241      450.689      245.216      126.358        0.452        0.041       90.127       10.885        0.015      336.186        7.318      862.799
05/18/2013  05:36:00      -83.686      -23.745       -4.682       22.738       17.636       14.973      517.037      311.024      224.200        0.432        0.053       86.989       11.172        0.016      336.090        7.159      862.811
05/18/2013  05:37:00      -77.907      -14.397      -11.068       21.271       17.919       13.180      452.459      321.079      173.718        0.367        0.047       79.226       11.700        0.022      335.984        6.982      862.818
05/18/2013  05:38:00      -53.574      -10.959       -1.785       26.576       25.394       13.567      706.279      644.843      184.068        0.226        0.077       54.683       10.903        0.040      335.914        6.864      862.824
05/18/2013  05:39:00      -26.617       -5.455       -2.449       20.587       18.147       14.929      423.834      329.298      222.880        0.086        0.049       27.171       14.414        0.281      335.886        6.818      862.819
05/18/2013  05:40:00      -50.068        2.036      -11.313       22.545       14.062       14.047      508.271      197.726      197.328        0.177        0.045       50.109        4.590        0.008      335.930        6.891      862.820
05/18/2013  05:41:00      -67.714      -23.042       -2.419       22.411       17.137       11.238      502.248      293.673      126.302        0.302        0.046       71.527        8.374        0.014      335.957        6.935      862.818
05/18/2013  05:42:00      -92.966      -15.939      -11.436       14.374       13.962       11.998      206.603      194.937      143.953        0.479        0.027       94.322        7.857        0.007      335.910        6.857      862.824
05/18/2013  05:43:00      -86.227      -15.202      -10.901       19.936       15.234       10.710      397.452      232.089      114.697        0.426        0.037       87.557        7.959        0.008      335.885        6.816      862.828
05/18/2013  05:44:00      -84.403      -23.325       -7.285       15.814       13.712       10.647      250.089      188.015      113.352        0.414        0.028       87.567        8.939        0.010      335.899        6.838      862.829
05/18/2013  05:45:00      -90.040      -26.745      -10.043       11.999       16.151        7.238      143.986      260.861       52.383        0.469        0.023       93.928        1.841        0.000      335.892        6.828      862.838
05/18/2013  05:46:00      -69.697      -26.155       -7.048        9.268       14.326       10.938       85.888      205.244      119.648        0.300        0.021       74.443        8.342        0.013      335.962        6.944      862.843
05/18/2013  05:47:00      -87.329       -4.896      -10.581       12.396       10.064        9.586      153.671      101.289       91.884        0.405        0.017       87.466        7.537        0.007      335.871        6.794      862.849
05/18/2013  05:48:00      -49.920      -13.165       -8.148       14.651       14.980       10.444      214.649      224.403      109.073        0.164        0.027       51.627        8.172        0.025      335.877        6.802      862.859
05/18/2013  05:49:00      -65.622       -6.400       -9.383       27.001       16.070       13.949      729.063      258.259      194.578        0.281        0.059       65.934       13.681        0.043      335.833        6.731      862.862
05/18/2013  05:50:00      -46.213      -17.772        0.623       25.767       13.304       14.101      663.958      177.000      198.834        0.175        0.052       49.512       15.110        0.093      335.810        6.692      862.865
05/18/2013  05:51:00      -47.158       -8.386       -1.331       18.793       14.920       12.979      353.182      222.616      168.457        0.152        0.037       47.898       11.766        0.060      335.817        6.704      862.868
05/18/2013  05:52:00      -34.567       -7.227       -5.683       27.290       17.000       15.803      744.753      288.995      249.725        0.128        0.064       35.314       16.284        0.213      335.796        6.669      862.878
05/18/2013  05:53:00      -30.311       -6.426       -8.461       14.037       15.291       10.986      197.041      233.806      120.695        0.079        0.028       30.985        8.999        0.084      335.830        6.725      862.893
05/18/2013  05:54:00      -29.773      -18.742       -9.053       22.765       13.517       10.034      518.256      182.696      100.674        0.106        0.040       35.181        6.903        0.039      335.907        6.853      862.894
05/18/2013  05:55:00      -13.376      -21.673       -6.042       19.199       17.959       14.269      368.599      322.523      203.608        0.079        0.045       25.468       13.531        0.282      335.931        6.894      862.894
05/18/2013  05:56:00      -68.236      -15.890      -12.320       14.903       16.046       14.243      222.110      257.460      202.858        0.287        0.034       70.062        8.745        0.016      335.833        6.731      862.893
05/18/2013  05:57:00      -43.694      -27.831       -7.265       21.888       18.153       13.086      479.078      329.540      171.237        0.186        0.049       51.804        5.563        0.012      335.843        6.745      862.904
05/18/2013  05:58:00      -48.694       -9.378       -9.200       30.493       24.175        9.895      929.840      584.439       97.918        0.208        0.081       49.588       10.208        0.042      335.791        6.661      862.910
05/18/2013  05:59:00      -66.544      -10.204       -3.377       29.578       22.326       12.496      874.842      498.432      156.145        0.304        0.076       67.322       12.978        0.037      335.768        6.623      862.908
05/18/2013  06:00:00      -95.443        1.257       -6.026       26.146       17.290       13.848      683.595      298.945      191.756        0.516        0.059       95.451       11.386        0.014      335.713        6.530      862.912
05/18/2013  06:01:00     -106.770      -10.212      -11.021       20.384       14.957       14.544      415.523      223.703      211.539        0.624        0.043      107.257       10.840        0.010      335.639        6.407      862.914
05/18/2013  06:02:00      -77.276       -7.869       -5.124       18.540       13.454       11.470      343.724      181.017      131.554        0.336        0.033       77.676        7.645        0.010      335.717        6.537      862.916
05/18/2013  06:03:00      -91.051       -4.714      -11.698       16.774       17.721       11.832      281.354      314.048      139.987        0.459        0.037       91.173       10.465        0.013      335.766        6.620      862.925
05/18/2013  06:04:00     -118.225        4.906      -15.542       14.992       16.174       10.627      224.746      261.614      112.944        0.742        0.030      118.327        6.868        0.003      335.764        6.615      862.931
05/18/2013  06:05:00      -89.665       -3.970       -6.721       51.746       23.499       20.028     2677.670      552.202      401.123        0.587        0.182       89.753       25.054        0.078      335.698        6.506      862.937
05/18/2013  06:06:00      -94.773       -4.837       -8.961       31.021       28.490       21.495      962.302      811.706      462.056        0.566        0.112       94.896       15.382        0.026      335.675        6.467      862.947
05/18/2013  06:07:00      -80.740      -18.218       -4.415       22.069       23.032       12.839      487.044      530.471      164.844        0.403        0.059       82.770       10.486        0.016      335.746        6.588      862.950
05/18/2013  06:08:00      -83.151      -24.867       -3.030       18.191       18.826       13.388      330.899      354.434      179.250        0.420        0.043       86.789       13.417        0.024      335.813        6.699      862.965
05/18/2013  06:09:00      -87.838      -22.155       -6.915       15.545       17.702       12.375      241.642      313.364      153.150        0.448        0.035       90.589        8.977        0.010      335.880        6.809      862.985
05/18/2013  06:10:00      -91.996       -9.117      -12.061       18.898       17.533       13.062      357.124      307.405      170.619        0.476        0.042       92.446        9.484        0.011      335.800        6.676      862.997
05/18/2013  06:11:00      -67.701       -5.637       -8.073       24.494       24.231       16.424      599.963      587.161      269.739        0.307        0.073       67.935       13.961        0.042      335.764        6.614      863.028
05/18/2013  06:12:00      -82.786        1.401       -3.551       25.647       29.143       19.212      657.785      849.320      369.120        0.437        0.094       82.798       17.196        0.043      335.731        6.561      863.042
05/18/2013  06:13:00      -38.242        4.193       -5.112       27.904       32.759       15.120      778.610     1073.150      228.600        0.179        0.104       38.471       12.582        0.107      335.750        6.593      863.059
05/18/2013  06:14:00      -41.968       -1.494      -10.015       22.804       19.115       11.671      520.004      365.376      136.223        0.144        0.051       41.995        8.812        0.044      335.787        6.653      863.077
05/18/2013  06:15:00      -29.176      -14.581       -3.493       13.300       14.191        8.654      176.879      201.388       74.892        0.076        0.023       32.617        5.490        0.028      335.849        6.757      863.097
05/18/2013  06:16:00      -68.923       -7.006       -6.391       19.840       14.385        9.814      393.610      206.924       96.310        0.277        0.035       69.278        7.753        0.013      335.881        6.811      863.121
05/18/2013  06:17:00      -77.182      -16.253       -7.863       14.853       12.313       10.145      220.600      151.607      102.911        0.338        0.024       78.875        4.007        0.003      335.867        6.787      863.140
05/18/2013  06:18:00      -49.824      -22.687      -11.751       10.462        9.626        7.877      109.444       92.651       62.041        0.170        0.013       54.746        4.335        0.006      335.967        6.952      863.150
05/18/2013  06:19:00      -47.874       -6.179        0.005       15.743       12.012        9.955      247.827      144.282       99.103        0.141        0.025       48.271        5.850        0.015      336.008        7.021      863.157
05/18/2013  06:20:00      -13.149      -12.841        6.009       22.776       10.405       13.180      518.728      108.257      173.722        0.059        0.040       18.379       14.295        0.605      336.110        7.191      863.155
05/18/2013  06:21:00      -64.557      -29.189      -10.550       11.250        8.896        6.013      126.556       79.145       36.159        0.269        0.012       70.850        2.915        0.002      336.131        7.225      863.150
05/18/2013  06:22:00      -42.473      -24.359       -8.902        8.749        9.529        5.589       76.554       90.806       31.241        0.134        0.010       48.962        4.080        0.007      336.211        7.361      863.158
05/18/2013  06:23:00      -27.966      -23.341       -6.870       11.872        5.963        8.810      140.936       35.559       77.614        0.081        0.013       36.426        4.739        0.017      336.386        7.652      863.172
05/18/2013  06:24:00      -16.496        4.091        6.553        8.500        7.532        8.121       72.255       56.737       65.949        0.026        0.010       16.996        6.618        0.152      336.470        7.794      863.181
05/18/2013  06:25:00      -37.488       -6.721       -0.226       11.424       12.946        6.061      130.508      167.604       36.737        0.089        0.017       38.085        4.872        0.016      336.330        7.559      863.184
05/18/2013  06:26:00      -19.912       -9.500        3.112       21.690        9.697        7.845      470.473       94.029       61.546        0.056        0.031       22.062        8.662        0.154      336.405        7.684      863.199
05/18/2013  06:27:00      -33.115        2.312        4.659       10.344       10.243        9.250      107.001      104.929       85.565        0.071        0.015       33.196        7.766        0.055      336.387        7.654      863.223
05/18/2013  06:28:00      -28.666       -0.470       -1.000        9.228        7.217        8.204       85.156       52.092       67.309        0.051        0.010       28.670        2.318        0.007      336.395        7.665      863.228
05/18/2013  06:29:00       -7.927        3.944        4.020       11.764       15.386       10.611      138.399      236.729      112.589        0.029        0.024        8.853        6.673        0.568      336.558        7.940      863.246
05/18/2013  06:30:00      -15.392       -8.442        4.458       21.750       17.827       15.135      473.049      317.811      229.069        0.067        0.051       17.555        8.679        0.244      336.593        7.998      863.249
05/18/2013  06:31:00      -40.873      -35.173        1.838       28.470       23.694       19.925      810.554      561.429      396.989        0.234        0.088       53.923       11.286        0.044      336.309        7.524      863.259
05/18/2013  06:32:00      -27.517      -38.953       18.631       51.060       31.978       24.666     2607.088     1022.618      608.430        0.343        0.212       47.692       23.187        0.236      336.342        7.579      863.272
05/18/2013  06:33:00      -73.056      -64.753        5.367       45.461       35.873       22.582     2066.716     1286.907      509.961        0.671        0.193       97.622       21.567        0.049      336.195        7.334      863.267
05/18/2013  06:34:00      -60.443      -54.466        4.245       47.691       28.781       21.266     2274.412      828.328      452.262        0.510        0.178       81.363       14.555        0.032      336.211        7.359      863.276
05/18/2013  06:35:00      -63.882      -62.680        5.863       48.861       32.635       27.146     2387.375     1065.072      736.904        0.612        0.209       89.497       26.990        0.091      336.261        7.444      863.271
05/18/2013  06:36:00      -81.126      -36.666        0.926       28.274       27.030       13.768      799.407      730.625      189.561        0.482        0.086       89.027       12.715        0.020      336.271        7.461      863.276
05/18/2013  06:37:00      -79.911      -40.447       -1.041       24.240       19.193       11.313      587.585      368.378      127.978        0.455        0.054       89.564       10.586        0.014      336.276        7.470      863.269
05/18/2013  06:38:00      -48.214      -24.163        1.161       25.069       15.248       14.257      628.473      232.488      203.274        0.199        0.053       53.930       14.662        0.074      336.380        7.643      863.273
05/18/2013  06:39:00      -56.844       -6.666       -1.754       16.831       10.251        9.161      283.280      105.073       83.921        0.188        0.024       57.234        6.416        0.013      336.373        7.629      863.255
05/18/2013  06:40:00      -56.715      -10.793       -4.909       14.354       10.340        8.283      206.033      106.921       68.605        0.187        0.019       57.733        4.898        0.007      336.434        7.733      863.261
05/18/2013  06:41:00      -16.782        5.647        8.585       13.704       13.582       13.408      187.809      184.477      179.783        0.047        0.028       17.707       12.327        0.485      336.740        8.246      863.255
05/18/2013  06:42:00      -15.958        5.106        3.306       14.567        7.411       13.571      212.190       54.922      184.167        0.037        0.023       16.755       11.425        0.465      336.681        8.146      863.254
05/18/2013  06:43:00       -7.187        4.578       10.162       13.614       11.332        9.545      185.348      128.408       91.108        0.029        0.020        8.521        8.449        0.983      336.897        8.508      863.257
05/18/2013  06:44:00       -5.037       14.313        6.565        9.306        9.902       12.768       86.595       98.047      163.031        0.031        0.017       15.173        7.364        0.236      336.793        8.334      863.257
05/18/2013  06:45:00       -0.514       34.621        7.415       11.442       12.983       14.040      130.911      168.549      197.113        0.088        0.025       34.625        8.086        0.055      336.839        8.411      863.264
05/18/2013  06:46:00        3.975       12.623       21.644       14.441       17.003       14.735      208.531      289.101      217.133        0.068        0.036       13.234       13.257        1.003      337.224        9.054      863.251
05/18/2013  06:47:00       15.111       13.398       28.543       21.126       17.872       13.415      446.325      319.391      179.957        0.108        0.047       20.195       12.451        0.380      337.195        9.006      863.248
05/18/2013  06:48:00       -3.117      -10.212       22.299       13.722       16.002       12.983      188.290      256.070      168.560        0.061        0.031       10.677       10.317        0.934      337.376        9.308      863.257
05/18/2013  06:49:00      -16.871       -4.236       13.290       19.699       10.354       11.920      388.034      107.204      142.075        0.056        0.032       17.395        4.742        0.074      337.137        8.908      863.264
05/18/2013  06:50:00       -7.386       -0.123       11.752       17.540       15.663       17.740      307.641      245.336      314.711        0.053        0.043        7.387       11.465        2.408      337.232        9.067      863.285
05/18/2013  06:51:00      -22.710       -5.237        2.733       21.275       24.421       19.184      452.615      596.367      368.018        0.098        0.071       23.306       16.670        0.512      336.983        8.651      863.298
05/18/2013  06:52:00      -60.084      -37.641        3.864       37.236       31.604       20.617     1386.522      998.806      425.070        0.393        0.141       70.901       13.588        0.037      336.804        8.351      863.295
05/18/2013  06:53:00      -39.650      -33.486        8.263       48.879       40.584       23.921     2389.112     1647.028      572.210        0.368        0.230       51.898       23.297        0.202      336.939        8.578      863.301
05/18/2013  06:54:00      -48.619      -43.497        5.872       44.284       26.790       19.110     1961.101      717.700      365.191        0.367        0.152       65.237       12.563        0.037      336.778        8.308      863.302
05/18/2013  06:55:00      -37.312      -40.344        7.958       37.745       40.816       24.714     1424.661     1665.958      610.759        0.339        0.185       54.953       25.075        0.208      336.919        8.545      863.292
05/18/2013  06:56:00      -83.641      -64.756       -6.068       26.462       29.375       17.197      700.250      862.888      295.729        0.654        0.093      105.779       14.009        0.018      336.726        8.223      863.299
05/18/2013  06:57:00      -69.777      -74.264       -8.224       25.904       26.529       18.062      671.012      703.770      326.241        0.608        0.085      101.902       11.020        0.012      336.775        8.304      863.307
05/18/2013  06:58:00      -52.218      -66.808        2.720       29.597       31.682       20.738      875.977     1003.740      430.079        0.475        0.115       84.794       15.177        0.032      336.777        8.308      863.316
05/18/2013  06:59:00      -33.199      -65.912        1.165       25.545       28.561       16.894      652.556      815.732      285.401        0.360        0.088       73.801       14.675        0.040      336.760        8.279      863.328
05/18/2013  07:00:00      -10.138      -36.825        5.414       20.163       26.624       13.980      406.566      708.852      195.449        0.140        0.066       38.195       13.937        0.133      336.874        8.469      863.331
05/18/2013  07:01:00      -24.605      -37.783        9.037       36.432       31.662       27.626     1327.286     1002.485      763.217        0.260        0.155       45.088       25.201        0.312      337.067        8.791      863.344
05/18/2013  07:02:00      -72.824      -38.847       -5.043       16.712       21.724       14.400      279.276      471.947      207.370        0.390        0.048       82.537        7.447        0.008      336.738        8.243      863.348
05/18/2013  07:03:00      -57.896      -24.925       -6.318       20.148       21.043       13.179      405.935      442.789      173.696        0.252        0.051       63.033       10.967        0.030      336.782        8.315      863.350
05/18/2013  07:04:00      -47.959      -19.803        7.816       27.211       20.697       15.757      740.418      428.356      248.269        0.208        0.071       51.887        8.624        0.028      336.983        8.650      863.358
05/18/2013  07:05:00      -24.533       12.395       15.247       24.826       20.763       20.100      616.327      431.097      404.012        0.122        0.073       27.487       16.349        0.354      337.515        9.542      863.372
05/18/2013  07:06:00      -25.646        2.488        8.828       17.962       16.424       18.358      322.636      269.736      337.012        0.084        0.046       25.767       12.160        0.223      337.234        9.072      863.388
05/18/2013  07:07:00      -49.576      -20.690        5.335       47.550       20.580       17.027     2261.014      423.537      289.935        0.294        0.149       53.721       19.808        0.136      337.212        9.036      863.410
05/18/2013  07:08:00      -50.278      -28.934        9.674       49.537       24.309       17.385     2453.895      590.936      302.243        0.340        0.167       58.009       21.644        0.139      337.011        8.696      863.424
05/18/2013  07:09:00      -67.068      -34.143       -6.305       17.834       15.077        8.814      318.049      227.315       77.694        0.316        0.031       75.259        6.030        0.006      336.819        8.378      863.435
05/18/2013  07:10:00      -86.929      -44.122      -13.378       34.278       20.915       15.154     1174.949      437.440      229.629        0.576        0.092       97.485       11.842        0.015      336.866        8.455      863.444
05/18/2013  07:11:00      -53.668       -0.195       -1.781       28.557       24.436       12.595      815.474      597.098      158.633        0.223        0.079       53.668       10.234        0.036      336.847        8.423      863.453
05/18/2013  07:12:00      -51.149       13.477       -3.862       12.953       13.754        7.823      167.786      189.173       61.207        0.162        0.021       52.895        4.485        0.007      336.825        8.388      863.457
05/18/2013  07:13:00      -32.015      -50.351        3.064       31.489       42.248       20.443      991.539     1784.925      417.912        0.338        0.160       59.667       16.729        0.079      337.005        8.687      863.468
05/18/2013  07:14:00      -52.785      -27.460       -3.565       34.378       25.765       17.966     1181.847      663.839      322.779        0.286        0.108       59.501       10.821        0.033      337.035        8.737      863.478
05/18/2013  07:15:00      -36.622      -44.573        6.537       26.715       34.192       20.818      713.692     1169.072      433.378        0.284        0.116       57.688       19.906        0.119      337.133        8.901      863.488
05/18/2013  07:16:00      -42.606      -41.013       -4.209       28.627       22.669       17.010      819.489      513.872      289.345        0.257        0.081       59.139       14.409        0.059      336.975        8.638      863.495
05/18/2013  07:17:00      -45.005      -41.091       -3.341       20.438       19.887       20.686      417.726      395.492      427.894        0.248        0.062       60.942       13.143        0.047      336.891        8.496      863.505
05/18/2013  07:18:00      -66.505      -39.285       -5.904       18.779       14.985       14.294      352.634      224.540      204.317        0.339        0.039       77.241       10.667        0.019      336.934        8.568      863.504
05/18/2013  07:19:00      -56.662      -51.932       -5.570       10.368       14.368       10.215      107.490      206.445      104.350        0.318        0.021       76.861        4.439        0.003      336.954        8.602      863.518
05/18/2013  07:20:00      -54.345      -51.721       -6.825       10.683       14.187        7.710      114.135      201.272       59.441        0.302        0.019       75.023        5.164        0.005      336.949        8.593      863.522
05/18/2013  07:21:00      -35.543        2.503       -5.869       11.769       11.949        9.746      138.502      142.769       94.993        0.084        0.019       35.631        5.822        0.027      337.014        8.702      863.528
05/18/2013  07:22:00       -8.341      -48.164       -7.122       14.086       27.398       16.363      198.410      750.627      267.738        0.183        0.061       48.881       13.906        0.081      337.140        8.911      863.537
05/18/2013  07:23:00      -11.800        6.698        6.406       25.237       25.155       21.145      636.894      632.764      447.113        0.097        0.086       13.568       11.486        0.717      337.468        9.463      863.542
05/18/2013  07:24:00      -29.246       14.039      -10.708       18.626       17.304        6.856      346.921      299.421       47.005        0.093        0.035       32.441        8.743        0.073      337.157        8.941      863.551
05/18/2013  07:25:00      -23.320        5.155        6.215       16.029       16.848       17.526      256.936      283.849      307.176        0.073        0.042       23.883        9.725        0.166      337.570        9.634      863.547
05/18/2013  07:26:00      -26.285       13.469        6.104       25.199       14.439       17.208      634.977      208.472      296.120        0.102        0.057       29.535       14.613        0.245      337.407        9.361      863.554
05/18/2013  07:27:00        5.723       -0.839       25.485       22.679       14.936       20.768      514.331      223.076      431.289        0.093        0.058        5.784       18.214        9.916      337.828       10.065      863.543
05/18/2013  07:28:00      -36.401       23.453        8.084       26.253       16.615       22.708      689.208      276.049      515.658        0.171        0.074       43.302       18.790        0.188      337.470        9.466      863.533
05/18/2013  07:29:00      -46.406        0.769       -3.260       12.218        7.690        9.717      149.291       59.139       94.415        0.123        0.015       46.412        6.283        0.018      337.152        8.935      863.536
05/18/2013  07:30:00      -61.284        1.514       -7.211       11.001       12.036       10.072      121.016      144.855      101.440        0.209        0.018       61.303        5.811        0.009      337.187        8.992      863.544
05/18/2013  07:31:00      -44.592       20.298        0.188       22.413       22.522       19.144      502.351      507.233      366.489        0.189        0.069       48.994       15.839        0.105      337.392        9.336      863.551
05/18/2013  07:32:00      -46.041      -16.261        6.503       31.503       23.205       13.629      992.448      538.468      185.761        0.207        0.086       48.829       14.529        0.089      337.290        9.165      863.566
05/18/2013  07:33:00      -48.758       -9.170       12.148       30.928       22.833       17.594      956.549      521.340      309.558        0.220        0.089       49.613       19.653        0.157      337.553        9.605      863.574
05/18/2013  07:34:00      -54.379       15.718        9.932       25.915       20.848       20.783      671.570      434.628      431.941        0.242        0.077       56.605       17.741        0.098      337.425        9.388      863.579
05/18/2013  07:35:00      -28.102       -3.069       -1.080       10.878        9.389       11.342      118.323       88.152      128.630        0.057        0.017       28.269        6.804        0.058      337.496        9.508      863.590
05/18/2013  07:36:00      -44.819      -22.273        4.041       32.761       29.853       20.896     1073.291      891.183      436.647        0.246        0.120       50.048       18.271        0.133      337.666        9.794      863.594
05/18/2013  07:37:00      -19.980       11.438       14.193       14.000       14.939       15.006      195.993      223.186      225.192        0.069        0.032       23.023       11.358        0.243      338.217       10.719      863.604
05/18/2013  07:38:00      -20.943      -13.953       -0.194       20.191       35.477       13.178      407.680     1258.650      173.664        0.124        0.092       25.165        6.412        0.065      337.659        9.782      863.616
05/18/2013  07:39:00      -24.713       -6.549       19.571       38.648       35.024       21.816     1493.698     1226.677      475.919        0.212        0.160       25.566       22.777        0.794      338.264       10.798      863.623
05/18/2013  07:40:00       -2.508       10.578       14.906       21.438       16.831       14.111      459.606      283.269      199.134        0.064        0.047       10.871        9.870        0.824      338.360       10.959      863.632
05/18/2013  07:41:00      -32.512       20.164        6.451       19.376       16.194       14.693      375.420      262.234      215.884        0.118        0.043       38.258        8.784        0.053      337.863       10.125      863.631
05/18/2013  07:42:00      -21.556        5.214       16.436       20.070       10.223       18.414      402.788      104.505      339.092        0.080        0.042       22.178       16.936        0.583      338.367       10.972      863.629
05/18/2013  07:43:00      -42.252       -3.457       -1.597       17.514       12.660        8.799      306.734      160.263       77.421        0.117        0.027       42.393        6.736        0.025      337.576        9.642      863.624
05/18/2013  07:44:00      -30.608       -8.847       -4.684       13.424       10.399        6.019      180.193      108.133       36.233        0.068        0.016       31.861        4.685        0.022      337.668        9.797      863.615
05/18/2013  07:45:00      -12.085       -6.161       -1.026       11.187        9.688       10.151      125.140       93.866      103.034        0.025        0.016       13.565        4.749        0.123      337.953       10.274      863.604
05/18/2013  07:46:00      -32.102       27.131        7.235       27.070       18.114       22.800      732.763      328.111      519.838        0.170        0.079       42.031       15.565        0.137      338.085       10.497      863.593
05/18/2013  07:47:00      -24.021       26.048        7.829       20.072       25.490       24.966      402.884      649.725      623.287        0.150        0.084       35.433       20.834        0.346      338.297       10.854      863.597
05/18/2013  07:48:00      -13.635        6.198       17.837       20.266       16.644       19.494      410.707      277.035      380.000        0.080        0.053       14.977       14.281        0.909      338.735       11.590      863.616
05/18/2013  07:49:00      -33.571       20.733        1.015       36.979       22.021       16.672     1367.423      484.935      277.963        0.184        0.107       39.458       18.426        0.218      337.936       10.249      863.635
05/18/2013  07:50:00      -20.870       26.952        9.555       20.427       25.701       22.563      417.251      660.556      509.075        0.142        0.079       34.088       20.818        0.373      338.640       11.431      863.651
05/18/2013  07:51:00      -13.438       24.756       25.480       14.251       24.798       19.101      203.090      614.923      364.856        0.131        0.059       28.168       13.245        0.221      338.818       11.729      863.662
05/18/2013  07:52:00       -8.799       56.214        3.313       13.990       31.026       21.836      195.722      962.615      476.801        0.244        0.082       56.899        5.420        0.009      338.175       10.650      863.667
05/18/2013  07:53:00        7.200       40.425        3.995       20.101       34.325       25.819      404.056     1178.187      666.617        0.197        0.112       41.061       26.050        0.403      338.275       10.815      863.673
05/18/2013  07:54:00       14.617       30.649       19.449       27.545       39.494       23.960      758.701     1559.759      574.078        0.221        0.145       33.956       19.072        0.315      338.642       11.432      863.685
05/18/2013  07:55:00       -2.329       48.706        5.197       20.772       34.712       28.525      431.475     1204.924      813.669        0.243        0.123       48.762       18.601        0.146      338.475       11.151      863.697
05/18/2013  07:56:00      -12.659       21.873       18.623       21.290       24.021       26.176      453.251      577.000      685.165        0.135        0.086       25.272       14.363        0.323      338.655       11.455      863.705
05/18/2013  07:57:00        8.597        6.409        2.050       18.656       13.698       18.001      348.060      187.647      324.043        0.049        0.043       10.723       12.853        1.437      338.377       10.989      863.716
05/18/2013  07:58:00       16.742       24.749        6.926       21.906       24.123       20.935      479.853      581.923      438.262        0.122        0.075       29.880       14.845        0.247      338.511       11.212      863.709
05/18/2013  07:59:00       68.120       47.327       13.928       44.202       34.909       28.574     1953.794     1218.625      816.491        0.553        0.199       82.947       14.393        0.030      338.186       10.666      863.699
05/18/2013  08:00:00       81.559       73.661       -5.672       25.083       17.673       19.357      629.170      312.349      374.681        0.671        0.066      109.899        9.329        0.007      337.804       10.026      863.697
05/18/2013  08:01:00       33.400       24.645       -3.015       17.387       14.748       20.302      302.321      217.506      412.184        0.133        0.047       41.509       12.230        0.087      337.943       10.259      863.702
05/18/2013  08:02:00        3.155       18.716       24.689       12.757       28.819       18.931      162.737      830.543      358.391        0.116        0.068       18.980       18.197        0.919      338.930       11.918      863.712
05/18/2013  08:03:00       37.538       42.412       12.381       50.027       30.100       26.866     2502.695      906.003      721.771        0.374        0.207       56.638       19.225        0.115      338.547       11.273      863.721
05/18/2013  08:04:00       92.912       71.528       24.944       23.517       21.320       27.253      553.044      454.537      742.730        0.806        0.088      117.256       13.924        0.014      338.012       10.373      863.712
05/18/2013  08:05:00       49.147       55.179       30.561       25.932       46.481       34.944      672.461     2160.438     1221.083        0.522        0.203       73.893       13.559        0.034      338.163       10.628      863.719
05/18/2013  08:06:00       51.039       34.640       16.386       12.906       17.117       19.933      166.553      293.006      397.340        0.247        0.043       61.684       13.457        0.048      338.107       10.533      863.724
05/18/2013  08:07:00        2.143       15.277        9.859       24.230       23.588       21.555      587.077      556.380      464.617        0.097        0.080       15.427       20.175        1.710      338.654       11.455      863.723
05/18/2013  08:08:00        2.953       35.686       28.297       18.294       20.426       20.027      334.676      417.219      401.089        0.162        0.058       35.808       12.409        0.120      338.913       11.888      863.721
05/18/2013  08:09:00       -6.807       20.394        8.834       18.620       29.929       20.841      346.721      895.728      434.339        0.111        0.084       21.500       20.934        0.948      339.188       12.350      863.722
05/18/2013  08:10:00       -8.748       19.676       44.152       15.152       27.592       19.873      229.583      761.317      394.921        0.190        0.069       21.533       15.192        0.498      339.473       12.831      863.714
05/18/2013  08:11:00        6.240       57.033       14.249       29.102       47.436       31.199      846.951     2250.201      973.384        0.378        0.204       57.374       35.393        0.381      339.097       12.197      863.712
05/18/2013  08:12:00       73.289       46.431       16.461       33.331       40.040       28.553     1110.957     1603.186      815.258        0.566        0.176       86.759       16.065        0.034      338.815       11.723      863.699
05/18/2013  08:13:00       84.052       54.779       18.764       49.858       34.198       32.989     2485.827     1169.507     1088.259        0.758        0.237      100.327       21.999        0.048      338.433       11.082      863.695
05/18/2013  08:14:00       85.034       72.051        5.932       45.803       25.455       27.169     2097.923      647.948      738.136        0.797        0.174      111.454       18.829        0.029      338.180       10.657      863.687
05/18/2013  08:15:00       20.485       28.615       13.787       28.574       25.510       25.302      816.483      650.740      640.184        0.177        0.105       35.192       14.383        0.167      338.881       11.835      863.682
05/18/2013  08:16:00        8.063      -23.364       -0.491       32.597       68.786       28.713     1062.538     4731.520      824.433        0.361        0.331       24.716       16.009        0.420      338.727       11.575      863.688
05/18/2013  08:17:00       46.556       30.694       62.621       52.861       53.966       47.462     2794.276     2912.290     2252.603        0.749        0.398       55.764       45.261        0.659      338.817       11.725      863.695
05/18/2013  08:18:00       66.842       87.610       83.261       39.918       36.382       27.184     1593.451     1323.661      738.971        1.137        0.183      110.197       11.386        0.011      338.411       11.043      863.718
05/18/2013  08:19:00       65.029       86.530        1.336       25.595       15.162       33.276      655.094      229.876     1107.299        0.685        0.100      108.242       23.052        0.045      338.192       10.677      863.740
05/18/2013  08:20:00       26.466       30.341       15.431       35.265       25.231       23.920     1243.615      636.611      572.164        0.216        0.123       40.262       12.956        0.104      338.798       11.695      863.740
05/18/2013  08:21:00       55.565       56.702        7.378       40.967       34.499       30.662     1678.274     1190.165      940.168        0.508        0.190       79.389       23.974        0.091      338.835       11.756      863.739
05/18/2013  08:22:00      111.764       83.843        4.242       43.855       40.453       36.433     1923.261     1636.429     1327.356        1.221        0.244      139.717       27.481        0.039      338.771       11.648      863.736
05/18/2013  08:23:00       53.645       59.468       18.184       39.817       41.863       35.572     1585.408     1752.506     1265.383        0.567        0.230       80.089       29.164        0.133      338.739       11.594      863.722
05/18/2013  08:24:00       59.568       69.248       17.871       42.916       46.745       36.791     1841.756     2185.065     1353.552        0.702        0.269       91.343       26.101        0.082      338.934       11.924      863.710
05/18/2013  08:25:00       35.764       58.286       68.401       56.370       47.667       38.453     3177.625     2272.173     1478.652        0.814        0.346       68.384       37.351        0.298      338.815       11.722      863.704
05/18/2013  08:26:00       29.505       18.254       62.742       46.915       46.265       33.712     2201.061     2140.443     1136.509        0.531        0.274       34.695       32.701        0.888      339.056       12.129      863.709
05/18/2013  08:27:00       52.611       34.950       38.133       45.143       62.753       43.844     2037.904     3937.980     1922.269        0.667        0.395       63.162       41.407        0.430      338.807       11.710      863.718
05/18/2013  08:28:00       10.967      -23.218       28.617       51.912       60.248       52.056     2694.856     3629.865     2709.781        0.525        0.452       25.678       35.926        1.958      339.067       12.148      863.709
05/18/2013  08:29:00       20.550       -3.469       51.074       38.194       77.410       54.633     1458.778     5992.282     2984.813        0.674        0.522       20.841       58.669        7.925      339.238       12.436      863.708
05/18/2013  08:30:00       18.742        3.229       61.017       33.472       44.058       30.662     1120.403     1941.106      940.180        0.404        0.200       19.018       20.971        1.216      339.397       12.701      863.686
05/18/2013  08:31:00       40.947      -59.469        1.379       56.833       35.775       27.083     3229.939     1279.882      733.501        0.523        0.262       72.203       17.899        0.061      338.657       11.458      863.681
05/18/2013  08:32:00       11.088       36.606       25.087       24.839       39.480       30.280      616.974     1558.686      916.857        0.259        0.155       38.249       16.043        0.176      339.229       12.420      863.659
05/18/2013  08:33:00       20.400       26.126       10.180       37.840       51.361       26.099     1431.885     2637.953      681.138        0.298        0.238       33.147        9.682        0.085      339.288       12.519      863.646
05/18/2013  08:34:00       12.760      -16.421       41.348       31.618       40.946       35.180      999.694     1676.581     1237.656        0.303        0.196       20.796       21.351        1.054      339.613       13.067      863.665
05/18/2013  08:35:00       40.110       -6.273       23.009       38.934       46.574       34.846     1515.876     2169.132     1214.230        0.354        0.245       40.597       26.431        0.424      339.273       12.494      863.678
05/18/2013  08:36:00       31.753        1.440       24.927       44.409       34.526       36.515     1972.137     1192.032     1333.376        0.306        0.225       31.786       25.156        0.626      339.275       12.498      863.697
05/18/2013  08:37:00       33.377       12.849        6.154       39.266       34.513       31.573     1541.811     1191.151      996.881        0.252        0.186       35.765       16.932        0.224      339.034       12.091      863.701
05/18/2013  08:38:00       54.224       71.259       24.491       39.910       25.060       30.359     1592.799      627.984      921.685        0.588        0.157       89.544       14.410        0.026      338.853       11.786      863.695
05/18/2013  08:39:00        9.411      -12.877       31.914       25.964       46.782       31.060      674.155     2188.575      964.699        0.255        0.191       15.949       27.825        3.044      339.139       12.267      863.692
05/18/2013  08:40:00       19.972      -33.834       19.399       35.928       59.531       29.030     1290.788     3543.943      842.766        0.380        0.284       39.289       16.960        0.186      339.239       12.436      863.688
05/18/2013  08:41:00       23.920       17.768        7.007       29.744       45.987       30.398      884.733     2114.840      924.016        0.243        0.196       29.797       29.760        0.998      339.262       12.477      863.688
05/18/2013  08:42:00       22.548       42.747       14.787       28.932       35.822       24.328      837.052     1283.248      591.836        0.263        0.136       48.330       17.298        0.128      339.652       13.132      863.685
05/18/2013  08:43:00       37.738        1.411       11.201       55.126       41.507       27.119     3038.925     1722.862      735.456        0.352        0.275       37.764       21.687        0.330      339.257       12.468      863.699
05/18/2013  08:44:00       96.879       48.307       12.467       35.335       42.004       37.265     1248.546     1764.327     1388.659        0.814        0.220      108.255       27.376        0.064      338.756       11.624      863.696
05/18/2013  08:45:00       73.249       64.200       20.676       61.542       43.205       37.851     3787.420     1866.640     1432.729        0.850        0.354       97.401       39.646        0.166      338.923       11.906      863.686
05/18/2013  08:46:00       27.229       63.464        7.195       53.558       33.797       30.911     2868.505     1142.203      955.504        0.489        0.248       69.058       28.130        0.166      339.184       12.346      863.675
05/18/2013  08:47:00       11.535      -48.595       26.065       33.787       72.483       30.178     1141.559     5253.749      910.721        0.524        0.365       49.946       25.164        0.254      339.677       13.175      863.671
05/18/2013  08:48:00       28.640      -17.904       19.570       35.771       61.101       38.614     1279.546     3733.359     1491.038        0.401        0.325       33.776       27.081        0.643      339.680       13.181      863.665
05/18/2013  08:49:00       42.487       36.169       47.586       54.216       67.061       42.496     2939.326     4497.113     1805.897        0.731        0.462       55.797       31.134        0.311      339.324       12.579      863.651
05/18/2013  08:50:00       47.405       65.100       77.862       67.400       42.051       40.982     4542.746     1768.287     1679.502        1.027        0.400       80.531       36.041        0.200      339.445       12.784      863.648
05/18/2013  08:51:00       19.828      -31.906       43.912       27.825       59.395       31.830      774.210     3527.790     1013.122        0.433        0.266       37.565       18.188        0.234      339.632       13.099      863.658
05/18/2013  08:52:00       -1.302        1.269       22.668       40.048       28.583       33.727     1603.842      816.972     1137.542        0.204        0.178        1.818       20.429      126.267      339.928       13.600      863.673
05/18/2013  08:53:00       22.241       -3.224       36.294       51.050       64.106       47.083     2606.151     4109.630     2216.803        0.538        0.447       22.474       48.355        4.629      339.882       13.520      863.687
05/18/2013  08:54:00       64.177     -105.975      -22.965       71.716       74.320       53.812     5143.190     5523.439     2895.754        1.472        0.678      123.893       47.110        0.145      339.346       12.614      863.682
05/18/2013  08:55:00       84.144       32.029       63.020       73.197       47.066       43.245     5357.865     2215.166     1870.107        1.076        0.472       90.034       37.490        0.173      339.366       12.651      863.699
05/18/2013  08:56:00       25.873       -2.225       39.457       39.597       44.676       36.171     1567.943     1995.952     1308.322        0.355        0.244       25.968       29.441        1.285      339.684       13.188      863.693
05/18/2013  08:57:00       21.315        4.162       38.489       42.069       48.364       40.737     1769.772     2339.082     1659.469        0.386        0.288       21.718       39.614        3.327      340.043       13.793      863.703
05/18/2013  08:58:00       18.223       40.881       37.126       32.976       35.135       29.828     1087.412     1234.489      889.729        0.330        0.161       44.759       18.264        0.167      339.784       13.356      863.706
05/18/2013  08:59:00       58.924      -30.756       -7.104       52.674       73.918       41.564     2774.599     5463.911     1727.544        0.722        0.498       66.468       15.009        0.051      339.382       12.677      863.712
05/18/2013  09:00:00       52.469       -1.448       50.622       59.971       77.944       53.144     3596.497     6075.331     2824.240        0.890        0.625       52.489       48.575        0.856      339.642       13.116      863.703
05/18/2013  09:01:00       53.894      -31.286       41.694       67.143       79.795       46.926     4508.176     6367.279     2202.005        0.935        0.654       62.317       51.814        0.691      339.625       13.087      863.698
05/18/2013  09:02:00       80.211      -42.215       34.244       86.974       89.486       47.306     7564.548     8007.794     2237.894        1.360        0.891       90.642       55.312        0.372      339.540       12.943      863.695
05/18/2013  09:03:00       29.400      -12.654       56.697       60.873       74.006       40.644     3705.564     5476.911     1651.947        0.753        0.542       32.008       42.897        1.796      339.690       13.196      863.687
05/18/2013  09:04:00       56.461       54.094       18.880       63.429       35.836       35.458     4023.280     1284.248     1257.272        0.652        0.328       78.192       37.911        0.235      339.880       13.517      863.684
05/18/2013  09:05:00       83.000       73.948       49.573       45.990       45.668       40.492     2115.100     2085.574     1639.570        1.033        0.292      111.163       19.478        0.031      339.988       13.699      863.678
05/18/2013  09:06:00       69.980      -78.292       11.448       70.326       80.947       61.264     4945.789     6552.416     3753.286        1.320        0.763      105.009       63.368        0.364      339.564       12.983      863.678
05/18/2013  09:07:00       40.837      -45.429       24.508       61.964       53.814       46.356     3839.589     2895.948     2148.924        0.661        0.444       61.086       42.637        0.487      339.744       13.287      863.682
05/18/2013  09:08:00       29.512     -127.095        6.224       28.202       63.179       29.424      795.372     3991.623      865.785        1.136        0.283      130.476       13.392        0.011      339.185       12.346      863.697
05/18/2013  09:09:00       10.633      -39.563       31.115       23.647       64.528       34.390      559.194     4163.847     1182.687        0.427        0.295       40.967       40.820        0.993      339.662       13.150      863.693
05/18/2013  09:10:00       68.616       97.353       43.902       60.027       43.508       41.863     3603.253     1892.914     1752.476        1.168        0.362      119.104       38.545        0.105      339.459       12.807      863.684
05/18/2013  09:11:00      -12.359       49.893       -0.942       51.408       42.736       26.127     2642.825     1826.339      682.613        0.390        0.258       51.401       19.289        0.141      339.369       12.656      863.692
05/18/2013  09:12:00      -25.769       41.459       14.617       27.569       31.260       36.961      760.062      977.160     1366.103        0.285        0.155       48.815       28.333        0.337      340.149       13.971      863.702
05/18/2013  09:13:00      -12.996       -2.662       15.004       16.787       29.716       27.527      281.789      883.029      757.762        0.116        0.096       13.265       24.375        3.376      340.246       14.137      863.697
05/18/2013  09:14:00        2.692       33.115       64.292       28.050       44.769       26.133      786.793     2004.267      682.911        0.435        0.174       33.224       28.066        0.714      340.449       14.477      863.705
05/18/2013  09:15:00       23.496       21.412       52.453       56.400       72.895       38.779     3180.936     5313.638     1503.796        0.688        0.500       31.789       30.826        0.940      340.240       14.125      863.697
05/18/2013  09:16:00      117.256     -135.335       -4.215       63.550       67.512       54.813     4038.612     4557.805     3004.475        2.184        0.580      179.066       45.030        0.063      339.385       12.680      863.702
05/18/2013  09:17:00        1.887       -6.012      -17.176       39.120       69.866       33.681     1530.375     4881.277     1134.440        0.394        0.377        6.301       33.695       28.600      339.437       12.769      863.682
05/18/2013  09:18:00       37.203       42.220       21.033       45.692       34.620       29.031     2087.796     1198.546      842.778        0.387        0.206       56.272       29.566        0.276      339.951       13.636      863.668
05/18/2013  09:19:00       -1.283       -8.524       34.135       24.271       30.046       29.873      589.099      902.777      892.420        0.181        0.119        8.620       16.656        3.734      340.270       14.176      863.648
05/18/2013  09:20:00       30.986      -40.248       22.658       58.308       84.173       47.853     3399.782     7085.032     2289.914        0.793        0.639       50.793       48.533        0.913      340.316       14.254      863.648
05/18/2013  09:21:00       18.712      -20.308       35.918       30.254       48.335       35.303      915.285     2336.317     1246.308        0.327        0.225       27.614       31.964        1.340      340.224       14.098      863.646
05/18/2013  09:22:00       88.475       48.040       19.060       73.672       68.114       38.193     5427.520     4639.505     1458.726        1.101        0.576      100.676       18.711        0.035      339.834       13.439      863.650
05/18/2013  09:23:00       44.918      -11.871       37.803       52.870       75.220       43.379     2795.211     5657.990     1881.711        0.696        0.517       46.460       34.835        0.562      339.824       13.423      863.641
05/18/2013  09:24:00       19.603       54.282       14.538       37.283       69.531       36.679     1389.998     4834.608     1345.379        0.555        0.378       57.713       36.736        0.405      340.055       13.813      863.640
05/18/2013  09:25:00       17.251       87.772        6.246       41.242       55.394       35.806     1700.894     3068.530     1282.104        0.704        0.303       89.451       37.998        0.180      340.390       14.379      863.640
05/18/2013  09:26:00       13.377       84.663       11.890       46.535       76.953       36.059     2165.543     5921.838     1300.242        0.844        0.469       85.713       37.437        0.191      340.131       13.941      863.632
05/18/2013  09:27:00       11.209      149.599       -6.411       38.875       94.926       41.563     1511.238     9010.866     1727.499        1.740        0.612      150.019       44.614        0.088      340.022       13.755      863.621
05/18/2013  09:28:00       66.995       56.406       19.137       63.182       43.229       47.419     3991.930     1868.773     2248.581        0.807        0.405       87.579       30.149        0.119      340.397       14.389      863.612
05/18/2013  09:29:00       95.303       84.666       54.277       68.665       50.987       42.737     4714.911     2599.648     1826.488        1.417        0.457      127.480       32.734        0.066      340.129       13.936      863.599
05/18/2013  09:30:00      174.935      118.252       22.006       38.616       42.734       34.893     1491.204     1826.182     1217.537        2.480        0.227      211.154       14.822        0.005      339.521       12.910      863.590
05/18/2013  09:31:00       84.162       50.372       16.006       49.729       45.867       32.802     2472.939     2103.785     1075.971        0.776        0.283       98.085       17.477        0.032      339.727       13.259      863.598
05/18/2013  09:32:00       40.669      -18.814       20.497       36.597       74.690       34.737     1339.310     5578.604     1206.631        0.527        0.406       44.810       31.413        0.491      340.043       13.792      863.583
05/18/2013  09:33:00       73.398       58.823       28.567       69.557       38.568       49.256     4838.133     1487.515     2426.120        0.921        0.438       94.061       33.118        0.124      340.160       13.988      863.573
05/18/2013  09:34:00       50.451       37.165       34.475       56.248       40.091       47.817     3163.881     1607.301     2286.505        0.608        0.353       62.663       29.174        0.217      340.650       14.817      863.552
05/18/2013  09:35:00       33.943       56.316       73.821       76.611       55.896       41.926     5869.181     3124.334     1757.777        1.026        0.538       65.754       29.321        0.199      340.842       15.141      863.544
05/18/2013  09:36:00       12.150      -37.636       24.487       47.024       85.429       36.325     2211.273     7298.139     1319.498        0.649        0.541       39.548       44.491        1.266      340.177       14.018      863.541
05/18/2013  09:37:00       30.382      -40.290       23.069       53.874       70.563       51.394     2902.454     4979.086     2641.375        0.680        0.526       50.461       48.776        0.934      340.484       14.537      863.531
05/18/2013  09:38:00       98.402       75.917       79.470       86.696       81.541       55.777     7516.158     6648.918     3111.110        1.952        0.864      124.284       40.336        0.105      340.060       13.819      863.529
05/18/2013  09:39:00       69.745       82.246       86.257       58.418       78.681       37.051     3412.680     6190.647     1372.803        1.502        0.549      107.837       33.309        0.095      339.913       13.573      863.541
05/18/2013  09:40:00       71.627       86.551       80.129       75.184       74.305       63.193     5652.581     5521.261     3993.367        1.710        0.758      112.346       45.824        0.166      339.830       13.430      863.537
05/18/2013  09:41:00        6.603       18.482       68.354       38.649       55.046       36.860     1493.764     3030.075     1358.626        0.547        0.294       19.626       34.024        3.005      340.329       14.276      863.517
05/18/2013  09:42:00       83.992      106.720      100.236      100.030       60.775       85.417    10005.991     3693.638     7296.014        2.474        1.050      135.808       81.516        0.360      339.897       13.544      863.513
05/18/2013  09:43:00       93.073       88.430       35.352       59.833       48.943       38.903     3579.965     2395.401     1513.453        1.261        0.374      128.384       24.908        0.038      339.833       13.437      863.505
05/18/2013  09:44:00       15.118      -21.823       61.418       54.094       74.860       51.158     2926.149     5604.034     2617.190        0.781        0.557       26.548       33.319        1.575      340.525       14.606      863.479
05/18/2013  09:45:00      111.660      -88.925       10.907       70.168      106.037       62.547     4923.537    11243.862     3912.079        2.028        1.004      142.743       74.950        0.276      340.271       14.173      863.482
05/18/2013  09:46:00       92.829     -141.805      -10.950       38.811       44.341       35.355     1506.273     1966.103     1249.997        1.678        0.236      169.487       22.631        0.018      340.094       13.878      863.490
05/18/2013  09:47:00       52.129     -113.632      -16.470       19.625       28.610       20.458      385.145      818.507      418.547        0.876        0.081      125.019       14.092        0.013      339.660       13.146      863.498
05/18/2013  09:48:00       -2.700        8.238       34.981       45.791       52.542       33.329     2096.830     2760.625     1110.813        0.363        0.298        8.669       26.299        9.203      340.548       14.644      863.485
05/18/2013  09:49:00       44.291       19.243       27.173       43.950       24.741       31.854     1931.641      612.105     1014.684        0.331        0.178       48.290       21.397        0.196      340.806       15.080      863.485
05/18/2013  09:50:00       68.734      101.464       33.763       68.166       44.400       44.899     4646.541     1971.390     2015.888        1.239        0.432      122.553       32.944        0.072      340.286       14.201      863.480
05/18/2013  09:51:00      -45.241        6.082      -12.930       33.129       36.041       20.238     1097.563     1298.918      409.557        0.253        0.140       45.648       20.290        0.198      339.862       13.487      863.470
05/18/2013  09:52:00      136.280       65.632       36.480       82.182       51.556       40.911     6753.835     2657.992     1673.731        1.765        0.554      151.261       28.095        0.034      340.531       14.615      863.448
05/18/2013  09:53:00      111.166       76.485       62.576       70.226       74.374       46.059     4931.644     5531.511     2121.424        1.735        0.629      134.937       31.898        0.056      340.274       14.181      863.415
05/18/2013  09:54:00      127.444      119.454       80.633       81.089       54.185       59.191     6575.392     2936.057     3503.596        2.501        0.651      174.675       34.194        0.038      340.253       14.145      863.392
05/18/2013  09:55:00       51.232      -70.983        9.229       89.216      124.712       56.458     7959.416    15552.967     3187.493        1.722        1.335       87.541       59.046        0.455      340.360       14.325      863.385
05/18/2013  09:56:00       37.611      -28.141       28.524       59.949      104.440       53.960     3593.902    10907.721     2911.712        1.021        0.871       46.973       47.219        1.010      340.400       14.394      863.393
05/18/2013  09:57:00       26.336      -30.357        1.400       40.456       57.823       36.566     1636.675     3343.486     1337.038        0.397        0.316       40.189       30.084        0.560      340.062       13.826      863.394
05/18/2013  09:58:00       17.027      -46.625       12.363       39.181       60.778       36.470     1535.187     3693.928     1330.067        0.459        0.328       49.637       20.350        0.168      340.646       14.811      863.386
05/18/2013  09:59:00       68.865       -3.860        2.881       60.407      101.056       42.167     3649.044    10212.310     1778.057        1.020        0.782       68.973       25.677        0.139      340.077       13.848      863.391
05/18/2013  10:00:00       14.111      -27.953       26.840       39.378       85.796       45.353     1550.643     7360.878     2056.938        0.633        0.548       31.313       38.307        1.497      340.802       15.074      863.366
05/18/2013  10:01:00       47.276       66.589       81.907       52.470       43.644       42.442     2753.076     1904.761     1801.322        0.992        0.323       81.665       20.930        0.066      340.871       15.190      863.357
05/18/2013  10:02:00       39.094       67.307       24.216       37.674       39.395       31.530     1419.348     1551.938      994.124        0.530        0.198       77.837       15.720        0.041      340.504       14.571      863.339
05/18/2013  10:03:00       81.703       84.675       22.621       57.222       46.011       34.680     3274.414     2117.054     1202.716        1.047        0.330      117.665       15.169        0.017      340.471       14.514      863.334
05/18/2013  10:04:00      154.548       85.074       38.188       84.214       61.122       57.320     7092.024     3735.887     3285.600        2.334        0.706      176.416       37.816        0.046      340.473       14.516      863.320
05/18/2013  10:05:00      148.418      107.776       30.976       58.962       41.519       48.089     3476.550     1723.821     2312.517        2.106        0.376      183.421       24.681        0.018      340.470       14.511      863.310
05/18/2013  10:06:00       59.223       54.477       43.075       70.340       56.129       51.984     4947.723     3150.470     2702.314        0.956        0.540       80.468       42.227        0.275      340.846       15.149      863.287
05/18/2013  10:07:00      207.186      136.629       26.297       72.712       57.338       56.934     5287.083     3287.659     3241.510        3.705        0.591      248.180       35.989        0.021      340.167       13.996      863.273
05/18/2013  10:08:00      128.301       69.434       22.116       75.830       66.235       42.733     5750.213     4387.013     1826.075        1.686        0.598      145.884       36.653        0.063      340.750       14.986      863.249
05/18/2013  10:09:00       88.982       50.921       39.219       55.054       54.130       45.051     3030.997     2930.097     2029.569        1.002        0.400      102.522       27.060        0.070      341.093       15.567      863.231
05/18/2013  10:10:00       92.172       60.458       15.045      111.835       68.388       51.554    12507.094     4676.859     2657.858        1.611        0.992      110.230       46.653        0.179      340.849       15.153      863.226
05/18/2013  10:11:00       58.375       94.070       98.221       77.348       81.249       76.379     5982.653     6601.431     5833.732        2.016        0.921      110.710       66.029        0.356      340.931       15.291      863.216
05/18/2013  10:12:00       14.890       90.583      109.817       67.476      111.554       83.125     4552.968    12444.303     6909.741        2.219        1.195       91.799       80.926        0.777      340.737       14.961      863.216
05/18/2013  10:13:00       75.354      -52.964       36.639       90.064      124.822       67.686     8111.499    15580.518     4581.439        1.904        1.414       92.105       84.407        0.840      341.128       15.624      863.214
05/18/2013  10:14:00       20.741       65.670       73.904       50.706       80.048       64.992     2571.079     6407.625     4223.970        1.170        0.660       68.868       49.830        0.524      341.125       15.620      863.206
05/18/2013  10:15:00       77.165      -12.163       40.836       92.960       55.589       58.700     8641.632     3090.105     3445.638        1.147        0.759       78.118       50.134        0.412      340.885       15.213      863.208
05/18/2013  10:16:00       80.998     -133.564       -8.693       56.460       88.553       54.514     3187.691     7841.559     2971.801        1.924        0.700      156.205       57.485        0.135      340.421       14.428      863.236
05/18/2013  10:17:00     -111.687      -75.842      -10.852       32.088       50.969       29.396     1029.655     2597.809      864.148        1.142        0.225      135.004       11.755        0.008      340.174       14.013      863.234
05/18/2013  10:18:00        3.885     -120.689        1.185       82.905       84.591       37.496     6873.194     7155.649     1405.933        1.501        0.772      120.752       20.418        0.029      340.415       14.419      863.231
05/18/2013  10:19:00       61.860      -95.657        0.217       48.586       71.845       45.199     2360.628     5161.673     2042.943        1.127        0.478      113.916       44.372        0.152      340.640       14.800      863.232
05/18/2013  10:20:00       47.029      -69.343        0.664       56.155       53.911       46.361     3153.418     2906.431     2149.337        0.761        0.410       83.787       44.489        0.282      340.861       15.174      863.231
05/18/2013  10:21:00       15.837      -37.893       51.318       42.682       58.161       39.973     1821.793     3382.699     1597.841        0.556        0.340       41.069       30.258        0.543      341.339       15.984      863.215
05/18/2013  10:22:00       34.730       14.270       73.031       43.057       61.310       37.000     1853.873     3758.886     1368.986        0.686        0.349       37.547       29.380        0.612      340.947       15.321      863.217
05/18/2013  10:23:00       16.952       -5.456       -3.064       43.983       46.810       38.829     1934.491     2191.196     1507.714        0.298        0.282       17.808       26.250        2.173      340.615       14.757      863.218
05/18/2013  10:24:00       24.073       64.401       55.843       56.824       44.953       48.441     3228.917     2020.787     2346.554        0.772        0.380       68.753       35.963        0.274      341.026       15.451      863.207
05/18/2013  10:25:00      124.093       86.811       34.970       51.241       32.105       41.923     2625.631     1030.761     1757.509        1.478        0.271      151.444       13.942        0.008      340.887       15.219      863.197
05/18/2013  10:26:00      149.605       91.017       18.577       68.232       51.130       45.183     4655.578     2614.291     2041.460        2.016        0.466      175.116       25.924        0.022      340.671       14.851      863.194
05/18/2013  10:27:00       94.650       83.522       18.928       74.526       82.881       56.553     5554.110     6869.290     3198.209        1.595        0.781      126.232       38.316        0.092      340.848       15.151      863.181
05/18/2013  10:28:00      138.597      173.773        3.330       71.586       72.744       60.148     5124.602     5291.638     3617.768        3.172        0.702      222.276       50.073        0.051      340.600       14.729      863.172
05/18/2013  10:29:00      103.167       88.708       21.410       56.305       41.462       35.908     3170.230     1719.056     1289.374        1.257        0.309      136.060       16.218        0.014      340.689       14.883      863.166
05/18/2013  10:30:00       44.815      127.960        0.976       76.847       52.297       47.190     5905.399     2734.986     2226.916        1.462        0.543      135.581       36.948        0.074      341.311       15.936      863.137
05/18/2013  10:31:00       35.529       58.094       22.796       50.211       46.780       40.225     2521.172     2188.361     1618.054        0.574        0.316       68.098       25.499        0.140      340.827       15.116      863.152
05/18/2013  10:32:00        0.023       -9.844       40.218       29.563       58.527       30.462      873.966     3425.382      927.938        0.347        0.261        9.844       34.316       12.153      341.153       15.670      863.150
05/18/2013  10:33:00       20.127        9.796       28.694       69.279       47.525       32.606     4799.630     2258.669     1063.134        0.472        0.406       22.384       32.804        2.148      341.019       15.443      863.140
05/18/2013  10:34:00      143.924       82.032       14.098       45.428       43.846       38.861     2063.682     1922.491     1510.173        1.657        0.275      165.661       11.548        0.005      340.760       15.003      863.132
05/18/2013  10:35:00       89.082       48.417        5.265       60.190       52.923       43.080     3622.802     2800.890     1855.854        0.929        0.414      101.390       23.989        0.056      341.337       15.979      863.128
05/18/2013  10:36:00       32.999       28.826       36.108       49.426       77.160       45.459     2442.970     5953.672     2066.525        0.684        0.523       43.817       43.215        0.973      341.448       16.166      863.118
05/18/2013  10:37:00       48.337      -65.302       11.694       57.003       52.125       54.065     3249.384     2717.046     2922.975        0.781        0.444       81.245       36.141        0.198      341.280       15.883      863.116
05/18/2013  10:38:00       19.863       23.434       86.002       51.477       66.720       42.912     2649.832     4451.622     1841.447        0.864        0.447       30.720       44.286        2.078      341.731       16.649      863.102
05/18/2013  10:39:00       55.090     -105.123      -12.589       35.215       68.639       38.022     1240.078     4711.319     1445.668        1.082        0.370      118.683       34.243        0.083      341.008       15.421      863.097
05/18/2013  10:40:00       28.031      -22.637       51.053       34.847       68.776       36.281     1214.345     4730.085     1316.316        0.558        0.363       36.030       38.285        1.129      341.904       16.941      863.074
05/18/2013  10:41:00       61.890      -63.973       33.958       62.447      125.396       46.962     3899.635    15724.123     2205.403        1.545        1.091       89.011       68.438        0.591      341.530       16.306      863.065
05/18/2013  10:42:00       55.349      -17.902       36.683       71.906      115.636       61.702     5170.460    13371.645     3807.120        1.353        1.117       58.172       73.168        1.582      341.169       15.694      863.066
05/18/2013  10:43:00      113.228       64.385       65.080      121.619       73.886       59.363    14791.140     5459.147     3523.937        2.248        1.189      130.253       63.007        0.234      341.287       15.893      863.054
05/18/2013  10:44:00      121.397      103.064       77.462       94.308       67.418       61.076     8894.064     4545.120     3730.230        2.426        0.858      159.246       49.977        0.098      341.235       15.805      863.061
05/18/2013  10:45:00       60.018      -21.972       40.462       94.474       77.547       65.447     8925.359     6013.575     4283.306        1.247        0.961       63.914       74.585        1.362      341.323       15.956      863.064
05/18/2013  10:46:00       75.195       10.708       36.261       64.419       85.132       51.774     4149.767     7247.542     2680.551        1.058        0.704       75.954       52.619        0.480      341.379       16.050      863.076
05/18/2013  10:47:00      134.952      -47.009       47.431      106.759       87.163       66.976    11397.476     7597.356     4485.742        2.307        1.174      142.905       63.705        0.199      341.105       15.586      863.063
05/18/2013  10:48:00      181.516     -103.542       21.198      103.024       90.221       47.004    10613.963     8139.870     2209.347        3.254        1.048      208.971       54.244        0.067      340.929       15.287      863.077
05/18/2013  10:49:00      118.656      -60.847       48.666      114.294       92.520       72.563    13063.108     8559.889     5265.424        2.351        1.344      133.348       78.908        0.350      341.651       16.509      863.042
05/18/2013  10:50:00       69.229       36.759       69.689       76.017      107.340       81.505     5778.655    11521.907     6643.098        1.747        1.197       78.382       60.305        0.592      341.523       16.292      863.055
05/18/2013  10:51:00       11.230      -19.657       40.076       59.812       68.846       41.910     3577.422     4739.746     1756.430        0.609        0.504       22.638       29.797        1.732      341.968       17.051      863.051
05/18/2013  10:52:00       77.288       10.912       62.900      103.239      160.654      104.328    10658.201    25809.756    10884.352        2.869        2.368       78.054      114.244        2.142      341.777       16.723      863.050
05/18/2013  10:53:00       92.595     -137.179       16.202       68.196      111.216       55.772     4650.627    12368.893     3110.467        2.389        1.006      165.505       57.913        0.122      341.491       16.239      863.048
05/18/2013  10:54:00       73.016      -93.844        9.686       70.836      121.807       52.207     5017.787    14836.832     2725.601        1.840        1.129      118.904       52.486        0.195      341.743       16.666      863.048
05/18/2013  10:55:00      107.646       42.797       13.732       54.722       80.028       59.206     2994.459     6404.502     3505.291        1.325        0.645      115.842       32.422        0.078      341.448       16.167      863.050
05/18/2013  10:56:00       59.926      -45.874       32.233       70.840      116.565       55.646     5018.350    13587.350     3096.492        1.421        1.085       75.469       51.034        0.457      341.633       16.482      863.044
05/18/2013  10:57:00       93.052      117.963       82.873       80.625       71.857       60.710     6500.386     5163.359     3685.740        2.239        0.767      150.246       56.822        0.143      341.169       15.694      863.042
05/18/2013  10:58:00       29.459      -40.021       30.054       41.673       68.984       46.657     1736.643     4758.825     2176.860        0.602        0.434       49.694       37.087        0.557      341.599       16.424      863.053
05/18/2013  10:59:00      -11.222      -80.070        3.393       40.255       78.229       38.725     1620.446     6119.741     1499.619        0.789        0.462       80.853       27.771        0.118      341.216       15.775      863.047
05/18/2013  11:00:00       35.454       21.502       65.842       56.593       60.990       44.280     3202.781     3719.744     1960.710        0.747        0.444       41.465       42.713        1.061      341.788       16.746      863.035
05/18/2013  11:01:00       27.592      -68.853       18.815       77.035       55.171       50.562     5934.350     3043.828     2556.485        0.869        0.577       74.175       33.404        0.203      341.501       16.257      863.019
05/18/2013  11:02:00      -93.243      -78.042        2.699      110.577       65.596       48.105    12227.323     4302.811     2314.057        1.681        0.942      121.592       48.530        0.159      341.474       16.211      863.010
05/18/2013  11:03:00      -97.647      -79.817       12.856      103.484       67.809       47.071    10709.024     4598.004     2215.702        1.679        0.876      126.118       40.523        0.103      341.323       15.955      863.010
05/18/2013  11:04:00     -164.565     -144.141       -0.568       84.418       70.826       42.393     7126.427     5016.369     1797.170        3.090        0.697      218.766       52.523        0.058      340.921       15.272      863.018
05/18/2013  11:05:00      -81.875     -137.056        8.582       69.455       92.966       39.331     4824.054     8642.735     1546.941        2.028        0.751      159.650       38.261        0.057      341.126       15.622      863.016
05/18/2013  11:06:00      -89.871     -162.491       -4.010       67.142       68.390       38.678     4508.052     4677.197     1496.018        2.259        0.534      185.688       20.378        0.012      340.908       15.250      863.026
05/18/2013  11:07:00     -117.813      -91.514       23.216      116.255      116.520       65.621    13515.112    13576.851     4306.105        2.709        1.570      149.180       74.355        0.248      341.363       16.022      862.976
05/18/2013  11:08:00     -220.747     -145.848        0.442      122.371       83.517       52.001    14974.705     6975.047     2704.131        4.732        1.233      264.577       59.735        0.051      341.053       15.496      862.969
05/18/2013  11:09:00      -58.013      -98.634        7.495       69.282       64.000       39.010     4799.931     4096.018     1521.814        1.178        0.521      114.429       31.582        0.076      341.243       15.821      862.996
05/18/2013  11:10:00      -94.300     -140.890      -21.564       62.107       78.483       41.983     3857.225     6159.536     1762.548        2.049        0.589      169.536       47.039        0.077      341.237       15.810      862.983
05/18/2013  11:11:00     -185.053     -178.223      -23.033       88.653       70.421       45.199     7859.288     4959.159     2042.934        4.070        0.743      256.920       36.928        0.021      340.866       15.180      862.982
05/18/2013  11:12:00       46.876     -165.978       -2.146       92.791      101.076       47.984     8610.159    10216.306     2302.492        2.544        1.056      172.470       47.718        0.077      341.309       15.929      863.018
05/18/2013  11:13:00       43.203      -92.086       28.220       99.968       89.777       57.064     9993.537     8059.894     3256.303        1.622        1.065      101.716       60.126        0.349      341.500       16.254      862.950
05/18/2013  11:14:00        5.997      -51.536       25.354       68.775       68.536       43.774     4730.045     4697.246     1916.196        0.734        0.567       51.884       39.024        0.566      341.806       16.775      862.941
05/18/2013  11:15:00       56.669     -147.082       -3.340       66.878       74.998       54.591     4472.672     5624.647     2980.208        1.896        0.654      157.621       37.615        0.057      341.558       16.351      862.921
05/18/2013  11:16:00       90.081      -38.352       31.837       85.901      106.506       68.712     7379.033    11343.630     4721.406        1.702        1.172       97.905       68.243        0.486      341.861       16.868      862.896
05/18/2013  11:17:00       53.124       11.934       61.436       71.484       62.521       50.184     5109.899     3908.869     2518.431        0.914        0.577       54.448       38.423        0.498      342.014       17.129      862.895
05/18/2013  11:18:00       37.033       42.534       82.923       50.226       72.335       42.280     2522.665     5232.328     1787.638        0.980        0.477       56.396       36.122        0.410      341.694       16.585      862.928
05/18/2013  11:19:00        3.420       12.915       49.949       31.142       46.245       30.877      969.836     2138.561      953.370        0.337        0.203       13.360       28.560        4.570      342.046       17.184      862.925
05/18/2013  11:20:00       37.042     -110.408       -5.925       58.473       55.094       49.575     3419.046     3035.387     2457.706        1.125        0.446      116.457       37.255        0.102      341.588       16.405      862.902
05/18/2013  11:21:00       18.924       -4.428        2.682       32.224       39.453       34.239     1038.391     1556.528     1172.292        0.208        0.188       19.435       28.281        2.117      341.618       16.456      862.907
05/18/2013  11:22:00      -73.084       -4.793       -0.267       35.193       24.646       24.398     1238.568      607.448      595.252        0.390        0.122       73.241       19.584        0.071      341.634       16.483      862.888
05/18/2013  11:23:00      -16.105      -23.120       10.718       22.211       20.934       24.732      493.327      438.241      611.667        0.123        0.077       28.176       16.373        0.338      342.240       17.514      862.876
05/18/2013  11:24:00      -33.275     -110.268       -9.928      110.683       75.102       46.638    12250.684     5640.285     2175.079        1.671        1.003      115.179       50.965        0.196      341.740       16.661      862.878
05/18/2013  11:25:00       94.952      -73.358       17.200       58.469       86.983       62.866     3418.656     7566.053     3952.125        1.481        0.747      119.989       60.042        0.250      341.779       16.729      862.882
05/18/2013  11:26:00      -43.093       -3.113       55.035       41.167       78.795       44.956     1694.699     6208.699     2021.037        0.741        0.496       43.206       38.033        0.775      342.136       17.334      862.865
05/18/2013  11:27:00       36.667      -28.813       57.019       50.084       77.915       57.491     2508.403     6070.707     3305.183        0.865        0.594       46.634       55.383        1.410      342.116       17.300      862.874
05/18/2013  11:28:00        5.961       26.588       77.155       40.520       72.733       38.216     1641.849     5290.021     1460.480        0.754        0.420       27.248       36.886        1.833      342.260       17.546      862.876
05/18/2013  11:29:00       47.431       -8.335       29.046       54.367       61.947       36.826     2955.800     3837.474     1356.137        0.565        0.407       48.158       35.998        0.559      341.900       16.936      862.897
05/18/2013  11:30:00        0.447      -24.027       12.366       27.792       59.197       52.465      772.396     3504.292     2752.625        0.388        0.351       24.031       47.701        3.940      341.834       16.822      862.889
05/18/2013  11:31:00       40.731       -0.594       36.972       79.077       77.530       47.106     6253.179     6010.961     2218.979        0.875        0.724       40.735       54.745        1.806      341.871       16.885      862.864
05/18/2013  11:32:00      122.201       92.794       40.130       63.549       53.721       48.662     4038.529     2885.948     2368.018        1.722        0.465      153.439       28.988        0.036      341.638       16.488      862.850
05/18/2013  11:33:00       39.941       21.169       50.799       69.709       72.123       52.779     4859.288     5201.745     2785.571        0.873        0.642       45.204       38.720        0.734      342.141       17.344      862.824
05/18/2013  11:34:00      191.384      138.998        3.500       73.152       59.770       63.996     5351.281     3572.442     4095.454        3.449        0.651      236.534       26.427        0.012      341.722       16.629      862.831
05/18/2013  11:35:00      149.403      142.734       15.133       94.118       64.748       67.113     8858.148     4192.311     4504.209        3.024        0.878      206.626       47.021        0.052      341.839       16.829      862.812
05/18/2013  11:36:00      142.699      129.924       15.603      106.714       76.545       61.224    11387.808     5859.161     3748.322        2.924        1.050      192.985       45.573        0.056      341.960       17.032      862.804
05/18/2013  11:37:00       35.536      214.664      -21.494       52.325       76.464       48.665     2737.891     5846.695     2368.263        2.938        0.548      217.585       45.862        0.044      341.754       16.684      862.790
05/18/2013  11:38:00       -1.870      234.356      -25.462       47.532       74.932       46.676     2259.320     5614.775     2178.670        3.281        0.503      234.363       43.463        0.034      341.852       16.850      862.765
05/18/2013  11:39:00       15.348       94.416        2.281       35.778       72.504       40.884     1280.057     5256.835     1671.474        0.868        0.410       95.655       37.763        0.156      342.363       17.721      862.766
05/18/2013  11:40:00      -33.960      172.506       -7.473       31.246       65.468       35.038      976.332     4286.044     1227.689        1.873        0.325      175.817       30.992        0.031      342.219       17.476      862.768
05/18/2013  11:41:00       -4.249       54.865       46.030       30.022       58.434       35.022      901.332     3414.560     1226.547        0.534        0.277       55.029       29.415        0.286      343.011       18.823      862.751
05/18/2013  11:42:00       77.038       58.639       31.182       61.643       55.080       37.808     3799.908     3033.754     1429.473        0.930        0.413       96.817       17.497        0.033      342.284       17.586      862.729
05/18/2013  11:43:00       32.463       54.656        2.663       86.682       83.836       49.794     7513.700     7028.555     2479.412        1.053        0.851       63.570       45.844        0.520      342.615       18.148      862.721
05/18/2013  11:44:00       68.454      141.703       -1.173       71.943       85.321       57.404     5175.734     7279.715     3295.184        2.026        0.788      157.371       53.135        0.114      342.276       17.573      862.717
05/18/2013  11:45:00       34.736       46.058        6.469       49.696       33.151       30.311     2469.696     1098.993      918.781        0.393        0.224       57.689       21.768        0.142      341.996       17.099      862.711
05/18/2013  11:46:00      109.020       56.584       19.648       92.795       62.498       40.840     8610.825     3906.037     1667.867        1.483        0.709      122.830       25.774        0.044      342.483       17.924      862.705
05/18/2013  11:47:00       16.812       99.967       15.560       82.571       55.649       49.912     6817.971     3096.765     2491.176        1.146        0.620      101.371       39.191        0.149      342.845       18.541      862.704
05/18/2013  11:48:00       -5.175       87.621       -5.899       65.053       71.053       39.016     4231.942     5048.466     1522.209        0.927        0.540       87.773       40.510        0.213      342.729       18.343      862.697
05/18/2013  11:49:00      -55.510      114.293        6.743       71.612       69.660       49.887     5128.316     4852.481     2488.708        1.433        0.623      127.060       59.067        0.216      342.445       17.858      862.694
05/18/2013  11:50:00       64.577       42.020       48.922       58.480       32.221       37.471     3419.954     1038.180     1404.042        0.709        0.293       77.044       23.620        0.094      342.575       18.081      862.683
05/18/2013  11:51:00       53.492       63.859       48.173       68.282       55.742       74.232     4662.386     3107.169     5510.430        1.127        0.664       83.303       45.046        0.292      342.322       17.651      862.665
05/18/2013  11:52:00       73.486       45.594       47.247       89.448       81.728       61.026     8000.947     6679.498     3724.143        1.405        0.920       86.481       56.257        0.423      342.334       17.670      862.645
05/18/2013  11:53:00       90.005      107.238       73.046       80.023       72.980       66.528     6403.705     5326.015     4426.010        2.054        0.808      140.003       40.401        0.083      342.080       17.238      862.628
05/18/2013  11:54:00      190.372       93.724       47.075      118.863       66.364       72.565    14128.322     4404.150     5265.708        3.552        1.190      212.192       64.792        0.093      342.163       17.377      862.623
05/18/2013  11:55:00      107.386        2.277       46.258       65.005      101.910       55.549     4225.672    10385.570     3085.659        1.568        0.885      107.411       35.354        0.108      342.186       17.419      862.631
05/18/2013  11:56:00      146.147       66.341       19.841       91.818       70.658       53.413     8430.585     4992.600     2852.929        2.121        0.814      160.500       20.841        0.017      341.889       16.913      862.594
05/18/2013  11:57:00       72.330     -125.426       -9.200       92.528       77.637       61.083     8561.392     6027.486     3731.128        1.968        0.916      144.787       58.440        0.163      342.333       17.667      862.565
05/18/2013  11:58:00      101.412     -155.212      -15.779       71.594       94.810       59.600     5125.684     8989.002     3552.109        2.614        0.883      185.405       47.494        0.066      342.380       17.746      862.566
05/18/2013  11:59:00       94.469      -72.937       43.295       92.892      147.729       75.581     8628.869    21823.860     5712.497        2.613        1.808      119.349       57.564        0.233      342.597       18.116      862.522
05/18/2013  12:00:00      158.950      110.094       45.696      120.436       75.216       72.869    14504.816     5657.456     5309.915        3.247        1.274      193.354       36.365        0.035      342.817       18.489      862.527
05/18/2013  12:01:00      235.638      132.424       71.174       89.147       78.317       65.769     7947.206     6133.485     4325.567        4.826        0.920      270.299       51.797        0.037      342.904       18.637      862.540
05/18/2013  12:02:00       43.629       80.679      111.345       72.756       87.076       62.369     5293.499     7582.291     3889.857        1.878        0.838       91.720       55.413        0.365      343.039       18.869      862.540
05/18/2013  12:03:00      102.531       22.429       54.613      100.261       90.386       60.594    10052.248     8169.608     3671.617        1.794        1.095      104.956       44.415        0.179      342.522       17.990      862.543
05/18/2013  12:04:00       77.041       50.347       70.818       65.156      108.569       69.166     4245.321    11787.310     4783.954        1.715        1.041       92.033       69.030        0.563      342.500       17.952      862.518
05/18/2013  12:05:00      117.018      115.422      116.476      103.854      111.002       74.559    10785.595    12321.481     5559.027        3.462        1.433      164.364       69.075        0.177      342.319       17.643      862.498
05/18/2013  12:06:00       57.785      -91.649       42.554       84.662      128.429       71.505     7167.572    16494.101     5112.931        2.116        1.439      108.345       74.698        0.475      342.912       18.652      862.490
05/18/2013  12:07:00       50.626       13.133       73.273       54.094       49.865       46.882     2926.174     2486.473     2197.941        0.786        0.381       52.301       41.402        0.627      342.541       18.022      862.533
05/18/2013  12:08:00       42.250      -41.062       11.284       33.862       58.672       29.260     1146.612     3442.461      856.147        0.452        0.272       58.917       30.070        0.260      342.173       17.397      862.531
05/18/2013  12:09:00      -16.705       19.128       -8.046       43.304       24.782       35.582     1875.240      614.130     1266.068        0.223        0.188       25.396       31.043        1.494      342.334       17.669      862.507
05/18/2013  12:10:00      -94.160       13.323      -13.067       56.834       45.570       37.099     3230.067     2076.630     1376.306        0.795        0.334       95.098       35.747        0.141      342.342       17.684      862.472
05/18/2013  12:11:00       37.894        0.764       51.632       51.314       95.950       44.065     2633.104     9206.402     1941.710        0.894        0.689       37.902       54.404        2.060      342.860       18.565      862.450
05/18/2013  12:12:00       58.730      -41.833       53.219       75.113      126.845       71.620     5642.014    16089.597     5129.493        1.744        1.343       72.106       77.662        1.160      343.023       18.842      862.413
05/18/2013  12:13:00      105.530      -22.232       32.630       56.281       87.877       50.694     3167.503     7722.366     2569.900        1.307        0.673      107.846       41.595        0.149      342.397       17.778      862.423
05/18/2013  12:14:00       55.180      -11.070        7.935       64.318       82.940       33.439     4136.751     6879.006     1118.151        0.768        0.607       56.280       32.205        0.327      342.645       18.200      862.414
05/18/2013  12:15:00       36.241      -33.828       56.672       66.842       71.619       52.709     4467.808     5129.242     2778.239        0.902        0.619       49.575       43.192        0.759      343.191       19.130      862.423
05/18/2013  12:16:00      -15.102      -12.484       13.551       39.270       42.710       33.737     1542.139     1824.141     1138.214        0.254        0.225       19.594       26.778        1.868      342.678       18.256      862.434
05/18/2013  12:17:00       51.335      -19.223       33.553       69.483       60.957       49.965     4827.842     3715.726     2496.542        0.758        0.552       54.816       40.080        0.535      342.807       18.476      862.423
05/18/2013  12:18:00      116.653     -101.279       12.555      105.522      148.716       84.964    11134.860    22116.421     7218.855        3.224        2.024      154.484       98.682        0.408      342.685       18.267      862.403
05/18/2013  12:19:00       14.764       61.500       51.610       50.838       51.163       37.785     2584.458     2617.613     1427.739        0.665        0.331       63.247       13.814        0.048      342.671       18.245      862.416
05/18/2013  12:20:00       23.876      -36.389       51.017       59.936       59.627       31.557     3592.321     3555.345      995.827        0.632        0.407       43.523       30.716        0.498      343.240       19.212      862.413
05/18/2013  12:21:00       53.861      -38.720       32.108       52.909       82.105       38.894     2799.360     6741.171     1512.773        0.824        0.553       66.334       34.752        0.274      342.647       18.203      862.403
05/18/2013  12:22:00      -34.937      -31.245       21.622       74.629       72.889       54.956     5569.434     5312.774     3020.184        0.828        0.695       46.871       49.361        1.109      343.052       18.893      862.373
05/18/2013  12:23:00      -41.102     -126.138       -1.753       80.676       98.057       48.555     6508.636     9615.190     2357.564        1.804        0.924      132.666       40.337        0.092      343.186       19.120      862.386
05/18/2013  12:24:00       35.396     -105.985        2.882       77.847       69.603       53.179     6060.102     4844.544     2827.962        1.311        0.687      111.739       34.692        0.096      343.197       19.138      862.380
05/18/2013  12:25:00      -24.750     -160.618      -12.636       59.260       69.507       44.708     3511.787     4831.215     1998.834        1.845        0.517      162.514       35.011        0.046      343.264       19.251      862.394
05/18/2013  12:26:00      -38.131     -124.569       -3.651       49.248       93.700       53.180     2425.353     8779.778     2828.061        1.551        0.702      130.274       47.108        0.131      342.981       18.773      862.398
05/18/2013  12:27:00      -20.585      -51.352       -2.575       44.291       69.079       29.743     1961.709     4771.947      884.645        0.534        0.381       55.324       26.467        0.229      342.595       18.115      862.400
05/18/2013  12:28:00       87.443      -18.261       39.640       83.916      118.769       77.356     7041.916    14106.039     5983.950        1.834        1.357       89.329       84.363        0.892      342.527       17.997      862.392
05/18/2013  12:29:00      -65.538     -116.408        2.438       55.711       75.346       36.859     3103.746     5676.964     1358.577        1.399        0.507      133.589       23.753        0.032      342.805       18.472      862.387
05/18/2013  12:30:00        1.288      -15.750       54.657       42.594       68.745       42.614     1814.259     4725.851     1815.936        0.579        0.418       15.803       35.806        5.134      343.701       19.998      862.361
05/18/2013  12:31:00       32.852      -49.820       61.324       60.876      100.371       45.630     3705.852    10074.273     2082.076        1.159        0.793       59.677       36.949        0.383      343.371       19.437      862.319
05/18/2013  12:32:00       36.169     -106.097       -3.021       39.000       60.618       46.494     1520.990     3674.508     2161.680        0.996        0.368      112.092       37.217        0.110      342.540       18.021      862.321
05/18/2013  12:33:00      -63.421      -99.800       -5.697       82.871       66.687       39.032     6867.592     4447.180     1523.530        1.342        0.642      118.247       33.174        0.079      342.881       18.601      862.345
05/18/2013  12:34:00      -26.823      -26.090       21.491       41.042       55.620       29.353     1684.467     3093.534      861.619        0.375        0.282       37.419       24.777        0.438      343.444       19.560      862.322
05/18/2013  12:35:00       47.761      -83.279       -5.361       36.785       63.109       31.475     1353.117     3982.797      990.654        0.778        0.316       96.003       27.883        0.084      342.742       18.365      862.307
05/18/2013  12:36:00       37.588        3.227       20.208       59.169       62.561       41.562     3500.915     3913.832     1727.393        0.549        0.457       37.727       35.322        0.877      343.125       19.018      862.252
05/18/2013  12:37:00       18.777       -9.583       53.264       35.216       64.129       36.660     1240.144     4112.518     1343.933        0.499        0.335       21.081       22.323        1.121      343.729       20.046      862.224
05/18/2013  12:38:00       68.566      -73.730       20.707       67.095       78.700       64.529     4501.682     6193.767     4163.999        1.271        0.743      100.685       46.666        0.215      343.354       19.406      862.225
05/18/2013  12:39:00       -2.306       63.626       33.420       39.204       53.055       42.778     1536.957     2814.817     1829.965        0.567        0.309       63.668       28.705        0.203      343.717       20.026      862.252
05/18/2013  12:40:00      -20.615      128.190       -8.560       29.763       42.404       26.820      885.841     1798.126      719.287        1.017        0.170      129.837       23.264        0.032      343.299       19.314      862.267
05/18/2013  12:41:00      -25.373       95.419        5.732       58.908      120.691       52.414     3470.166    14566.317     2747.193        1.528        1.039       98.735       54.971        0.310      343.722       20.035      862.268
05/18/2013  12:42:00     -145.637      140.337      -21.408       69.452       62.121       49.353     4823.573     3859.006     2435.718        2.624        0.556      202.249       43.260        0.046      343.390       19.466      862.258
05/18/2013  12:43:00      -70.945      207.932      -52.634       67.478      111.904       42.535     4553.344    12522.486     1809.244        3.496        0.944      219.702       30.879        0.020      343.046       18.879      862.273
05/18/2013  12:44:00      -80.645       28.561       29.159      128.583       64.105       74.427    16533.581     4109.480     5539.355        1.717        1.309       85.553       79.742        0.869      342.969       18.750      862.253
05/18/2013  12:45:00       16.556       71.248        0.009       58.239      113.437       41.183     3391.798    12867.916     1696.034        1.165        0.898       73.147       41.143        0.316      343.088       18.952      862.228
05/18/2013  12:46:00      -51.420      181.427      -20.683       74.267      102.487       44.941     5515.631    10503.488     2019.728        2.701        0.902      188.573       46.404        0.061      342.829       18.509      862.249
05/18/2013  12:47:00     -105.289      180.829      -25.607       58.327       82.991       46.539     3402.038     6887.509     2165.900        2.845        0.623      209.248       38.786        0.034      342.945       18.708      862.257
05/18/2013  12:48:00       17.745      323.435      -42.659       59.561       69.828       36.766     3547.521     4875.995     1351.734        5.826        0.489      323.921       26.686        0.007      342.540       18.017      862.259
05/18/2013  12:49:00      112.537       77.870       -1.785       96.742       64.027       47.367     9359.011     4099.403     2243.674        1.721        0.785      136.851       44.641        0.106      342.669       18.239      862.245
05/18/2013  12:50:00     -142.606      148.188      -23.395       54.176       93.045       55.262     2935.079     8657.363     3053.884        2.874        0.732      205.660       56.864        0.076      342.998       18.799      862.236
05/18/2013  12:51:00       11.488       86.160        6.889       55.612       58.502       49.216     3092.732     3422.428     2422.195        0.827        0.447       86.922       39.534        0.207      343.163       19.082      862.238
05/18/2013  12:52:00       29.850       52.219       12.400       65.623       71.169       39.924     4306.418     5064.989     1593.887        0.737        0.548       60.148       31.688        0.278      342.995       18.797      862.215
05/18/2013  12:53:00       95.214       60.425       27.644       94.565       52.120       41.553     8942.481     2716.458     1726.659        1.343        0.669      112.769       32.339        0.082      342.911       18.651      862.194
05/18/2013  12:54:00       21.831       63.820       -5.606       41.048      107.556       40.332     1684.908    11568.398     1626.663        0.973        0.744       67.450       44.629        0.438      342.561       18.056      862.179
05/18/2013  12:55:00      -30.987      203.931      -23.217       52.571       91.855       51.382     2763.668     8437.404     2640.090        2.846        0.692      206.272       36.066        0.031      342.774       18.416      862.180
05/18/2013  12:56:00       -4.006      142.103      -10.461       65.964      109.299       49.823     4351.294    11946.179     2482.330        1.955        0.939      142.159       51.906        0.133      343.029       18.851      862.164
05/18/2013  12:57:00     -136.825      190.291      -30.309       64.911       73.056       49.146     4213.413     5337.184     2415.320        3.391        0.598      234.375       36.713        0.025      342.786       18.436      862.178
05/18/2013  12:58:00     -114.411       60.999       -8.776       64.667       43.590       38.277     4181.833     1900.104     1465.149        1.222        0.377      129.656       36.959        0.081      342.900       18.633      862.169
05/18/2013  12:59:00     -132.167       67.494      -22.775       57.051       59.977       30.882     3254.806     3597.261      953.672        1.517        0.390      148.404       31.247        0.044      342.570       18.069      862.136
05/18/2013  13:00:00      -25.269      -10.389       16.578       20.097       33.454       21.781      403.875     1119.144      474.397        0.151        0.100       27.321       20.039        0.538      342.917       18.663      862.100
05/18/2013  13:01:00       18.670      118.926        7.926       37.974      114.894       43.105     1442.003    13200.537     1858.059        1.552        0.825      120.382       56.084        0.217      342.940       18.702      862.095
05/18/2013  13:02:00      -15.703      196.739      -25.067       62.769       83.878       41.971     3939.996     7035.497     1761.594        2.616        0.637      197.364       36.268        0.034      342.826       18.505      862.078
05/18/2013  13:03:00      -24.603       12.459        9.968       39.713       32.595       26.977     1577.119     1062.460      727.740        0.211        0.168       27.578       24.327        0.778      343.264       19.253      862.044
05/18/2013  13:04:00     -220.899       -1.844      -11.334       98.034       59.775       39.952     9610.595     3573.067     1596.145        3.185        0.739      220.907       40.784        0.034      342.959       18.730      862.043
05/18/2013  13:05:00     -312.138      -16.340      -38.051      124.415       83.370       52.413    15479.081     6950.554     2747.092        6.216        1.259      312.565       59.177        0.036      342.878       18.593      862.037
05/18/2013  13:06:00      -86.682       -4.224       21.010      109.400       80.840       39.900    11968.422     6535.128     1592.038        1.403        1.005       86.785       57.702        0.442      343.519       19.687      862.027
05/18/2013  13:07:00      -49.333      127.429       -5.659       43.998       66.518       41.544     1935.842     4424.652     1725.905        1.339        0.404      136.645       36.617        0.072      343.357       19.412      862.026
05/18/2013  13:08:00       45.890       40.356       22.216       45.192       38.027       47.937     2042.349     1446.022     2297.923        0.501        0.289       61.111       32.651        0.285      343.120       19.008      862.007
05/18/2013  13:09:00       64.313       53.718       27.319       39.450       34.987       35.220     1556.331     1224.072     1240.481        0.589        0.201       83.796       23.220        0.077      343.041       18.876      861.952
05/18/2013  13:10:00       20.189       26.312       57.266       46.054       73.344       45.042     2121.015     5379.412     2028.793        0.695        0.476       33.165       37.405        1.272      343.238       19.209      861.907
05/18/2013  13:11:00      141.987     -222.576      -40.293       60.440       56.288       29.149     3652.962     3168.309      849.641        3.950        0.384      264.008       24.161        0.008      342.860       18.561      861.872
05/18/2013  13:12:00       19.404      -68.893       33.774       29.724       82.407       43.060      883.528     6790.974     1854.136        0.789        0.476       71.574       49.351        0.475      343.239       19.211      861.867
05/18/2013  13:13:00       16.408      -24.422       17.868       30.439       39.075       36.206      926.511     1526.848     1310.843        0.247        0.188       29.422       27.131        0.850      343.579       19.790      861.888
05/18/2013  13:14:00      -50.903      -34.249       11.653       68.251       59.214       35.169     4658.260     3506.298     1236.843        0.665        0.470       61.352       35.073        0.327      343.527       19.701      861.931
05/18/2013  13:15:00     -122.402      -18.644       -3.565       60.550       52.363       40.967     3666.319     2741.918     1678.279        1.171        0.404      123.813       43.525        0.124      343.126       19.018      861.939
05/18/2013  13:16:00      -96.696      -32.410       -0.575       57.111       47.313       33.202     3261.650     2238.507     1102.393        0.850        0.330      101.983       32.147        0.099      343.385       19.462      861.933
05/18/2013  13:17:00      -22.622       77.862       17.944       65.558       68.638       33.782     4297.891     4711.206     1141.213        0.852        0.508       81.082       34.085        0.177      343.304       19.322      861.938
05/18/2013  13:18:00       53.233       55.326        6.386       52.941       46.719       29.892     2802.721     2182.620      893.521        0.591        0.294       76.777       13.805        0.032      343.296       19.307      861.929
05/18/2013  13:19:00      -60.811      172.858       -2.405      101.252      159.435       64.527    10251.900    25419.361     4163.682        3.670        1.992      183.243       61.939        0.114      343.487       19.631      861.909
05/18/2013  13:20:00     -150.269       25.840       16.733      149.068      134.898       92.601    22221.198    18197.348     8574.957        3.625        2.450      152.475       93.758        0.378      343.620       19.858      861.910
05/18/2013  13:21:00     -153.770      283.301      -40.466       98.612      103.347       55.544     9724.340    10680.653     3085.130        6.451        1.175      322.343       69.235        0.046      342.886       18.606      861.982
05/18/2013  13:22:00      -53.917      211.151      -11.346      109.152      109.312       49.338    11914.203    11949.116     2434.201        3.695        1.315      217.926       63.473        0.085      343.037       18.865      861.945
05/18/2013  13:23:00      -76.963      104.401       -8.576       70.657       87.371       49.798     4992.363     7633.658     2479.828        1.600        0.755      129.703       53.306        0.169      343.261       19.248      861.928
05/18/2013  13:24:00     -102.986       23.980        6.700       58.541       62.057       45.963     3427.014     3851.014     2112.589        1.031        0.470      105.741       43.482        0.169      343.343       19.388      861.919
05/18/2013  13:25:00       -9.264      141.001       -3.241       52.501       91.635       43.919     2756.395     8397.027     1928.866        1.653        0.654      141.305       45.628        0.104      343.527       19.701      861.925
05/18/2013  13:26:00       22.709       40.314       -0.974       41.638       59.326       25.345     1733.723     3519.568      642.373        0.402        0.295       46.270       26.579        0.330      343.225       19.185      861.905
05/18/2013  13:27:00      -41.745      -50.722        6.202       65.737       52.031       38.692     4321.395     2707.195     1497.052        0.644        0.426       65.692       40.456        0.379      343.308       19.328      861.869
05/18/2013  13:28:00      -13.095      126.928        4.405       38.551      103.510       44.971     1486.190    10714.254     2022.425        1.526        0.711      127.602       55.894        0.192      343.576       19.786      861.890
05/18/2013  13:29:00      -48.612      192.808       -7.416       81.587      123.735       51.958     6656.463    15310.357     2699.606        3.212        1.233      198.842       57.497        0.084      343.173       19.095      861.874
05/18/2013  13:30:00       -2.020      204.161       -0.965       59.760      115.280       63.199     3571.199    13289.394     3994.067        3.127        1.043      204.171       65.241        0.102      343.228       19.191      861.821
05/18/2013  13:31:00      -49.079      286.339      -22.553       75.459      134.054       61.829     5694.105    17970.492     3822.792        5.619        1.374      290.515       61.968        0.045      343.231       19.193      861.773
05/18/2013  13:32:00      -13.200      170.051       -9.175       63.255      118.754       51.290     4001.149    14102.527     2630.669        2.495        1.037      170.563       58.614        0.118      343.509       19.668      861.755
05/18/2013  13:33:00      -74.984      102.354       -7.086       43.765       67.962       41.433     1915.341     4618.792     1716.659        1.220        0.413      126.881       31.381        0.061      343.317       19.343      861.747
05/18/2013  13:34:00       17.558      106.685       -8.938       67.740      112.518       52.054     4588.715    12660.300     2709.640        1.586        0.998      108.120       53.208        0.242      343.328       19.363      861.733
05/18/2013  13:35:00     -157.251      134.236      -22.533      101.444       88.645       53.244    10290.871     7857.874     2834.939        3.211        1.049      206.753       58.545        0.080      343.528       19.700      861.741
05/18/2013  13:36:00      -39.255      134.786        8.130       63.688      113.480       51.524     4056.134    12877.603     2654.737        1.968        0.979      140.386       63.906        0.207      343.842       20.237      861.743
05/18/2013  13:37:00       21.929      142.940       -5.997       59.260      129.723       50.352     3511.748    16827.981     2535.300        2.191        1.144      144.612       70.627        0.239      343.674       19.951      861.721
05/18/2013  13:38:00      -14.247       51.461       14.055       30.636       64.917       31.911      938.569     4214.246     1018.297        0.461        0.309       53.397       30.222        0.320      344.099       20.678      861.693
05/18/2013  13:39:00       61.961       56.921        2.766       51.344       38.779       32.181     2636.206     1503.841     1035.593        0.613        0.259       84.138       25.704        0.093      343.631       19.878      861.665
05/18/2013  13:40:00       89.177        0.689        9.249       43.458       51.319       37.826     1888.585     2633.670     1430.772        0.699        0.298       89.180       24.335        0.074      343.336       19.377      861.627
05/18/2013  13:41:00      133.398       52.013       56.467       90.692       85.997       66.888     8224.954     7395.445     4473.980        2.189        1.005      143.180       48.263        0.114      343.550       19.739      861.565
05/18/2013  13:42:00       43.310      -13.430       62.636      101.202      113.830       58.939    10241.834    12957.257     3473.749        1.632        1.334       45.344       69.686        2.362      343.410       19.502      861.482
05/18/2013  13:43:00       55.566      109.946        9.719      133.656       87.967       56.313    17863.795     7738.168     3171.108        2.202        1.439      123.189       50.584        0.169      343.699       19.993      861.544
05/18/2013  13:44:00      -32.696      191.479      -15.899      182.914      160.307       79.000    33457.682    25698.287     6240.942        5.168        3.270      194.251       90.944        0.219      343.670       19.943      861.481
05/18/2013  13:45:00     -178.332      212.135      -42.029       92.232      123.389       53.777     8506.689    15224.881     2892.002        5.259        1.331      277.134       33.980        0.015      343.720       20.026      861.508
05/18/2013  13:46:00     -241.218       40.667      -24.800      138.098      147.333       74.618    19071.056    21707.136     5567.864        5.339        2.317      244.622       45.326        0.034      343.737       20.056      861.507
05/18/2013  13:47:00     -346.207     -129.004      -19.198      114.049      160.938       72.127    13007.094    25901.131     5202.251        9.048        2.206      369.461       60.658        0.027      343.515       19.676      861.533
05/18/2013  13:48:00     -294.625      -29.153       -8.779      151.857      109.493       66.916    23060.424    11988.680     4477.704        6.362        1.976      296.064       72.127        0.059      343.576       19.781      861.534
05/18/2013  13:49:00     -348.522      -55.255      -21.757      166.532      123.142       71.737    27733.004    15163.961     5146.135        8.651        2.402      352.875       81.387        0.053      343.722       20.030      861.521
05/18/2013  13:50:00     -285.833      -48.663      -17.267      139.732       96.173       62.440    19524.994     9249.179     3898.809        5.851        1.634      289.946       64.015        0.049      343.819       20.196      861.566
05/18/2013  13:51:00     -398.237     -141.103      -24.703      120.679      138.042       60.146    14563.485    19055.468     3617.564       10.817        1.862      422.496       56.245        0.018      343.655       19.916      861.549
05/18/2013  13:52:00     -153.491      -37.270        8.578      127.535       91.655       54.250    16265.120     8400.584     2943.089        2.631        1.380      157.951       68.857        0.190      343.803       20.171      861.563
05/18/2013  13:53:00     -190.595     -125.808        0.503      133.551      103.797       58.749    17835.860    10773.798     3451.477        4.210        1.603      228.373       61.164        0.072      343.779       20.128      861.558
05/18/2013  13:54:00      -56.856      -22.598       22.375       75.207       60.263       35.947     5656.125     3631.602     1292.200        0.741        0.529       61.182       50.224        0.674      344.049       20.592      861.537
05/18/2013  13:55:00     -169.206      -87.063       10.854      118.392      124.407       72.506    14016.702    15477.076     5257.174        3.553        1.738      190.291       74.067        0.151      343.806       20.176      861.500
05/18/2013  13:56:00     -136.262        7.861        1.000      104.987       78.719       37.705    11022.362     6196.620     1421.661        1.863        0.932      136.489       41.497        0.092      343.907       20.348      861.504
05/18/2013  13:57:00     -244.110       18.548      -25.532      152.988       88.522       42.979    23405.439     7836.131     1847.165        4.683        1.654      244.814       54.389        0.049      343.788       20.145      861.514
05/18/2013  13:58:00     -457.469      -27.230      -32.310      190.569      131.480       69.280    36316.674    17286.889     4799.774       13.472        2.920      458.279       72.470        0.025      343.600       19.822      861.520
05/18/2013  13:59:00     -521.754     -163.181      -13.402      241.360      167.448       91.724    58254.558    28038.713     8413.210       19.685        4.735      546.677      117.192        0.046      343.591       19.807      861.472
05/18/2013  14:00:00     -137.256     -142.273        1.217      109.204      128.718       59.836    11925.512    16568.359     3580.390        3.557        1.604      197.688       54.064        0.075      343.647       19.903      861.528
05/18/2013  14:01:00     -153.301      -12.964       -5.475      123.779       99.576       50.954    15321.117     9915.351     2596.271        2.576        1.392      153.848       58.066        0.142      343.872       20.290      861.528
05/18/2013  14:02:00     -559.716      -44.271      -51.005      218.895      166.327       95.624    47914.952    27664.632     9143.990       20.127        4.236      561.465      110.695        0.039      343.783       20.136      861.554
05/18/2013  14:03:00     -343.795     -109.287       -8.757      165.627      152.400       79.122    27432.409    23225.889     6260.283        9.356        2.846      360.748       75.548        0.044      344.047       20.587      861.526
05/18/2013  14:04:00     -310.058     -105.491      -10.039      200.840      138.944       81.627    40336.629    19305.530     6662.960        8.682        3.315      327.512       88.047        0.072      344.150       20.760      861.548
05/18/2013  14:05:00     -517.480     -180.065      -27.942      176.035      124.785       69.824    30988.383    15571.321     4875.366       17.620        2.572      547.913       32.250        0.003      343.700       19.992      861.573
05/18/2013  14:06:00     -253.130     -109.980        9.833      175.753      130.899       79.598    30889.214    17134.555     6335.878        6.530        2.718      275.990       87.139        0.100      343.840       20.233      861.551
05/18/2013  14:07:00      -92.852     -101.994       10.687      140.820       89.210       67.787    19830.245     7958.470     4595.045        2.575        1.619      137.928       72.809        0.279      343.773       20.117      861.536
05/18/2013  14:08:00     -201.693      -78.474       -6.303      119.034       82.476       48.125    14169.117     6802.329     2316.008        3.508        1.164      216.421       54.339        0.063      343.819       20.196      861.561
05/18/2013  14:09:00      -21.002       40.667       -1.293       99.692       80.412       63.281     9938.551     6466.154     4004.509        1.125        1.020       45.770       21.842        0.228      343.901       20.339      861.538
05/18/2013  14:10:00     -291.579     -116.324       -6.431      222.012      132.219       62.244    49289.336    17481.978     3874.333        8.460        3.532      313.926       91.777        0.085      343.830       20.215      861.533
05/18/2013  14:11:00     -358.771       -8.850      -15.574       98.739      112.862       59.646     9749.393    12737.920     3557.661        7.754        1.302      358.880       55.163        0.024      343.600       19.823      861.574
05/18/2013  14:12:00     -164.042       16.528       15.337      128.627      107.570       64.558    16544.831    11571.366     4167.799        2.984        1.614      164.872       69.666        0.179      344.032       20.559      861.564
05/18/2013  14:13:00     -134.930       -8.243        6.802       99.488       74.761       49.396     9897.855     5589.174     2440.000        1.812        0.896      135.182       41.095        0.092      344.325       21.061      861.558
05/18/2013  14:14:00     -136.429     -122.686       -4.323      122.751      166.963       67.139    15067.693    27876.590     4507.592        4.056        2.373      183.480       65.217        0.126      344.098       20.675      861.545
05/18/2013  14:15:00     -186.404     -169.443        5.184      122.050      145.046       78.453    14896.238    21038.242     6154.842        5.278        2.104      251.907       79.079        0.099      344.101       20.677      861.541
05/18/2013  14:16:00     -147.002     -123.361      -13.892      149.718      104.330       69.392    22415.522    10884.831     4815.250        3.756        1.906      191.904       76.236        0.158      344.067       20.621      861.521
05/18/2013  14:17:00      -47.461       24.541        8.754       73.271       76.592       40.654     5368.660     5866.270     1652.785        0.791        0.644       53.430       30.060        0.317      344.367       21.135      861.529
05/18/2013  14:18:00     -308.784       46.985      -25.844      170.227      139.545       67.783    28977.301    19472.695     4594.591        7.562        2.652      312.338       67.875        0.047      343.932       20.390      861.518
05/18/2013  14:19:00     -320.115       58.471      -40.470      124.102       88.470       49.781    15401.372     7826.894     2478.170        6.661        1.285      325.411       37.156        0.013      343.499       19.651      861.515
05/18/2013  14:20:00     -257.005       31.405      -25.948       52.594       74.782       41.399     2766.084     5592.387     1713.847        3.889        0.504      258.917       25.508        0.010      343.452       19.569      861.500
05/18/2013  14:21:00     -153.940       72.746      -13.599      101.443       61.186       41.599    10290.712     3743.692     1730.516        2.247        0.788      170.263       42.023        0.061      343.568       19.770      861.491
05/18/2013  14:22:00     -311.505       65.094      -32.775       61.555       75.830       37.070     3789.004     5750.235     1374.216        5.663        0.546      318.234       30.122        0.009      343.395       19.473      861.491
05/18/2013  14:23:00     -300.713     -113.950      -13.153      106.379      104.091       47.768    11316.519    10834.902     2281.796        6.400        1.222      321.579       39.617        0.015      343.562       19.757      861.465
05/18/2013  14:24:00     -247.685     -146.770        5.368      159.938      141.873       82.036    25580.278    20128.058     6729.854        6.767        2.622      287.904       87.945        0.093      343.642       19.893      861.463
05/18/2013  14:25:00     -292.651     -223.618       -6.988      153.634      134.122       76.134    23603.403    17988.712     5796.417        9.153        2.369      368.307       78.921        0.046      343.642       19.895      861.438
05/18/2013  14:26:00     -269.703     -133.790      -12.925      129.585      123.610       66.491    16792.322    15279.348     4421.023        6.364        1.825      301.064       69.595        0.053      343.740       20.061      861.449
05/18/2013  14:27:00     -476.876      -39.473      -18.541      241.091      122.884       83.207    58125.061    15100.549     6923.422       15.471        4.007      478.507       85.723        0.032      343.820       20.198      861.439
05/18/2013  14:28:00     -455.574     -133.567      -17.353      171.962      163.259       79.419    29570.918    26653.595     6307.453       14.410        3.127      474.751       87.533        0.034      343.864       20.272      861.418
05/18/2013  14:29:00     -400.357     -149.227      -16.559      188.598      137.207       85.168    35569.043    18825.818     7253.527       12.223        3.082      427.264       87.106        0.042      343.974       20.460      861.401
05/18/2013  14:30:00     -319.497     -206.687       23.554      248.210      190.274      103.285    61608.228    36204.124    10667.708       12.689        5.424      380.523      124.573        0.107      343.960       20.438      861.419
05/18/2013  14:31:00     -270.841     -187.840        2.361      160.184      143.210       81.083    25658.890    20509.087     6574.372        8.068        2.637      329.604       86.244        0.068      343.866       20.278      861.413
05/18/2013  14:32:00     -196.617      -74.146       -4.777      126.078      123.593       54.827    15895.651    15275.151     3005.959        3.917        1.709      210.133       59.761        0.081      344.122       20.712      861.415
05/18/2013  14:33:00     -428.275      -33.879      -26.487      145.428      112.917       68.567    21149.188    12750.256     4701.461       11.193        1.930      429.613       66.810        0.024      344.085       20.651      861.393
05/18/2013  14:34:00     -413.871     -193.336       -7.889      241.647      211.072      101.082    58393.501    44551.348    10217.514       16.092        5.658      456.802      113.420        0.062      343.972       20.457      861.358
05/18/2013  14:35:00     -444.286     -276.900      -11.179      217.499      189.486      110.017    47305.768    35904.792    12103.731       18.473        4.766      523.511      127.188        0.059      343.650       19.909      861.399
05/18/2013  14:36:00     -350.564      -76.363       -8.644      193.555      137.478       58.534    37463.692    18900.254     3426.272        9.428        2.990      358.785       79.140        0.049      343.815       20.191      861.423
05/18/2013  14:37:00     -108.579      -85.364        3.352       83.736       67.498       45.103     7011.668     4555.977     2034.282        1.634        0.680      138.117       33.809        0.060      344.237       20.913      861.394
05/18/2013  14:38:00      -32.270      -21.270       15.178      134.216       89.815       63.233    18013.979     8066.809     3998.384        1.590        1.504       38.649       59.083        2.337      344.465       21.302      861.400
05/18/2013  14:39:00     -291.053       54.584      -10.323      171.106      129.730       80.291    29277.359    16829.757     6446.608        7.017        2.628      296.127       52.919        0.032      344.259       20.948      861.433
05/18/2013  14:40:00     -202.462     -116.300       -9.627      120.106       84.360       54.203    14425.449     7116.575     2937.996        3.954        1.224      233.488       53.079        0.052      344.000       20.506      861.448
05/18/2013  14:41:00      -60.929       -0.827       12.133       73.543       43.643       37.318     5408.613     1904.698     1392.623        0.628        0.435       60.934       37.744        0.384      344.573       21.487      861.430
05/18/2013  14:42:00      -90.215        7.565       -4.735       90.502       62.847       47.834     8190.669     3949.686     2288.048        1.132        0.721       90.531       43.880        0.235      344.394       21.181      861.425
05/18/2013  14:43:00     -199.763       -3.993      -16.239       63.293       57.820       39.193     4005.996     3343.120     1536.109        2.453        0.444      199.803       20.095        0.010      344.084       20.650      861.425
05/18/2013  14:44:00     -262.152       10.892       -6.154      117.969      114.721       44.646    13916.706    13160.914     1993.305        4.897        1.454      262.378       48.021        0.033      344.125       20.719      861.412
05/18/2013  14:45:00     -403.956      -38.285      -22.454      185.382      139.523       74.420    34366.317    19466.674     5538.410       11.225        2.969      405.767       87.131        0.046      344.409       21.204      861.422
05/18/2013  14:46:00     -330.586     -177.916       -7.714      259.857      245.969      127.340    67525.428    60500.785    16215.383       14.259        7.212      375.422      144.295        0.148      344.474       21.314      861.408
05/18/2013  14:47:00     -196.280      -96.880        8.262      178.475      140.195       77.217    31853.227    19654.520     5962.496        5.271        2.874      218.888       93.300        0.182      344.677       21.663      861.449
05/18/2013  14:48:00     -284.239     -106.964       -0.836      170.556      159.429       82.170    29089.487    25417.722     6751.852        7.673        3.063      303.699       87.223        0.082      344.248       20.930      861.485
05/18/2013  14:49:00     -368.230     -211.759       -7.626      241.483      171.432       92.441    58313.951    29388.762     8545.420       13.835        4.812      424.776      119.124        0.079      344.077       20.637      861.498
05/18/2013  14:50:00     -314.159     -289.645       -0.562      192.895      136.598       96.005    37208.552    18659.138     9216.974       12.382        3.254      427.305      112.738        0.070      343.663       19.930      861.477
05/18/2013  14:51:00     -170.852     -128.190       21.861      169.450      127.943       79.122    28713.429    16369.495     6260.218        4.871        2.567      213.595       89.491        0.176      344.018       20.536      861.458
05/18/2013  14:52:00     -154.710      -57.222       13.244      109.158      121.810       64.334    11915.518    14837.639     4138.803        2.913        1.545      164.953       57.503        0.122      344.039       20.573      861.480
05/18/2013  14:53:00     -223.234      -61.022        7.160      166.151      141.494       84.387    27606.183    20020.610     7121.245        5.417        2.737      231.424       99.671        0.185      344.162       20.782      861.466
05/18/2013  14:54:00     -329.094     -115.597      -10.440      145.827      181.349       71.392    21265.524    32887.470     5096.802        9.050        2.962      348.806       66.074        0.036      343.803       20.168      861.471
05/18/2013  14:55:00     -156.405     -100.251       11.574      145.191      128.659       61.441    21080.516    16553.099     3774.979        3.802        2.070      185.776       70.022        0.142      343.854       20.257      861.463
05/18/2013  14:56:00     -355.136       12.203      -25.897      225.152      136.672       72.448    50693.561    18679.202     5248.720       10.077        3.731      355.346       84.483        0.057      343.624       19.863      861.405
05/18/2013  14:57:00     -473.671     -110.412      -13.019      190.419      184.874       88.422    36259.206    34178.456     7818.510       15.747        3.913      486.369       86.969        0.032      343.913       20.355      861.376
05/18/2013  14:58:00     -312.317      -63.370        2.288      162.260      106.743       64.742    26328.236    11394.056     4191.511        7.173        2.096      318.681       72.078        0.051      344.019       20.537      861.393
05/18/2013  14:59:00     -253.674      -67.368       -3.171      166.119      140.239       76.945    27595.389    19667.004     5920.584        6.103        2.659      262.467       68.726        0.069      344.147       20.757      861.405
05/18/2013  15:00:00     -222.104     -134.209       12.158      181.924      149.612       62.587    33096.163    22383.700     3917.133        6.343        2.970      259.504       71.406        0.076      343.991       20.491      861.390
05/18/2013  15:01:00     -265.660     -230.005      -12.766      145.513      128.501       76.133    21174.062    16512.436     5796.219        8.355        2.174      351.394       55.144        0.025      343.845       20.241      861.354
05/18/2013  15:02:00     -312.592     -164.821        5.097      156.590      112.412       77.279    24520.487    12636.413     5972.019        8.401        2.156      353.383       88.054        0.062      343.947       20.415      861.342
05/18/2013  15:03:00     -475.925     -184.694      -22.367      273.209      174.741       86.354    74643.063    30534.476     7457.089       18.685        5.632      510.506      103.945        0.041      343.965       20.446      861.345
05/18/2013  15:04:00     -298.976      -89.510        7.790      163.312      197.847       88.737    26670.771    39143.592     7874.297        8.556        3.684      312.088       77.582        0.062      344.208       20.859      861.329
05/18/2013  15:05:00     -521.184     -387.854      -23.714      228.817      176.971      116.421    52357.279    31318.612    13553.774       25.991        4.861      649.664      116.927        0.032      343.939       20.400      861.329
05/18/2013  15:06:00     -490.373     -346.062       -7.294      275.012      174.816      110.916    75631.421    30560.742    12302.461       23.936        5.925      600.187      129.239        0.046      343.859       20.265      861.327
05/18/2013  15:07:00     -393.284     -314.207        9.663      268.315      200.970      127.633    71992.898    40389.074    16290.119       19.106        6.434      503.387      146.890        0.085      343.956       20.429      861.315
05/18/2013  15:08:00     -616.912     -397.644      -32.715      242.303      187.134      115.539    58710.544    35018.947    13349.340       32.340        5.354      733.963      117.568        0.026      343.851       20.251      861.316
05/18/2013  15:09:00     -403.337     -271.313       -2.906      276.991      199.742      117.621    76723.935    39896.696    13834.731       18.335        6.523      486.098      143.278        0.087      343.855       20.258      861.355
05/18/2013  15:10:00     -567.460     -336.108      -19.362      271.910      184.220      106.048    73935.209    33937.157    11246.131       27.721        5.956      659.530      140.022        0.045      343.790       20.146      861.348
05/18/2013  15:11:00     -286.710     -224.316       -3.752      227.946      135.338       92.626    51959.235    18316.441     8579.568       10.568        3.943      364.033      105.876        0.085      343.879       20.299      861.355
05/18/2013  15:12:00     -295.661     -168.547       -0.561      139.004      147.745       72.799    19322.240    21828.676     5299.683        8.113        2.323      340.328       83.949        0.061      343.856       20.260      861.313
05/18/2013  15:13:00     -280.972     -205.964        6.818      142.365      132.843       96.145    20267.738    17647.192     9243.940        8.428        2.358      348.376       84.237        0.058      344.069       20.623      861.260
05/18/2013  15:14:00     -466.707     -283.265      -31.850      268.275      172.840       99.019    71971.253    29873.546     9804.744       20.534        5.582      545.944      103.737        0.036      343.891       20.318      861.265
05/18/2013  15:15:00     -222.193      -96.753       15.764      182.942      153.421       76.330    33467.706    23537.893     5826.288        6.089        3.142      242.345       81.056        0.112      344.256       20.944      861.190
05/18/2013  15:16:00     -602.419      -98.878      -23.199      212.674      191.251       96.221    45230.382    36576.807     9258.464       23.213        4.553      610.480       97.174        0.025      344.116       20.704      861.264
05/18/2013  15:17:00     -552.553      -78.299      -26.740      241.897      188.240       90.812    58514.314    35434.249     8246.811       20.716        5.110      558.073      100.538        0.032      343.819       20.196      861.316
05/18/2013  15:18:00     -457.970     -103.805      -28.623      212.111      167.015       86.141    44991.036    27894.013     7420.232       15.080        4.015      469.587       96.392        0.042      343.899       20.333      861.283
05/18/2013  15:19:00     -280.149      -64.241        3.856      134.477      141.617       81.992    18084.071    20055.367     6722.739        6.373        2.243      287.421       77.708        0.073      344.069       20.623      861.319
05/18/2013  15:20:00     -267.255     -133.240       -1.349      188.862      139.912       74.128    35668.762    19575.403     5494.903        7.495        3.037      298.627       76.188        0.065      343.899       20.333      861.317
05/18/2013  15:21:00     -326.511     -269.760        7.000      248.536      169.515       93.599    61769.933    28735.302     8760.685       13.933        4.963      423.533       98.961        0.055      343.986       20.481      861.280
05/18/2013  15:22:00     -367.553     -256.569      -13.865      206.885      202.211      106.663    42801.512    40889.152    11376.980       14.807        4.753      448.244      102.302        0.052      344.034       20.563      861.303
05/18/2013  15:23:00     -366.950     -210.871       -7.880      262.130      224.656      116.533    68712.290    50470.485    13580.008       15.595        6.638      423.225      123.703        0.085      344.076       20.635      861.314
05/18/2013  15:24:00     -257.278     -119.476        8.492      218.550      138.802       81.657    47763.890    19265.889     6667.923        7.710        3.685      283.666      101.584        0.128      343.931       20.388      861.343
05/18/2013  15:25:00     -390.354      -20.400      -38.189      156.839      165.148       76.142    24598.341    27273.955     5797.528       10.595        2.883      390.887       71.554        0.034      344.154       20.767      861.324
05/18/2013  15:26:00     -314.477      -82.830      -25.591      161.184      105.797       64.850    25980.161    11192.947     4205.567        7.389        2.069      325.203       64.172        0.039      343.989       20.487      861.262
05/18/2013  15:27:00     -323.336      -52.699      -20.013      166.281      151.201       68.157    27649.376    22861.676     4645.403        8.143        2.758      327.602       77.342        0.056      344.124       20.718      861.265
05/18/2013  15:28:00     -214.263      -56.911       32.372      214.541      144.960       83.088    46027.951    21013.463     6903.593        6.206        3.697      221.692      104.977        0.224      344.508       21.373      861.320
05/18/2013  15:29:00     -435.559     -173.924      -13.520      197.115      209.583       92.672    38854.281    43924.960     8588.038       15.574        4.568      469.000       97.375        0.043      344.071       20.625      861.335
05/18/2013  15:30:00     -393.419     -266.058      -29.865      165.437      164.263       78.685    27369.373    26982.444     6191.346       14.349        3.027      474.937       94.193        0.039      343.691       19.978      861.342
05/18/2013  15:31:00     -355.526     -170.685      -16.720      175.932      155.362       72.243    30952.009    24137.470     5219.038       10.805        3.015      394.375       73.091        0.034      343.921       20.372      861.277
05/18/2013  15:32:00     -164.182     -137.134       -0.410      167.130      154.726       86.939    27932.594    23940.029     7558.389        5.258        2.972      213.920       71.026        0.110      344.103       20.681      861.235
05/18/2013  15:33:00     -208.056       -6.422        7.321      115.324      115.246       61.152    13299.633    13281.557     3739.528        3.685        1.516      208.155       53.484        0.066      344.174       20.803      861.203
05/18/2013  15:34:00     -180.976      -77.649        0.093      173.712      130.686       74.961    30175.912    17078.725     5619.100        4.582        2.644      196.931       78.840        0.160      344.375       21.145      861.208
05/18/2013  15:35:00     -436.790     -214.235        0.471      174.663      142.303       81.093    30507.068    20250.016     6576.089       14.700        2.867      486.500       80.570        0.027      344.333       21.073      861.214
05/18/2013  15:36:00     -452.250     -261.934       -9.840      355.506      225.010      141.140   126384.262    50629.500    19920.611       23.505        9.847      522.628      160.285        0.094      344.026       20.549      861.204
05/18/2013  15:37:00      -50.591      -25.493        9.111      161.616      101.379       83.119    26119.712    10277.781     6908.690        2.329        2.165       56.651       84.486        2.224      344.445       21.267      861.209
05/18/2013  15:38:00     -493.519      -30.065      -34.365      295.031      172.521       93.532    87043.020    29763.401     8748.154       18.557        6.278      494.433      106.405        0.046      344.332       21.072      861.228
05/18/2013  15:39:00     -487.723      -77.187      -46.575      249.983      136.147       79.367    62491.402    18535.937     6299.170       16.665        4.366      493.793       75.711        0.024      344.065       20.616      861.233
05/18/2013  15:40:00     -381.135     -143.963       -4.388      223.275      147.586       85.777    49851.873    21781.631     7357.679       12.248        3.950      407.417       99.735        0.060      344.028       20.553      861.208
05/18/2013  15:41:00     -128.656      -27.117       -1.199      143.425      124.691       69.807    20570.855    15547.757     4873.022        2.913        2.050      131.482       69.375        0.278      344.649       21.616      861.197
05/18/2013  15:42:00     -242.241     -178.871        7.191      193.849      130.408       80.530    37577.386    17006.248     6485.086        7.589        3.053      301.124       84.709        0.079      344.349       21.102      861.186
05/18/2013  15:43:00     -363.161     -108.719      -10.871      162.505      111.655       66.131    26407.956    12466.773     4373.245        9.353        2.162      379.085       74.190        0.038      343.968       20.450      861.186
05/18/2013  15:44:00     -379.584     -148.477      -12.468      195.415      200.161       79.235    38187.211    40064.233     6278.233       12.539        4.226      407.589       80.336        0.039      344.263       20.954      861.216
05/18/2013  15:45:00     -658.338      -15.754      -49.582      319.886      171.464       96.463   102327.233    29399.888     9305.186       28.854        7.052      658.527      125.389        0.036      344.258       20.947      861.269
05/18/2013  15:46:00     -562.675      -34.124      -57.091      210.760      188.372       71.727    44419.790    35483.874     5144.790       20.302        4.252      563.708       72.644        0.017      343.729       20.044      861.291
05/18/2013  15:47:00     -302.767     -127.137      -16.327      168.845      125.306       69.560    28508.530    15701.597     4838.602        7.856        2.452      328.377       75.423        0.053      344.004       20.511      861.273
05/18/2013  15:48:00     -207.444     -110.039       16.014      162.454      144.689       71.788    26391.443    20934.768     5153.461        5.393        2.624      234.823       73.137        0.097      344.278       20.982      861.282
05/18/2013  15:49:00     -198.395     -185.942       19.183      186.318      165.826      106.000    34714.435    27498.175    11236.045        7.386        3.672      271.910      122.792        0.204      344.045       20.581      861.276
05/18/2013  15:50:00     -286.935     -197.704       -7.019      176.382       89.053       65.899    31110.580     7930.492     4342.682        8.242        2.169      348.452       59.398        0.029      343.728       20.040      861.266
05/18/2013  15:51:00     -256.438     -185.902       -1.405      189.997      137.962       85.148    36098.716    19033.506     7250.159        8.134        3.119      316.734       75.181        0.056      343.785       20.139      861.231
05/18/2013  15:52:00     -221.166      -63.844        2.964      189.313      117.702       64.367    35839.451    13853.698     4143.097        5.341        2.692      230.196       77.426        0.113      343.869       20.283      861.203
05/18/2013  15:53:00     -251.108     -237.246      -14.558      130.166      125.669       62.994    16943.179    15792.764     3968.212        7.812        1.835      345.458       61.424        0.032      343.799       20.162      861.211
05/18/2013  15:54:00     -364.271     -175.643        2.093      228.250      139.344       89.331    52098.241    19416.728     7980.105       12.151        3.975      404.406      112.694        0.078      343.870       20.284      861.220
05/18/2013  15:55:00     -324.477       -5.273        2.685      234.385      113.776       80.547    54936.171    12944.933     6487.818        8.983        3.718      324.520       85.892        0.070      343.960       20.437      861.275
05/18/2013  15:56:00     -437.287     -184.974      -20.239      219.319      200.804       83.530    48100.803    40322.082     6977.316       16.060        4.770      474.800       93.301        0.039      343.833       20.218      861.283
05/18/2013  15:57:00     -420.471     -267.890       17.498      240.157      144.287      113.080    57675.470    20818.673    12787.038       17.006        4.564      498.559      125.394        0.063      343.739       20.060      861.246
05/18/2013  15:58:00     -429.569     -283.525        1.197      237.128      182.999       97.838    56229.853    33488.499     9572.343       18.208        4.965      514.699      114.702        0.050      343.693       19.981      861.226
05/18/2013  15:59:00     -440.526     -236.396        1.436      223.052      156.691       83.680    49752.127    24551.925     7002.269       16.561        4.065      499.946       97.718        0.038      343.774       20.120      861.193
05/18/2013  16:00:00     -370.065     -129.284       -1.857      204.658      142.137       84.822    41884.851    20202.919     7194.753       11.146        3.464      391.998      100.285        0.065      344.093       20.664      861.166
05/18/2013  16:01:00     -397.382     -316.099      -31.101      222.082      177.980       88.890    49320.461    31676.884     7901.396       17.383        4.445      507.770       74.690        0.022      344.296       21.010      861.161
05/18/2013  16:02:00     -343.559     -185.634       -3.521      250.856      180.796       99.099    62928.672    32687.145     9820.710       12.895        5.272      390.503      118.760        0.092      344.238       20.914      861.215
05/18/2013  16:03:00     -296.492      -26.859      -27.749      148.285      114.213       82.297    21988.296    13044.583     6772.841        6.559        2.090      297.707       71.217        0.057      344.413       21.211      861.232
05/18/2013  16:04:00     -318.213       -9.165      -15.084      186.104      132.626       81.341    34634.636    17589.600     6616.385        8.019        2.942      318.345       84.704        0.071      344.345       21.096      861.240
05/18/2013  16:05:00     -563.302       -3.360      -29.378      260.134      170.606      101.440    67669.688    29106.428    10290.046       21.260        5.353      563.312      113.557        0.041      344.273       20.970      861.228
05/18/2013  16:06:00     -346.112      -97.959       13.214      240.300      173.642      107.714    57744.327    30151.673    11602.215       11.451        4.975      359.708      121.559        0.114      344.412       21.208      861.220
05/18/2013  16:07:00     -225.718      -68.444        2.146      238.722      134.714       84.677    56988.230    18147.941     7170.133        6.896        4.115      235.867      102.670        0.189      344.591       21.517      861.260
05/18/2013  16:08:00     -257.457     -102.233        6.563      217.423      213.772       81.548    47272.843    45698.293     6650.124        8.818        4.981      277.012       92.058        0.110      344.528       21.408      861.268
05/18/2013  16:09:00     -485.520     -337.166       -4.251      224.506      191.449      108.855    50403.165    36652.595    11849.406       22.415        4.945      591.109      110.439        0.035      343.978       20.466      861.282
05/18/2013  16:10:00     -429.972     -172.960      -11.233      271.063      175.695      109.477    73475.046    30868.710    11985.287       16.560        5.816      463.456      123.136        0.071      344.079       20.641      861.293
05/18/2013  16:11:00     -272.093     -209.325       -9.403      240.003      197.321      108.929    57601.496    38935.494    11865.432       11.315        5.420      343.295      126.720        0.136      344.012       20.525      861.312
05/18/2013  16:12:00     -491.437     -341.311       -6.568      254.308      162.198      118.203    64672.744    26308.087    13971.854       23.148        5.248      598.334      138.658        0.054      343.736       20.054      861.268
05/18/2013  16:13:00     -473.932     -247.447      -33.568      279.351      208.627      109.116    78037.094    43525.384    11906.305       21.019        6.673      534.641      120.930        0.051      344.000       20.505      861.265
05/18/2013  16:14:00     -545.818     -346.594      -14.980      245.875      193.761      108.424    60454.572    37543.226    11755.674       26.399        5.488      646.563      123.297        0.036      343.838       20.228      861.288
05/18/2013  16:15:00     -512.537     -274.734      -33.502      283.501      235.912      107.838    80372.783    55654.617    11628.955       24.345        7.383      581.526      121.493        0.044      343.859       20.263      861.284
05/18/2013  16:16:00     -489.402     -312.437      -28.450      210.237      202.293      103.743    44199.459    40922.407    10762.640       21.689        4.794      580.630       78.422        0.018      343.736       20.055      861.309
05/18/2013  16:17:00     -574.592     -248.555      -35.330      241.471      199.574      103.103    58308.272    39829.931    10630.164       25.095        5.438      626.048      114.257        0.033      343.680       19.958      861.354
05/18/2013  16:18:00     -360.752     -218.270      -10.238      216.838      166.932      107.580    47018.889    27866.199    11573.458       13.216        4.323      421.644      102.205        0.059      343.750       20.078      861.348
05/18/2013  16:19:00     -108.610      -13.097        4.635      130.736       86.870       67.399    17091.823     7546.401     4542.626        2.058        1.459      109.396       55.945        0.262      344.108       20.694      861.342
05/18/2013  16:20:00     -260.073      -69.218      -15.965      209.520      132.662       73.328    43898.547    17599.216     5376.937        6.977        3.344      269.126       88.349        0.108      344.109       20.692      861.331
05/18/2013  16:21:00     -656.609     -121.104      -39.303      245.679      190.735       96.266    60358.253    36379.971     9267.061       27.665        5.300      667.683      101.327        0.023      343.848       20.246      861.307
05/18/2013  16:22:00     -571.889     -106.464      -26.363      221.565      157.043      103.025    49091.131    24662.447    10614.238       21.171        4.218      581.714      110.971        0.036      343.669       19.941      861.293
05/18/2013  16:23:00     -457.096      -22.426      -17.786      301.966      155.543       94.859    91183.577    24193.540     8998.224       16.704        6.219      457.646      136.153        0.089      344.003       20.511      861.292
05/18/2013  16:24:00     -342.451      -42.729       19.131      212.312      172.186      104.888    45076.499    29647.882    11001.430       10.258        4.286      345.107      110.221        0.102      344.236       20.909      861.357
05/18/2013  16:25:00     -362.615     -186.391      -12.834      170.875      150.305       87.706    29198.313    22591.474     7692.344       11.293        2.974      407.715       90.574        0.049      344.218       20.878      861.360
05/18/2013  16:26:00     -284.150     -218.338      -12.110      190.859      155.818      102.981    36427.066    24279.281    10605.024        9.992        3.566      358.347       98.899        0.076      344.140       20.746      861.360
05/18/2013  16:27:00     -344.348     -222.634        0.790      212.409      171.130      101.863    45117.603    29285.448    10375.988       12.644        4.239      410.051      105.534        0.066      344.038       20.570      861.364
05/18/2013  16:28:00     -360.421     -260.216        1.484      237.532      169.242      105.996    56421.486    28642.898    11235.086       14.694        4.815      444.540      130.473        0.086      343.836       20.226      861.347
05/18/2013  16:29:00     -391.390      -69.544       -3.918      226.771      162.451       79.295    51425.027    26390.287     6287.719       12.105        4.205      397.520       93.275        0.055      343.949       20.418      861.379
05/18/2013  16:30:00     -314.002     -202.800        2.366      174.841      119.040       72.698    30569.512    14170.490     5285.012        9.487        2.501      373.798       71.712        0.037      344.041       20.575      861.386
05/18/2013  16:31:00     -453.566      -56.171      -14.846      214.086      166.888       89.626    45832.815    27851.672     8032.788       14.539        4.086      457.031      113.321        0.061      343.912       20.355      861.394
05/18/2013  16:32:00     -532.589     -175.018      -28.695      211.024      184.722       92.684    44530.937    34122.130     8590.330       20.116        4.362      560.608       96.456        0.030      343.829       20.211      861.391
05/18/2013  16:33:00     -427.143      -53.123      -18.155      199.559      128.298       78.708    39823.814    16460.263     6194.872       12.403        3.124      430.434       72.580        0.028      343.838       20.228      861.390
05/18/2013  16:34:00     -339.367      -75.554       -3.472      159.338      149.175       83.345    25388.593    22253.256     6946.315        8.773        2.729      347.675       86.392        0.062      344.020       20.539      861.356
05/18/2013  16:35:00     -335.760       -1.732       -1.224      133.387      139.302       65.719    17792.086    19405.010     4318.958        7.712        2.076      335.765       57.996        0.030      344.114       20.700      861.326
05/18/2013  16:36:00     -293.342     -220.772      -24.104      166.180      136.378       76.577    27615.752    18598.954     5863.996        9.371        2.604      367.138       77.910        0.045      344.288       20.997      861.324
05/18/2013  16:37:00     -456.217     -310.692      -24.583      175.347      139.615       89.145    30746.636    19492.303     7946.913       18.171        2.909      551.963       79.737        0.021      343.885       20.308      861.320
05/18/2013  16:38:00     -455.874     -133.014      -20.290      179.521      146.575       74.994    32227.873    21484.184     5624.159       14.262        2.967      474.883       72.267        0.023      343.761       20.097      861.298
05/18/2013  16:39:00     -375.057     -223.665       -7.528      214.508      165.703       95.306    46013.544    27457.602     9083.160       13.664        4.128      436.685      112.411        0.066      344.027       20.550      861.318
05/18/2013  16:40:00     -309.460      -33.502       -9.401      238.282      150.889       83.029    56778.118    22767.544     6893.805        9.169        4.322      311.268       64.685        0.043      344.078       20.639      861.267
05/18/2013  16:41:00     -398.760      -48.439      -16.631      259.295      158.226       82.447    67234.043    25035.615     6797.483       13.033        4.953      401.691      105.766        0.069      343.961       20.440      861.288
05/18/2013  16:42:00     -583.021     -157.083      -27.334      234.497      198.781      102.845    54988.897    39513.833    10577.016       23.519        5.254      603.812      115.602        0.037      343.911       20.353      861.282
05/18/2013  16:43:00     -311.928      -36.660        2.819      191.730      159.231       79.809    36760.506    25354.479     6369.420        8.355        3.424      314.075       86.692        0.076      344.056       20.600      861.321
05/18/2013  16:44:00     -335.680     -204.473       -4.514      192.381      196.828       94.047    37010.490    38741.155     8844.804       11.954        4.230      393.052      102.151        0.068      344.064       20.615      861.343
05/18/2013  16:45:00     -522.463     -297.118      -34.098      251.173      196.083       99.476    63087.743    38448.383     9895.503       23.690        5.572      601.038      110.294        0.034      343.613       19.844      861.331
05/18/2013  16:46:00     -382.002     -185.382      -19.259      204.212      214.726       88.151    41702.499    46107.057     7770.675       13.810        4.779      424.608       77.952        0.034      343.625       19.864      861.334
05/18/2013  16:47:00     -269.872     -146.019       10.643      208.464      139.900       93.647    43457.362    19571.986     8769.707        8.302        3.590      306.843      114.614        0.140      343.871       20.285      861.325
05/18/2013  16:48:00     -370.291     -141.549      -14.050      200.399      160.938       83.609    40159.839    25900.918     6990.389       11.519        3.653      396.424       93.566        0.056      343.947       20.416      861.348
05/18/2013  16:49:00     -355.316     -130.750        6.234      217.111      155.137       87.854    47137.403    24067.365     7718.412       11.114        3.946      378.609       92.953        0.060      344.045       20.583      861.321
05/18/2013  16:50:00     -277.820     -160.519       11.915      188.723      168.794       92.429    35616.341    28491.390     8543.043        8.786        3.633      320.858       82.828        0.067      343.916       20.361      861.330
05/18/2013  16:51:00     -400.440     -271.626      -11.972      245.496      215.420      107.501    60268.061    46405.646    11556.362       17.623        5.912      483.873      118.634        0.060      343.731       20.046      861.324
05/18/2013  16:52:00     -620.484     -241.488      -24.732      223.188      191.084       95.661    49812.669    36513.145     9150.963       26.968        4.774      665.820       95.388        0.021      343.521       19.688      861.279
05/18/2013  16:53:00     -450.212     -204.504       -2.494      223.753      192.265       97.715    50065.469    36965.722     9548.253       17.053        4.829      494.482      103.277        0.044      343.576       19.781      861.306
05/18/2013  16:54:00     -365.190     -270.556        9.561      234.640      195.390      109.112    55056.088    38177.232    11905.409       15.588        5.257      454.493      126.979        0.078      343.657       19.919      861.303
05/18/2013  16:55:00     -340.737     -126.778        9.053      331.450      191.287      118.773   109859.090    36590.595    14107.083       14.637        8.028      363.558      164.090        0.204      343.878       20.297      861.316
05/18/2013  16:56:00     -543.957       25.296      -40.224      203.987      181.115       82.028    41610.700    32802.592     6728.607       18.963        4.057      544.545       77.829        0.020      343.806       20.173      861.366
05/18/2013  16:57:00     -435.847     -152.579      -22.373      181.049      138.642       79.275    32778.750    19221.619     6284.467       13.600        2.914      461.782       90.831        0.039      343.804       20.171      861.365
05/18/2013  16:58:00     -373.316     -114.206        1.150      235.904      199.095       94.155    55650.484    39638.718     8865.204       12.826        5.208      390.395      118.981        0.093      343.828       20.213      861.331
05/18/2013  16:59:00     -376.341     -264.332       -8.665      200.700      177.277       95.045    40280.422    31427.105     9033.603       14.614        4.037      459.896       92.358        0.040      343.738       20.059      861.358
05/18/2013  17:00:00     -379.889     -222.710       -5.899      220.199      148.088       74.291    48487.499    21929.978     5519.212       13.493        3.797      440.358       82.443        0.035      343.795       20.154      861.314
05/18/2013  17:01:00     -573.274     -140.238      -14.158      209.152      152.154       90.353    43744.586    23150.736     8163.620       21.177        3.753      590.178       81.360        0.019      343.561       19.756      861.340
05/18/2013  17:02:00     -444.181      -58.081       -4.598      235.852      156.693       89.732    55626.077    24552.669     8051.848       14.444        4.412      447.962       95.573        0.046      343.871       20.284      861.331
05/18/2013  17:03:00     -390.898     -166.651       -0.179      306.604      207.300      112.651    94006.035    42973.418    12690.259       16.509        7.483      424.940      142.736        0.113      343.895       20.327      861.363
05/18/2013  17:04:00     -324.949      -81.341        4.060      164.802      158.055       76.071    27159.788    24981.302     5786.766        8.506        2.896      334.975       78.115        0.054      343.872       20.287      861.370
05/18/2013  17:05:00     -574.648     -123.389      -25.889      214.960      159.295       96.459    46207.979    25374.884     9304.415       21.348        4.044      587.746      101.011        0.030      343.679       19.959      861.355
05/18/2013  17:06:00     -345.881      -85.727      -18.927      151.691      134.860       65.285    23010.253    18187.186     4262.125        8.639        2.273      356.346       60.114        0.028      343.909       20.348      861.342
05/18/2013  17:07:00     -276.760     -207.015       13.104      198.355      187.443       98.639    39344.551    35134.717     9729.600       10.190        4.210      345.617       89.869        0.068      343.894       20.324      861.355
05/18/2013  17:08:00     -445.070     -297.217       -6.024      283.255      179.067      120.734    80233.546    32064.892    14576.691       20.664        6.344      535.187      142.627        0.071      343.511       19.671      861.307
05/18/2013  17:09:00     -451.517     -236.245       -3.218      197.302      164.578       87.155    38928.139    27086.003     7595.953       16.663        3.681      509.587       99.980        0.038      343.630       19.873      861.290
05/18/2013  17:10:00     -442.946     -299.702       -8.315      272.962      219.083      119.609    74508.479    47997.563    14306.366       21.142        6.841      534.811      143.612        0.072      343.674       19.949      861.325
05/18/2013  17:11:00     -484.822     -242.413      -28.043      274.807      177.737       91.569    75518.938    31590.300     8384.810       20.503        5.775      542.048      106.031        0.038      343.586       19.800      861.313
05/18/2013  17:12:00     -586.758     -129.004      -36.042      318.841      226.588      123.289   101659.690    51342.017    15200.167       26.518        8.410      600.772      169.741        0.080      343.600       19.823      861.352
05/18/2013  17:13:00     -578.489     -238.020      -39.037      246.379      157.759      111.630    60702.436    24887.902    12461.177       24.542        4.903      625.542      112.580        0.032      343.544       19.727      861.401
05/18/2013  17:14:00     -491.644     -141.345      -25.613      202.910      172.211       92.374    41172.643    29656.598     8532.995       17.084        3.968      511.559      107.675        0.044      343.595       19.814      861.412
05/18/2013  17:15:00     -369.368      -73.824      -12.771      150.434      210.302       81.556    22630.242    44227.130     6651.393       10.776        3.675      376.673       77.242        0.042      343.622       19.858      861.388
05/18/2013  17:16:00     -362.050      -93.717       -7.594      209.728      168.825       91.412    43985.781    28501.768     8356.209       11.037        4.042      373.983       88.007        0.055      343.815       20.188      861.396
05/18/2013  17:17:00     -278.617     -244.099        0.745      205.387      129.694       84.832    42183.732    16820.643     7196.471       10.169        3.310      370.421       96.916        0.068      343.717       20.023      861.358
05/18/2013  17:18:00     -433.406     -173.819       -5.856      214.247      141.969       81.051    45901.585    20155.320     6569.311       14.534        3.631      466.962       93.082        0.040      343.933       20.391      861.366
05/18/2013  17:19:00     -428.383     -129.770      -29.863      273.565      163.103      106.147    74837.915    26602.429    11267.172       15.695        5.635      447.607      131.222        0.086      343.668       19.938      861.401
05/18/2013  17:20:00     -247.706     -120.932       10.871      177.560      167.052       89.955    31527.475    27906.243     8091.952        7.180        3.376      275.649       90.268        0.107      343.728       20.040      861.380
05/18/2013  17:21:00     -293.564     -265.732       -6.468      141.208      130.342       71.629    19939.706    16989.042     5130.738        9.944        2.103      395.972       75.446        0.036      343.708       20.006      861.384
05/18/2013  17:22:00     -492.918     -319.775      -15.347      201.832      208.228       99.002    40736.094    43358.872     9801.463       21.966        4.695      587.558       92.858        0.025      343.777       20.124      861.398
05/18/2013  17:23:00     -396.544     -403.090        1.446      263.467      223.808      138.584    69414.609    50090.173    19205.629       22.919        6.936      565.445      138.188        0.060      343.564       19.761      861.391
05/18/2013  17:24:00     -514.251     -348.068      -14.707      276.022      197.093      128.856    76188.148    38845.650    16603.949       25.870        6.582      620.971      147.190        0.056      343.509       19.666      861.375
05/18/2013  17:25:00     -555.358     -276.075      -13.497      288.875      163.773      102.931    83448.994    26821.533    10594.790       25.282        6.043      620.193      117.095        0.036      343.580       19.788      861.377
05/18/2013  17:26:00     -498.649     -309.804       -7.274      268.938      171.667      106.188    72327.836    29469.656    11275.878       22.885        5.654      587.051      114.486        0.038      343.514       19.676      861.386
05/18/2013  17:27:00     -222.101      -94.757       23.181      182.883      139.383       82.471    33446.332    19427.556     6801.460        5.925        2.984      241.470       81.289        0.113      343.790       20.147      861.383
05/18/2013  17:28:00     -412.233     -184.183      -16.074      218.152      112.152       90.924    47590.448    12577.998     8267.154       13.626        3.422      451.508       91.710        0.041      343.620       19.856      861.384
05/18/2013  17:29:00     -395.468     -130.434       -7.497      170.497      191.941       93.578    29069.188    36841.163     8756.933       12.405        3.733      416.423       75.673        0.033      343.701       19.993      861.403
05/18/2013  17:30:00     -341.589     -112.055       12.095      275.683      176.673      106.285    76001.196    31213.349    11296.589       12.392        5.926      359.499      128.440        0.128      343.734       20.052      861.401
05/18/2013  17:31:00     -376.410     -298.267       -0.892      201.881      210.900      107.499    40755.948    44478.762    11555.958       16.370        4.840      480.258      110.796        0.053      343.593       19.810      861.407
05/18/2013  17:32:00     -396.981     -278.978      -15.813      211.388      194.116       86.129    44685.017    37681.053     7418.185       16.271        4.489      485.204       96.722        0.040      343.571       19.773      861.381
05/18/2013  17:33:00     -511.429     -237.400      -23.221      240.967      185.470       92.889    58064.891    34399.181     8628.386       20.975        5.055      563.842       95.678        0.029      343.437       19.545      861.408
05/18/2013  17:34:00     -401.297     -350.979      -15.405      258.689      190.330      119.274    66920.001    36225.695    14226.240       20.089        5.869      533.128      128.402        0.058      343.429       19.530      861.423
05/18/2013  17:35:00     -377.274     -292.214       10.852      224.473      175.521      112.870    50388.207    30807.523    12739.552       16.087        4.697      477.205      124.119        0.068      343.424       19.522      861.469
05/18/2013  17:36:00     -438.137     -233.078      -10.791      197.533      236.849       98.437    39019.166    56097.512     9689.891       17.559        5.240      496.276       95.554        0.037      343.313       19.333      861.470
05/18/2013  17:37:00     -492.675     -286.055       -5.982      193.743      161.257       95.250    37536.333    26003.950     9072.644       19.859        3.631      569.699       97.677        0.029      343.303       19.317      861.463
05/18/2013  17:38:00     -475.753     -206.825      -11.381      219.608      177.160       92.289    48227.563    31385.621     8517.256       17.867        4.407      518.766       91.590        0.031      343.310       19.328      861.452
05/18/2013  17:39:00     -402.567      -79.147        4.694      192.929      156.614       86.921    37221.616    24528.047     7555.330       11.881        3.465      410.274       84.834        0.043      343.424       19.523      861.449
05/18/2013  17:40:00     -168.709     -181.167       -4.328      116.977      106.974       64.152    13683.556    11443.534     4115.537        4.527        1.462      247.556       63.191        0.065      343.641       19.893      861.436
05/18/2013  17:41:00     -236.810     -237.213       -7.004      167.623      158.779       77.811    28097.454    25210.647     6054.493        8.587        2.968      335.185       78.765        0.055      343.628       19.870      861.406
05/18/2013  17:42:00     -259.783     -111.741        3.975      178.136      152.678       70.229    31732.555    23310.705     4932.175        6.997        2.999      282.796       83.079        0.086      343.848       20.245      861.424
05/18/2013  17:43:00     -436.203      -19.547       -2.171      196.045      166.899       92.228    38433.659    27855.425     8506.006       13.271        3.740      436.641       98.254        0.051      343.729       20.043      861.429
05/18/2013  17:44:00     -383.598      -71.102      -13.293      188.928      155.789       84.465    35693.790    24270.142     7134.260       10.973        3.355      390.132       87.534        0.050      343.640       19.890      861.447
05/18/2013  17:45:00     -453.938     -120.366      -22.904      219.992      162.223       90.871    48396.619    26316.439     8257.600       15.200        4.149      469.625       96.333        0.042      343.479       19.617      861.436
05/18/2013  17:46:00     -351.438      -50.161      -13.142      215.423      166.874       66.539    46407.222    27846.911     4427.402       10.242        3.934      354.999       87.110        0.060      343.558       19.750      861.448
05/18/2013  17:47:00     -461.999      -55.028      -28.279      251.027      142.836       85.755    63014.584    20402.251     7353.872       15.400        4.539      465.265      116.451        0.063      343.578       19.786      861.437
05/18/2013  17:48:00     -399.462     -174.723      -13.573      246.484      148.086      100.052    60754.551    21929.543    10010.494       14.147        4.635      436.002      121.331        0.077      343.518       19.682      861.417
05/18/2013  17:49:00     -644.152     -382.371      -26.973      255.316      194.972      115.590    65186.030    38013.900    13361.000       33.919        5.828      749.093      139.809        0.035      343.265       19.252      861.423
05/18/2013  17:50:00     -517.564     -236.458      -10.899      273.634      181.233      101.638    74875.757    32845.422    10330.321       22.095        5.903      569.021      115.762        0.041      343.316       19.338      861.429
05/18/2013  17:51:00     -384.257     -252.270      -14.602      198.824      165.205       92.447    39530.827    27292.756     8546.505       14.342        3.769      459.667      100.098        0.047      343.441       19.551      861.454
05/18/2013  17:52:00     -413.615     -257.879        1.493      198.790      160.627       95.796    39517.585    25801.076     9176.903       15.602        3.725      487.420       92.558        0.036      343.471       19.603      861.421
05/18/2013  17:53:00     -304.651      -92.549       -5.400      209.948      125.999       69.989    44078.367    15875.823     4898.486        8.312        3.243      318.399       86.294        0.073      343.706       20.003      861.458
05/18/2013  17:54:00     -357.411      -56.975        1.140      196.915      175.416       77.959    38775.327    30770.911     6077.633       10.329        3.781      361.923       76.910        0.045      343.645       19.898      861.483
05/18/2013  17:55:00     -425.962      -77.949       -9.695      220.165      164.776       93.255    48472.415    27151.290     8696.525       13.595        4.216      433.036      115.327        0.071      343.488       19.631      861.471
05/18/2013  17:56:00     -332.405     -142.125       -5.440      135.555      135.010       73.697    18375.117    18227.709     5431.254        8.637        2.102      361.514       58.852        0.027      343.507       19.665      861.496
05/18/2013  17:57:00     -281.770     -133.548        7.485      259.249      157.289       88.163    67210.192    24739.936     7772.681        9.848        4.986      311.816      112.370        0.130      343.543       19.726      861.508
05/18/2013  17:58:00     -467.126     -254.308      -20.773      212.935      192.631      104.904    45341.138    37106.643    11004.765       18.836        4.673      531.864      101.060        0.036      343.337       19.374      861.514
05/18/2013  17:59:00     -242.053     -128.040       13.256      191.051      159.380      104.180    36500.562    25401.831    10853.532        7.394        3.638      273.832      115.831        0.179      343.473       19.607      861.526
05/18/2013  18:00:00     -203.470     -182.511       27.521      239.129      189.386       96.558    57182.491    35867.195     9323.532        8.890        5.119      273.331      123.706        0.205      343.515       19.677      861.543
05/18/2013  18:01:00     -482.237     -120.693      -12.739      251.594      171.592      110.209    63299.684    29443.687    12145.919       17.606        5.244      497.111      123.933        0.062      343.447       19.562      861.569
05/18/2013  18:02:00     -334.536     -139.569       11.446      218.945      185.627       80.757    47937.026    34457.293     6521.689       11.020        4.446      362.483       94.823        0.068      343.447       19.562      861.622
05/18/2013  18:03:00     -324.780     -219.793      -14.470      185.493      124.360       59.928    34407.663    15465.507     3591.327       10.372        2.673      392.162       60.280        0.024      343.266       19.252      861.577
05/18/2013  18:04:00     -400.207     -253.412       -6.125      187.906      135.673       90.300    35308.572    18407.107     8154.163       14.313        3.093      473.691       94.393        0.040      343.285       19.286      861.563
05/18/2013  18:05:00     -253.324     -117.404        3.429      187.752      120.673       66.599    35250.813    14562.063     4435.431        6.610        2.712      279.207       81.268        0.085      343.335       19.371      861.561
05/18/2013  18:06:00     -256.900     -125.969       -2.900      138.285      108.650       67.797    19122.748    11804.868     4596.475        5.869        1.776      286.122       59.287        0.043      343.499       19.649      861.575
05/18/2013  18:07:00     -285.935     -266.032       13.907      169.529      163.726       92.210    28740.176    26806.233     8502.629       10.837        3.202      390.554       99.253        0.065      343.495       19.644      861.573
05/18/2013  18:08:00     -480.404     -200.572      -19.169      203.759      176.329       97.752    41517.714    31092.083     9555.449       17.676        4.108      520.593      107.658        0.043      343.399       19.481      861.610
05/18/2013  18:09:00     -289.235     -186.238      -11.040      201.179      171.648       90.846    40473.043    29463.122     8252.978        9.831        3.909      344.008      104.981        0.093      343.417       19.511      861.617
05/18/2013  18:10:00     -445.541     -171.119      -10.059      314.445      204.360       99.085    98875.738    41763.006     9817.804       18.914        7.523      477.272      136.741        0.082      343.310       19.329      861.628
05/18/2013  18:11:00     -524.933     -189.660      -17.341      226.159      187.765       92.829    51147.730    35255.841     8617.231       20.340        4.751      558.144      107.212        0.037      343.140       19.038      861.614
05/18/2013  18:12:00     -133.233     -138.065       36.536      211.096      164.560      109.299    44561.595    27080.024    11946.327        6.085        4.179      191.867      121.356        0.400      343.420       19.516      861.617
05/18/2013  18:13:00     -327.812     -222.201       17.658      248.846      228.474      105.744    61924.348    52200.360    11181.867       14.120        6.265      396.023      127.829        0.104      343.338       19.373      861.657
05/18/2013  18:14:00     -415.242     -158.092      -22.203      221.018      157.377       92.084    48848.742    24767.525     8479.419       13.999        4.105      444.319      105.230        0.056      343.231       19.195      861.661
05/18/2013  18:15:00     -378.457      -77.053      -10.014      213.973      171.503      100.517    45784.431    29413.152    10103.610       11.727        4.265      386.221      119.589        0.096      343.458       19.579      861.676
05/18/2013  18:16:00     -493.481     -169.016      -11.469      302.111      257.036      123.833    91271.059    66067.624    15334.581       22.241        8.634      521.622      143.019        0.075      343.163       19.077      861.668
05/18/2013  18:17:00     -437.729     -132.046      -21.338      225.944      171.610       89.076    51050.764    29450.064     7934.449       14.895        4.422      457.212      103.258        0.051      343.254       19.232      861.691
05/18/2013  18:18:00     -256.348     -251.641       15.017      195.703      173.897      111.990    38299.501    30240.119    12541.858       10.516        4.054      359.218      114.569        0.102      343.226       19.184      861.667
05/18/2013  18:19:00     -409.105     -182.730       -3.320      236.580      194.988       98.827    55970.076    38020.198     9766.681       15.224        5.188      448.059      118.046        0.069      343.152       19.057      861.665
05/18/2013  18:20:00     -266.822     -205.608       -4.386      178.534      204.476      101.277    31874.431    41810.433    10256.932        9.870        4.197      336.851       98.224        0.085      343.236       19.202      861.665
05/18/2013  18:21:00     -522.206      -65.879      -30.518      264.693      210.040      103.796    70062.267    44116.914    10773.673       20.144        6.248      526.345      127.670        0.059      343.186       19.116      861.647
05/18/2013  18:22:00     -501.042     -206.293      -23.263      186.023      141.640       80.685    34604.578    20061.866     6510.129       17.765        3.059      541.849       89.156        0.027      343.134       19.027      861.661
05/18/2013  18:23:00     -428.547     -278.447      -17.570      213.930      182.858       95.299    45766.000    33437.126     9081.914       17.487        4.414      511.063      105.616        0.043      343.155       19.064      861.657
05/18/2013  18:24:00     -417.000     -227.122       -2.020      237.031      162.268       89.299    56183.704    26331.000     7974.266       15.796        4.524      474.841      105.596        0.049      343.195       19.132      861.667
05/18/2013  18:25:00     -432.198      -99.159      -32.315      249.834      158.320      101.434    62417.132    25065.113    10288.885       14.770        4.889      443.427      120.218        0.074      343.182       19.111      861.690
05/18/2013  18:26:00     -450.215     -210.690       -9.721      277.741      208.403       95.315    77139.835    43431.657     9084.933       18.839        6.483      497.075      113.211        0.052      343.190       19.123      861.719
05/18/2013  18:27:00     -432.019     -183.425       -3.353      229.110      169.012      102.959    52491.436    28565.169    10600.536       15.596        4.583      469.345      115.412        0.060      343.035       18.860      861.718
05/18/2013  18:28:00     -358.821     -159.185       -3.321      228.456      143.815       87.029    52192.064    20682.767     7574.131       11.726        4.022      392.546       99.419        0.064      343.048       18.882      861.723
05/18/2013  18:29:00     -450.129     -104.547       -3.421      276.215      186.233      102.501    76294.729    34682.761    10506.530       16.750        6.074      462.110      117.583        0.065      343.085       18.945      861.736
05/18/2013  18:30:00     -344.791     -248.473        3.502      198.382      155.398       88.051    39355.608    24148.606     7752.968       12.593        3.563      424.994       95.477        0.050      343.059       18.900      861.748
05/18/2013  18:31:00     -464.921     -283.120      -18.030      210.151      168.341       84.924    44163.532    28338.604     7212.134       18.816        3.986      544.342      108.018        0.039      343.027       18.846      861.733
05/18/2013  18:32:00     -513.343     -317.207      -18.289      254.508      192.817       91.970    64774.230    37178.568     8458.451       23.742        5.521      603.442      102.461        0.029      342.930       18.682      861.711
05/18/2013  18:33:00     -466.443     -323.151       -8.689      234.106      177.256      114.343    54805.822    31419.779    13074.342       21.067        4.965      567.447      120.926        0.045      342.898       18.626      861.742
05/18/2013  18:34:00     -450.075     -291.776      -14.777      200.103      152.529       85.119    40041.317    23265.132     7245.184       17.922        3.528      536.378       99.219        0.034      342.948       18.713      861.764
05/18/2013  18:35:00     -482.010     -229.316      -29.410      171.771      136.521       83.800    29505.263    18638.015     7022.446       17.046        2.758      533.779       89.067        0.028      342.983       18.771      861.769
05/18/2013  18:36:00     -241.294     -160.537        5.101      167.071      123.480       82.166    27912.636    15247.219     6751.208        6.696        2.496      289.819       87.256        0.091      343.149       19.054      861.778
05/18/2013  18:37:00     -330.836     -123.075        3.997      197.250      145.815       81.081    38907.662    21262.014     6574.190        9.567        3.337      352.987       90.735        0.066      343.133       19.026      861.792
05/18/2013  18:38:00     -250.554      -35.579       -3.454      133.878      104.642       66.029    17923.224    10950.016     4359.831        4.864        1.662      253.068       68.238        0.073      343.254       19.234      861.797
05/18/2013  18:39:00     -413.752      -82.165      -25.627      163.664      120.690       68.662    26785.814    14565.966     4714.504       11.232        2.303      421.831       67.637        0.026      343.140       19.039      861.802
05/18/2013  18:40:00     -326.702      -34.291       -9.062      186.853      119.113       63.460    34914.085    14188.019     4027.172        8.055        2.656      328.497       78.916        0.058      343.178       19.105      861.831
05/18/2013  18:41:00     -605.946        5.337      -48.348      225.988      176.556       98.151    51070.617    31172.049     9633.697       23.069        4.594      605.970      107.533        0.031      342.908       18.645      861.833
05/18/2013  18:42:00     -257.989      -40.569        0.200      174.691      111.903       74.247    30517.076    12522.223     5512.598        5.837        2.428      261.159       84.230        0.104      343.124       19.012      861.844
05/18/2013  18:43:00     -339.386      -71.145      -20.162      206.135      155.400       81.392    42491.828    24149.178     6624.583        9.694        3.663      346.763      100.736        0.084      342.985       18.775      861.852
05/18/2013  18:44:00     -430.926      -45.797       -0.642      202.216      163.569       99.737    40891.301    26754.951     9947.444       13.268        3.880      433.353       94.759        0.048      342.897       18.624      861.865
05/18/2013  18:45:00     -628.947     -166.815      -31.342      221.731      170.223       86.150    49164.748    28975.718     7421.737       25.496        4.278      650.693       92.490        0.020      342.766       18.402      861.868
05/18/2013  18:46:00     -408.546     -152.021      -19.712      190.183      102.121       79.229    36169.507    10428.794     6277.179       12.163        2.644      435.913       68.893        0.025      342.894       18.620      861.879
05/18/2013  18:47:00     -251.283     -134.672        3.110      159.734      140.572       86.354    25514.878    19760.610     7456.949        6.700        2.637      285.096       86.515        0.092      342.987       18.778      861.878
05/18/2013  18:48:00     -210.374     -160.865       14.798      215.217      154.550      116.522    46318.415    23885.606    13577.323        7.705        4.189      264.830      136.684        0.266      342.911       18.649      861.854
05/18/2013  18:49:00     -194.387      -91.840        6.309      221.340      136.423       66.121    48991.564    18611.177     4371.970        5.910        3.599      214.991       82.909        0.149      343.052       18.890      861.899
05/18/2013  18:50:00     -381.914     -113.469        9.440      239.568      119.499       91.926    57392.708    14279.987     8450.312       11.946        4.006      398.413      113.905        0.082      342.849       18.544      861.887
05/18/2013  18:51:00     -344.555       37.515      -17.141      176.500      127.786       77.095    31152.078    16329.346     5943.682        8.691        2.671      346.591       74.869        0.047      342.952       18.719      861.886
05/18/2013  18:52:00     -287.264      -50.947        8.314      194.093      134.718       80.933    37671.948    18149.004     6550.159        7.377        3.119      291.747       98.130        0.113      342.972       18.753      861.918
05/18/2013  18:53:00     -394.695     -272.288      -19.297      178.199      190.755       92.146    31754.998    36387.594     8490.944       15.345        3.832      479.505       79.424        0.027      342.801       18.461      861.891
05/18/2013  18:54:00     -203.506     -127.050       19.810      182.199      180.233       86.631    33196.576    32484.109     7504.951        6.555        3.659      239.909      118.331        0.243      342.880       18.597      861.924
05/18/2013  18:55:00     -257.243     -119.976      -13.174      197.054      141.545       70.364    38830.226    20035.026     4951.056        7.227        3.191      283.845       85.069        0.090      342.889       18.611      861.952
05/18/2013  18:56:00     -473.042      -44.804      -19.831      228.764      157.848       80.445    52333.159    24915.913     6471.386       15.493        4.186      475.159       80.538        0.029      342.772       18.412      861.941
05/18/2013  18:57:00     -215.448      -77.841       15.842      248.296      121.840       74.981    61650.986    14845.036     5622.205        6.741        4.106      229.079      102.520        0.200      342.825       18.504      861.959
05/18/2013  18:58:00     -405.975     -153.302       -7.896      258.529      190.400       94.649    66837.114    36252.071     8958.418       15.019        5.602      433.955      109.632        0.064      342.712       18.310      861.906
05/18/2013  18:59:00     -413.640     -100.309      -12.331      212.342      121.283       76.871    45089.120    14709.461     5909.075       12.350        3.285      425.629       88.783        0.044      342.726       18.334      861.931
05/18/2013  19:00:00     -373.639     -109.183      -13.411      168.776      173.414       83.165    28485.407    30072.299     6916.475       10.858        3.274      389.265       83.522        0.046      342.724       18.331      861.907
05/18/2013  19:01:00     -302.048      -80.527      -10.226      238.918      150.368      100.115    57081.806    22610.446    10023.054        9.375        4.486      312.598      105.190        0.113      342.744       18.365      861.908
05/18/2013  19:02:00     -279.886     -131.362        4.930      292.642      157.649       76.534    85639.260    24853.216     5857.495       10.596        5.817      309.180      112.087        0.131      342.733       18.346      861.947
05/18/2013  19:03:00     -418.734     -241.876       -1.349      267.116      218.579      106.899    71351.144    47776.678    11427.429       18.217        6.528      483.572      135.586        0.079      342.697       18.286      861.920
05/18/2013  19:04:00     -355.231     -263.354        1.215      242.851      201.199      110.970    58976.738    40480.869    12314.389       15.364        5.589      442.204      126.501        0.082      342.653       18.210      861.895
05/18/2013  19:05:00     -461.786     -266.440      -28.413      183.003      205.479       96.062    33490.238    42221.578     9227.930       18.497        4.247      533.138       75.372        0.020      342.556       18.046      861.930
05/18/2013  19:06:00     -516.716     -303.019      -23.893      234.276      150.652       99.848    54885.379    22696.044     9969.581       22.345        4.378      599.012      120.545        0.040      342.534       18.008      861.924
05/18/2013  19:07:00     -408.188     -244.548       -9.048      260.760      200.856      130.313    67996.030    40343.001    16981.555       17.589        6.266      475.837      147.237        0.096      342.587       18.099      861.901
05/18/2013  19:08:00     -375.260     -169.415      -20.067      194.053      166.873       96.023    37656.714    27846.705     9220.329       12.231        3.736      411.730       87.418        0.045      342.600       18.121      861.926
05/18/2013  19:09:00     -364.519     -142.031      -15.125      185.436      179.548       82.871    34386.418    32237.402     6867.681       11.337        3.675      391.212       70.976        0.033      342.647       18.199      861.937
05/18/2013  19:10:00     -275.117     -108.902       17.209      226.561      158.629      104.821    51329.937    25163.198    10987.541        8.765        4.374      295.887      125.220        0.179      342.572       18.073      861.957
05/18/2013  19:11:00     -355.148      -98.155       -7.165      190.747      138.180       78.980    36384.386    19093.583     6237.768        9.875        3.086      368.462      100.091        0.074      342.597       18.115      861.957
05/18/2013  19:12:00     -434.494      -61.541        1.253      279.824      133.325       91.695    78301.364    17775.572     8408.018       14.851        5.224      438.831      112.438        0.066      342.529       18.000      861.965
05/18/2013  19:13:00     -501.252     -104.444      -21.785      229.813      140.372       76.039    52814.144    19704.318     5781.896       17.045        3.915      512.018       90.283        0.031      342.469       17.899      861.939
05/18/2013  19:14:00     -332.465     -164.359       -4.052      127.850      107.908       68.153    16345.736    11644.085     4644.791        8.509        1.632      370.873       65.023        0.031      342.519       17.982      861.966
05/18/2013  19:15:00     -427.073      -17.647      -27.705      200.432      133.131       84.044    40172.929    17723.928     7063.441       12.420        3.248      427.438       91.485        0.046      342.541       18.018      861.961
05/18/2013  19:16:00     -370.562      -60.333      -18.296      190.968      122.357       71.833    36468.948    14971.285     5160.026        9.893        2.830      375.441       76.014        0.041      342.541       18.020      861.942
05/18/2013  19:17:00     -278.790     -181.041       -6.365      165.259      141.201       78.467    27310.483    19937.655     6157.019        8.196        2.670      332.415       90.567        0.074      342.522       17.987      861.935
05/18/2013  19:18:00     -343.318     -246.127      -18.151      177.609      143.137       82.587    31545.134    20488.159     6820.543       11.880        2.943      422.428       88.195        0.044      342.467       17.895      861.938
05/18/2013  19:19:00     -378.279     -216.917      -18.033      260.780      197.963       89.350    68006.344    39189.239     7983.421       15.280        5.759      436.059      101.699        0.054      342.505       17.958      861.942
05/18/2013  19:20:00     -403.186     -183.224        0.910      185.342      163.448       96.097    34351.630    26715.319     9234.717       13.320        3.515      442.865       85.127        0.037      342.437       17.841      861.938
05/18/2013  19:21:00     -365.381     -265.552       -4.935      209.614      165.314       97.682    43938.174    27328.634     9541.715       14.241        4.040      451.687      107.185        0.056      342.437       17.843      861.928
05/18/2013  19:22:00     -289.642     -125.515        8.317      189.404      168.437       80.143    35873.870    28370.949     6422.870        8.518        3.533      315.669       84.512        0.072      342.425       17.824      861.942
05/18/2013  19:23:00     -447.058     -209.610      -11.875      260.862      180.622       92.012    68049.145    32624.232     8466.245       17.652        5.457      493.758       98.602        0.040      342.375       17.738      861.930
05/18/2013  19:24:00     -397.991     -214.342      -17.448      200.704      168.181       96.416    40281.916    28284.986     9296.029       14.124        3.893      452.039      100.657        0.050      342.357       17.706      861.930
05/18/2013  19:25:00     -441.608     -182.317      -30.517      207.516      203.651       93.697    43062.924    41473.896     8779.212       16.123        4.666      477.762       93.345        0.038      342.359       17.710      861.940
05/18/2013  19:26:00     -346.169     -147.316       -6.306      183.408      158.990       76.554    33638.619    25277.847     5860.555       10.316        3.239      376.212       77.243        0.042      342.354       17.702      861.953
05/18/2013  19:27:00     -577.439     -131.175      -37.524      205.659      150.504       86.677    42295.756    22651.483     7512.891       21.224        3.623      592.151       96.713        0.027      342.264       17.549      861.955
05/18/2013  19:28:00     -278.277     -145.490       -8.106      203.212      139.453       79.329    41295.003    19447.221     6293.050        8.284        3.352      314.015      108.586        0.120      342.295       17.602      861.945
05/18/2013  19:29:00     -333.793     -155.232      -12.168      172.125      184.547       84.186    29627.159    34057.727     7087.222       10.320        3.539      368.124       89.799        0.060      342.322       17.647      861.959
05/18/2013  19:30:00     -363.391     -179.456        5.031      254.424      150.425       91.418    64731.518    22627.699     8357.174       12.998        4.786      405.287      103.240        0.065      342.298       17.607      861.953
05/18/2013  19:31:00     -473.368     -140.542      -30.708      291.557      159.555       91.121    85005.435    25457.650     8302.982       18.175        5.938      493.791      135.021        0.075      342.276       17.569      861.986
05/18/2013  19:32:00     -616.903     -129.728      -38.597      170.725      176.550       73.579    29147.151    31169.936     5413.799       23.230        3.287      630.396       63.045        0.010      342.263       17.547      861.989
05/18/2013  19:33:00     -453.248     -105.452      -19.062      174.914      112.615       88.622    30594.879    12682.234     7853.797       13.401        2.557      465.354       85.565        0.034      342.287       17.589      862.024
05/18/2013  19:34:00     -326.325     -247.269        0.349      230.047      178.246       96.574    52921.693    31771.546     9326.576       13.081        4.701      409.426      116.023        0.080      342.270       17.558      862.042
05/18/2013  19:35:00     -500.945     -281.232      -27.224      228.115      191.957      104.476    52036.646    36847.628    10915.137       21.527        4.990      574.489       87.004        0.023      342.202       17.443      862.022
05/18/2013  19:36:00     -405.813     -265.915      -13.631      234.725      159.489      101.119    55095.867    25436.869    10225.102       16.315        4.538      485.175      110.037        0.051      342.199       17.438      862.022
05/18/2013  19:37:00     -298.053      -78.120      -11.438      161.596      102.019       63.880    26113.338    10407.913     4080.678        6.783        2.030      308.120       78.875        0.066      342.231       17.492      862.044
05/18/2013  19:38:00     -342.947     -120.393      -21.821      199.063      166.223       79.102    39626.160    27630.077     6257.184       10.303        3.676      363.466       72.032        0.039      342.193       17.429      862.036
05/18/2013  19:39:00     -316.102      -79.352       14.400      232.524      150.190       96.609    54067.486    22557.127     9333.305        9.617        4.298      325.910      114.654        0.124      342.154       17.363      862.028
05/18/2013  19:40:00     -312.616     -208.042      -15.367      191.611      169.935       90.500    36714.910    28877.919     8190.310       10.750        3.689      375.513       90.452        0.058      342.158       17.370      862.033
05/18/2013  19:41:00     -392.772      -96.688      -19.295      232.509      186.164       86.191    54060.411    34656.974     7428.864       13.005        4.807      404.497      104.199        0.066      342.123       17.311      862.039
05/18/2013  19:42:00     -574.517     -104.862      -33.893      211.276      137.396       87.654    44637.616    18877.643     7683.298       20.669        3.560      584.008       86.941        0.022      342.087       17.246      862.033
05/18/2013  19:43:00     -352.360      -36.350       -0.169      226.351      160.432       90.190    51234.603    25738.347     8134.218       10.528        4.255      354.230      100.728        0.081      342.078       17.233      862.051
05/18/2013  19:44:00     -545.413     -125.996      -17.106      225.316      152.971       86.989    50767.110    23400.111     7567.077       19.767        4.087      559.777      104.786        0.035      342.056       17.195      862.043
05/18/2013  19:45:00     -324.974      -97.292      -12.903      150.469      120.497       66.066    22640.867    14519.561     4364.654        7.837        2.076      339.225       81.901        0.058      342.072       17.221      862.052
05/18/2013  19:46:00     -171.474      -88.720        5.352      130.758       99.386       70.283    17097.719     9877.656     4939.682        3.460        1.596      193.066       56.680        0.086      342.116       17.298      862.077
05/18/2013  19:47:00     -554.326     -200.275      -13.701      237.489      170.774      104.197    56400.796    29163.642    10856.956       22.198        4.821      589.396      107.765        0.033      342.037       17.163      862.044
05/18/2013  19:48:00     -263.784     -143.718       -3.957      170.268      136.009       66.076    28991.055    18498.477     4366.073        7.104        2.593      300.394       72.741        0.059      342.056       17.195      862.066
05/18/2013  19:49:00     -355.086      -49.431       -2.213      221.322      158.360       69.159    48983.374    25078.008     4782.983       10.367        3.942      358.510       76.021        0.045      342.039       17.167      862.072
05/18/2013  19:50:00     -221.329      -96.191        4.676      149.872      110.951       66.158    22461.704    12310.104     4376.865        4.870        1.957      241.328       71.183        0.087      342.038       17.165      862.088
05/18/2013  19:51:00     -430.766     -174.102      -11.988      260.108      186.183       98.723    67656.161    34664.279     9746.238       16.402        5.603      464.619      111.782        0.058      341.994       17.090      862.090
05/18/2013  19:52:00     -313.584     -172.675        8.056      195.747      225.139       86.663    38317.065    50687.362     7510.437       11.235        4.826      357.982       89.813        0.063      342.004       17.107      862.097
05/18/2013  19:53:00     -422.888     -200.405      -16.877      255.440      157.563       93.394    65249.454    24826.088     8722.442       15.902        4.940      467.971      114.780        0.060      342.001       17.103      862.106
05/18/2013  19:54:00     -466.454     -179.856      -14.171      265.760      174.234       73.500    70628.172    30357.559     5402.179       17.824        5.319      499.928       85.445        0.029      342.004       17.107      862.159
05/18/2013  19:55:00     -243.800     -127.716        7.529      169.652      182.254       87.578    28781.933    33216.616     7669.855        7.272        3.483      275.227       92.930        0.114      341.994       17.092      862.181
05/18/2013  19:56:00     -344.242     -158.423       -7.385      196.100      216.207       97.924    38455.155    46745.438     9589.143       11.920        4.739      378.946      109.232        0.083      341.982       17.070      862.195
05/18/2013  19:57:00     -326.841      -63.215       -2.451      170.620      119.366       80.534    29111.303    14248.134     6485.689        8.033        2.492      332.898       90.115        0.073      341.957       17.026      862.259
05/18/2013  19:58:00     -269.540       -1.886        4.511      144.202      100.123       55.370    20794.122    10024.526     3065.826        5.327        1.694      269.547       58.443        0.047      341.956       17.025      862.270
05/18/2013  19:59:00     -328.134        9.533      -23.634      112.515      100.180       53.503    12659.531    10036.117     2862.561        6.693        1.278      328.273       52.707        0.026      341.942       17.001      862.288
05/18/2013  20:00:00     -182.075      -30.598       11.373      138.277       90.631       59.189    19120.626     8213.935     3503.319        3.252        1.542      184.629       68.296        0.137      341.923       16.971      862.299
05/18/2013  20:01:00     -299.452     -110.924      -11.090      139.656      162.795       67.568    19503.675    26502.286     4565.501        7.632        2.529      319.336       64.606        0.041      341.902       16.934      862.314
05/18/2013  20:02:00     -379.708     -127.094       -6.203      185.892       98.469       64.447    34555.832     9696.109     4153.418       10.438        2.420      400.413       75.067        0.035      341.894       16.920      862.321
05/18/2013  20:03:00     -397.887     -113.716      -32.413      210.612      117.764       76.152    44357.275    13868.336     5799.202       11.815        3.201      413.818       78.652        0.036      341.884       16.902      862.326
05/18/2013  20:04:00     -259.266      -36.501       -0.175       98.840       77.979       55.006     9769.379     6080.768     3025.649        4.371        0.944      261.823       48.443        0.034      341.858       16.857      862.358
05/18/2013  20:05:00     -346.144      -38.991       -9.212      195.654      105.247       69.899    38280.407    11076.978     4885.808        8.782        2.712      348.333       79.672        0.052      341.828       16.809      862.376
05/18/2013  20:06:00     -221.658      -66.217        5.505      170.426      133.288       67.606    29044.933    17765.808     4570.638        5.245        2.569      231.338       83.118        0.129      341.835       16.821      862.377
05/18/2013  20:07:00     -141.210      -52.261       21.976      130.652      121.578       79.981    17069.891    14781.176     6396.967        3.069        1.912      150.570       85.060        0.319      341.848       16.842      862.383
05/18/2013  20:08:00     -204.545      -35.706      -27.268       84.323       84.756       43.492     7110.359     7183.645     1891.556        3.002        0.809      207.638       28.493        0.019      341.846       16.840      862.411
05/18/2013  20:09:00     -230.400      -48.892        3.698      131.799      134.683       67.440    17371.074    18139.563     4548.098        4.777        2.003      235.530       72.156        0.094      341.758       16.690      862.423
05/18/2013  20:10:00     -420.965       25.973      -19.900      140.456      131.169       62.962    19727.857    17205.284     3964.176       10.958        2.045      421.765       51.811        0.015      341.749       16.673      862.441
05/18/2013  20:11:00     -394.809       11.243      -28.507      177.547       89.749       62.731    31523.059     8054.807     3935.136       10.015        2.176      394.969       72.495        0.034      341.740       16.659      862.438
05/18/2013  20:12:00     -276.259       33.585      -18.754      147.711      114.085       51.879    21818.590    13015.447     2691.471        5.765        1.876      278.293       58.095        0.044      341.723       16.630      862.454
05/18/2013  20:13:00     -297.718      -65.882      -10.472      137.467      118.124       56.196    18897.120    13953.397     3158.035        6.454        1.800      304.920       67.399        0.049      341.728       16.638      862.480
05/18/2013  20:14:00     -372.063     -122.306      -14.162      170.246       82.302       58.960    28983.626     6773.599     3476.292        9.640        1.962      391.650       62.955        0.026      341.674       16.548      862.474
05/18/2013  20:15:00     -259.718      -45.316       -8.426      102.775       97.282       56.692    10562.770     9463.750     3213.982        4.640        1.162      263.642       54.228        0.042      341.658       16.522      862.487
05/18/2013  20:16:00     -268.124      -56.854       -7.885      106.013       93.255       68.033    11238.808     8696.508     4628.457        4.987        1.228      274.085       74.034        0.073      341.653       16.512      862.500
05/18/2013  20:17:00     -215.272      -63.773        0.430      122.507       93.290       53.373    15007.904     8703.049     2848.725        3.848        1.328      224.520       58.844        0.069      341.638       16.487      862.502
05/18/2013  20:18:00     -299.957      -50.411       -5.622      128.263      110.487       63.344    16451.433    12207.457     4012.521        6.260        1.634      304.163       68.167        0.050      341.606       16.433      862.513
05/18/2013  20:19:00     -368.596      -81.608       -0.279      151.123       88.090       57.109    22838.068     7759.831     3261.399        8.818        1.693      377.522       67.642        0.032      341.589       16.402      862.525
05/18/2013  20:20:00     -180.699      -47.721        3.031      115.094      128.114       66.214    13246.712    16413.281     4384.329        3.448        1.702      186.894       69.150        0.137      341.583       16.394      862.536
05/18/2013  20:21:00     -218.080      -49.861       15.248      163.205       98.760       70.155    26635.964     9753.558     4921.774        4.579        2.066      223.707       85.342        0.146      341.575       16.380      862.550
05/18/2013  20:22:00     -217.970      -10.627      -12.278      105.594      113.676       60.685    11150.144    12922.130     3682.718        3.776        1.388      218.229       45.895        0.044      341.572       16.374      862.555
05/18/2013  20:23:00     -418.900      -21.744      -18.946      144.907      114.874       72.095    20997.928    13196.136     5197.630       10.784        1.970      419.464       76.611        0.033      341.568       16.368      862.557
05/18/2013  20:24:00     -395.269      -54.406      -38.887      164.653      136.218       62.588    27110.495    18555.304     3917.236       10.514        2.479      398.996       81.324        0.042      341.565       16.363      862.567
05/18/2013  20:25:00     -304.166     -103.162      -15.950      115.504      115.476       62.480    13341.177    13334.746     3903.776        6.699        1.529      321.184       54.036        0.028      341.555       16.346      862.573
05/18/2013  20:26:00     -485.566      -54.954      -30.921      161.323      108.101       73.631    26024.973    11685.845     5421.487       14.143        2.157      488.666       79.014        0.026      341.536       16.313      862.552
05/18/2013  20:27:00     -306.860       -0.756      -14.779      144.225      109.437       52.530    20800.805    11976.411     2759.415        6.495        1.777      306.861       53.889        0.031      341.508       16.267      862.571
05/18/2013  20:28:00     -360.179     -104.598      -22.148      147.554      137.020       69.034    21772.164    18774.404     4765.744        9.323        2.266      375.059       71.676        0.037      341.500       16.253      862.550
05/18/2013  20:29:00     -304.928      -66.233       -3.907      127.056      113.572       53.695    16143.135    12898.694     2883.152        6.465        1.596      312.038       43.475        0.019      341.491       16.237      862.549
05/18/2013  20:30:00     -444.393      -98.498      -13.511      174.621      138.539       76.410    30492.542    19193.119     5838.432       13.144        2.776      455.178       85.204        0.035      341.465       16.194      862.557
05/18/2013  20:31:00     -607.440      -65.429      -46.546      186.819      153.486       67.935    34901.299    23558.013     4615.119       21.924        3.154      610.954       72.005        0.014      341.471       16.202      862.545
05/18/2013  20:32:00     -329.665      -70.868        1.601      140.893      110.349       70.473    19850.755    12176.816     4966.504        7.534        1.850      337.196       73.299        0.047      341.454       16.175      862.556
05/18/2013  20:33:00     -398.333     -100.605      -26.024      122.678      110.132       60.140    15049.962    12128.966     3616.872       10.013        1.540      410.841       54.187        0.017      341.442       16.154      862.595
05/18/2013  20:34:00     -340.552      -75.246       -4.248      219.328      145.725       77.695    48104.688    21235.863     6036.476        9.850        3.769      348.766      101.247        0.084      341.422       16.121      862.589
05/18/2013  20:35:00     -305.197      -53.463       -6.967      139.700      131.653       69.427    19515.966    17332.502     4820.044        6.885        2.083      309.845       70.774        0.052      341.405       16.091      862.616
05/18/2013  20:36:00     -314.269      -90.961        5.356      212.979      127.845       72.500    45359.950    16344.257     5256.305        8.700        3.348      327.168       92.034        0.079      341.405       16.092      862.639
05/18/2013  20:37:00     -368.271       30.822      -20.100      166.275      134.306       81.218    27647.327    18038.022     6596.387        9.462        2.614      369.559       86.330        0.055      341.377       16.043      862.646
05/18/2013  20:38:00     -199.401      -58.457       -7.293      111.289       95.028       61.347    12385.197     9030.348     3763.487        3.420        1.259      207.793       60.932        0.086      341.379       16.047      862.648
05/18/2013  20:39:00     -344.544      -53.189      -18.988      172.132      104.154       62.321    29629.444    10848.112     3883.857        8.312        2.218      348.625       65.405        0.035      341.354       16.005      862.662
05/18/2013  20:40:00     -278.523       23.219      -18.347      141.017      134.921       60.233    19885.831    18203.680     3627.997        6.008        2.086      279.489       56.618        0.041      341.347       15.993      862.672
05/18/2013  20:41:00     -320.688     -132.740      -10.894      134.358      126.397       58.018    18052.056    15976.085     3366.051        7.898        1.870      347.075       60.798        0.031      341.333       15.968      862.673
05/18/2013  20:42:00     -389.892     -134.411       -4.764      147.232      126.772       75.290    21677.387    16071.130     5668.602       10.675        2.171      412.410       76.664        0.035      341.346       15.992      862.665
05/18/2013  20:43:00     -455.613      -49.607      -16.623      173.933      135.531       74.408    30252.517    18368.570     5536.619       13.223        2.708      458.306       64.918        0.020      341.323       15.952      862.680
05/18/2013  20:44:00     -492.805     -159.818      -23.994      258.107      141.133       85.465    66618.966    19918.591     7304.317       18.139        4.692      518.072       92.517        0.032      341.325       15.956      862.667
05/18/2013  20:45:00     -491.364     -138.048      -27.244      241.546      163.288       73.919    58344.630    26662.893     5463.992       17.584        4.524      510.387       93.909        0.034      341.303       15.920      862.684
05/18/2013  20:46:00     -161.791      -58.282       13.588      133.821      107.756       66.099    17908.044    11611.425     4369.079        3.182        1.694      171.968       62.907        0.134      341.281       15.883      862.689
05/18/2013  20:47:00     -235.047      -61.640       -6.887      146.634       99.751       63.475    21501.482     9950.171     4029.045        4.728        1.774      242.995       71.613        0.087      341.265       15.856      862.706
05/18/2013  20:48:00     -258.430       16.821       -9.704      103.541      127.911       52.646    10720.714    16361.328     2771.608        4.850        1.493      258.977       47.498        0.034      341.244       15.819      862.708
05/18/2013  20:49:00     -354.458     -143.540        1.718      275.412      160.295       86.954    75851.990    25694.480     7561.058       12.765        5.455      382.419      117.549        0.094      341.231       15.799      862.681
05/18/2013  20:50:00     -510.246     -127.313      -24.266      152.874      135.123       70.080    23370.601    18258.213     4911.192       16.183        2.327      525.889       64.984        0.015      341.244       15.819      862.709
05/18/2013  20:51:00     -531.823     -146.936      -23.092      237.713      144.945       89.886    56507.632    21009.040     8079.469       19.526        4.280      551.748       94.723        0.029      341.238       15.809      862.730
05/18/2013  20:52:00     -367.324      -72.572      -25.564      159.493      148.080       71.647    25437.892    21927.821     5133.241        9.666        2.625      374.425       66.663        0.032      341.229       15.792      862.754
05/18/2013  20:53:00     -235.646      -62.575        0.844      155.403      122.146       68.795    24149.938    14919.731     4732.715        5.161        2.190      243.812       77.432        0.101      341.220       15.778      862.767
05/18/2013  20:54:00     -434.860      -62.485      -31.657      193.775      147.139       73.975    37548.832    21649.764     5472.262       12.933        3.234      439.327       79.191        0.032      341.197       15.740      862.775
05/18/2013  20:55:00     -415.089       13.239      -37.333      132.921      131.261       67.169    17667.996    17229.392     4511.618       10.663        1.970      415.300       59.092        0.020      341.172       15.696      862.779
05/18/2013  20:56:00     -469.343     -112.550      -18.094      175.854      165.167       75.256    30924.484    27280.033     5663.445       14.856        3.193      482.649       87.343        0.033      341.153       15.663      862.781
05/18/2013  20:57:00     -426.306     -111.153      -10.284      171.834      144.441       70.968    29526.773    20863.286     5036.435       12.480        2.771      440.558       82.334        0.035      341.139       15.641      862.794
05/18/2013  20:58:00     -337.907       22.180      -23.748      155.806      118.054       68.180    24275.459    13936.789     4648.569        7.904        2.143      338.634       67.262        0.039      341.139       15.641      862.794
05/18/2013  20:59:00     -326.546      -49.622      -15.948      163.747      112.084       61.646    26813.158    12562.869     3800.200        7.625        2.159      330.294       73.270        0.049      341.110       15.592      862.795
05/18/2013  21:00:00     -394.970      -48.313      -30.040      147.387      121.269       71.011    21723.027    14706.127     5042.583       10.035        2.074      397.914       77.941        0.038      341.082       15.543      862.793
05/18/2013  21:01:00     -211.427      -26.580        9.830      146.619       78.513       66.389    21497.012     6164.254     4407.468        3.878        1.603      213.091       77.643        0.133      341.054       15.496      862.800
05/18/2013  21:02:00     -400.172      -87.188      -13.464      219.589      115.014       62.044    48219.435    13228.264     3849.398       11.660        3.265      409.560       76.140        0.035      341.043       15.480      862.814
05/18/2013  21:03:00     -266.972      -28.975        2.173      192.115      127.636       79.948    36908.169    16291.057     6391.744        6.584        2.980      268.540       97.748        0.132      341.042       15.481      862.800
05/18/2013  21:04:00     -445.819      -71.938      -23.422      147.509      162.793       66.816    21759.001    26501.465     4464.346       12.859        2.636      451.586       73.475        0.026      341.030       15.457      862.798
05/18/2013  21:05:00     -338.064      -44.791      -11.734      139.871      140.961       75.306    19563.872    19870.114     5670.983        8.076        2.255      341.018       70.208        0.042      341.035       15.466      862.804
05/18/2013  21:06:00     -476.288      -97.696      -29.635      178.221      165.956       84.829    31762.855    27541.535     7195.929       15.187        3.325      486.205       76.889        0.025      341.031       15.459      862.828
05/18/2013  21:07:00     -559.590      -96.559      -30.420      209.880      192.651       90.732    44049.469    37114.422     8232.221       20.637        4.470      567.860       94.909        0.028      341.029       15.455      862.838
05/18/2013  21:08:00     -432.077      -12.295      -29.455      229.477      110.667       80.335    52659.899    12247.205     6453.770       12.952        3.568      432.251      107.311        0.062      341.008       15.419      862.841
05/18/2013  21:09:00     -222.194      -77.499        6.894      142.201      112.891       75.799    20221.038    12744.372     5745.442        4.706        1.936      235.322       77.615        0.109      341.007       15.417      862.840
05/18/2013  21:10:00     -188.117      -57.410        3.241      144.405       99.413       66.535    20852.792     9882.980     4426.938        3.692        1.758      196.682       72.340        0.135      341.005       15.413      862.859
05/18/2013  21:11:00     -332.887      -26.189       -8.924      206.056      121.401       81.751    42459.229    14738.261     6683.306        8.772        3.194      333.916      103.101        0.095      340.969       15.354      862.879
05/18/2013  21:12:00     -493.058     -105.379      -20.989      217.968      189.758       99.953    47509.921    36008.187     9990.641       17.406        4.675      504.194      100.404        0.040      340.978       15.369      862.882
05/18/2013  21:13:00     -389.694     -105.398       -0.110      194.055      151.700       95.150    37657.227    23012.828     9053.514       11.633        3.486      403.695      110.182        0.074      340.952       15.324      862.924
05/18/2013  21:14:00     -492.826      -24.105      -28.995      130.725      154.062       61.868    17088.923    23734.950     3827.698       14.447        2.233      493.415       52.413        0.011      340.948       15.319      862.946
05/18/2013  21:15:00     -469.758       -9.343      -31.669      153.826      154.422       69.945    23662.520    23846.057     4892.259       13.707        2.620      469.851       74.004        0.025      340.937       15.299      862.928
05/18/2013  21:16:00     -423.970      -47.412      -17.837      152.866      111.921       71.078    23367.913    12526.275     5052.126       11.162        2.047      426.613       76.063        0.032      340.923       15.277      862.921
05/18/2013  21:17:00     -411.673     -146.288       -5.160      203.554      141.524       77.722    41434.182    20029.173     6040.652       12.919        3.375      436.892       83.322        0.036      340.892       15.223      862.909
05/18/2013  21:18:00     -308.582     -121.947        4.682      156.953      137.405       76.515    24634.213    18880.215     5854.540        7.973        2.468      331.804       75.149        0.051      340.906       15.247      862.942
05/18/2013  21:19:00     -390.167       -5.395      -23.127      190.788      146.659       80.998    36400.190    21508.990     6560.634       10.862        3.223      390.204       77.896        0.040      340.894       15.226      862.968
05/18/2013  21:20:00     -419.998       19.713      -30.426      208.146      123.278       73.212    43324.852    15197.508     5359.969       12.078        3.194      420.460       90.293        0.046      340.889       15.217      862.978
05/18/2013  21:21:00     -468.756      -98.782      -18.754      169.623      119.843       67.405    28771.916    14362.325     4543.487       13.875        2.384      479.051       76.773        0.026      340.873       15.192      862.986
05/18/2013  21:22:00     -222.455      -32.108      -11.897      119.651      122.340       66.522    14316.380    14967.164     4425.212        4.218        1.685      224.760       57.638        0.066      340.885       15.210      863.011
05/18/2013  21:23:00     -389.617       -0.828      -21.660      191.524      134.721       72.991    36681.437    18149.828     5327.638       10.620        3.008      389.617       80.871        0.043      340.857       15.162      863.038
05/18/2013  21:24:00     -237.420      -74.928      -12.917      121.365       92.570       44.821    14729.445     8569.223     2008.886        4.372        1.265      248.963       41.182        0.027      340.873       15.192      863.069
05/18/2013  21:25:00     -274.525      -41.993       -9.743      172.589      142.223       67.676    29786.939    20227.276     4580.043        6.590        2.730      277.718       81.634        0.086      340.826       15.112      863.056
05/18/2013  21:26:00     -387.694      -10.285      -29.891      173.580      153.463       71.871    30130.172    23550.879     5165.415       10.506        2.942      387.830       81.306        0.044      340.810       15.086      863.077
05/18/2013  21:27:00     -284.949      -36.102      -10.552      170.251       79.428       71.599    28985.244     6308.771     5126.403        6.151        2.021      287.227       91.950        0.102      340.831       15.119      863.059
05/18/2013  21:28:00     -482.771     -131.837      -25.260      121.760       77.475       56.351    14825.379     6002.384     3175.467       13.754        1.200      500.448       51.682        0.011      340.798       15.065      863.080
05/18/2013  21:29:00     -338.823      -22.163      -18.445      187.522      131.891       69.792    35164.650    17395.185     4870.951        8.652        2.872      339.547       87.463        0.066      340.779       15.033      863.100
05/18/2013  21:30:00     -284.214      -86.570       -4.316      119.166       95.423       47.045    14200.596     9105.485     2213.267        5.690        1.276      297.106       48.835        0.027      340.776       15.027      863.131
05/18/2013  21:31:00     -362.209      -41.387      -26.295      109.483      100.138       55.341    11986.529    10027.584     3062.637        7.933        1.254      364.566       44.401        0.015      340.781       15.036      863.123
05/18/2013  21:32:00     -291.091       13.255      -18.407      120.546       92.999       55.910    14531.395     8648.743     3125.944        5.577        1.315      291.393       58.771        0.041      340.765       15.011      863.129
05/18/2013  21:33:00     -339.250      -35.145      -11.379      191.120      117.709       59.305    36526.816    13855.503     3517.060        8.517        2.695      341.066       83.132        0.059      340.763       15.005      863.143
05/18/2013  21:34:00     -269.710      -81.366       -6.900      142.927      100.468       55.504    20428.040    10093.810     3080.746        5.650        1.680      281.716       64.706        0.053      340.751       14.986      863.151
05/18/2013  21:35:00     -312.366      -29.584      -15.835      175.327      115.736       69.565    30739.458    13394.910     4839.293        7.383        2.449      313.764       83.321        0.071      340.723       14.938      863.173
05/18/2013  21:36:00     -298.376      -21.136       -2.340      165.006      123.352       72.772    27227.066    15215.690     5295.748        6.860        2.387      299.123       63.126        0.045      340.731       14.952      863.215
05/18/2013  21:37:00     -330.757      -40.664       -9.703      149.300      128.750       70.835    22290.461    16576.469     5017.645        7.751        2.194      333.247       74.689        0.050      340.704       14.904      863.248
05/18/2013  21:38:00     -304.726      -78.625       -9.302      125.604      110.654       50.919    15776.371    12244.410     2592.706        6.486        1.531      314.706       48.606        0.024      340.684       14.870      863.263
05/18/2013  21:39:00     -389.298       17.161      -34.682       98.200       87.776       54.710     9643.260     7704.673     2993.134        8.669        1.017      389.676       48.883        0.016      340.704       14.904      863.281
05/18/2013  21:40:00     -300.616      -64.843      -11.797      107.438       82.962       54.407    11542.994     6882.722     2960.080        5.805        1.069      307.529       55.700        0.033      340.708       14.912      863.301
05/18/2013  21:41:00     -237.704      -46.084       -4.858      138.800      105.672       53.585    19265.394    11166.558     2871.390        4.597        1.665      242.130       56.847        0.055      340.697       14.894      863.306
05/18/2013  21:42:00     -192.259      -37.175        8.557      101.673       89.401       51.205    10337.362     7992.489     2621.936        2.968        1.048      195.820       43.601        0.050      340.680       14.866      863.306
05/18/2013  21:43:00     -259.717      -76.581      -11.310      119.907      103.866       52.896    14377.677    10788.058     2797.955        5.070        1.398      270.772       54.412        0.040      340.643       14.803      863.321
05/18/2013  21:44:00     -375.795       27.572      -33.756      148.343      100.273       62.002    22005.793    10054.663     3844.216        8.951        1.795      376.805       65.759        0.030      340.624       14.768      863.355
05/18/2013  21:45:00     -291.485      -23.291       -7.821      136.083       67.648       49.490    18518.456     4576.253     2449.255        5.555        1.277      292.414       59.631        0.042      340.622       14.764      863.374
05/18/2013  21:46:00     -384.128      -47.421      -18.548      149.290      113.816       74.539    22287.442    12954.093     5556.137        9.546        2.040      387.044       82.205        0.045      340.610       14.743      863.381
05/18/2013  21:47:00     -388.053      -70.036      -11.959      155.503      119.700       63.742    24181.040    14328.071     4063.040        9.909        2.129      394.323       77.665        0.039      340.626       14.771      863.380
05/18/2013  21:48:00     -411.245      -84.149      -10.788      133.148      111.295       72.645    17728.441    12386.467     5277.316       10.585        1.770      419.766       71.592        0.029      340.638       14.793      863.393
05/18/2013  21:49:00     -371.482      -63.402      -25.153      135.172       91.293       62.522    18271.535     8334.480     3909.033        8.658        1.526      376.853       75.560        0.040      340.615       14.752      863.389
05/18/2013  21:50:00     -350.384      -11.230      -30.052      145.495       94.980       57.710    21168.760     9021.190     3330.460        7.865        1.676      350.564       66.680        0.036      340.626       14.770      863.375
05/18/2013  21:51:00     -282.408     -111.100       -6.531      105.722      102.828       67.626    11177.149    10573.610     4573.342        5.923        1.316      303.476       65.595        0.047      340.605       14.736      863.384
05/18/2013  21:52:00     -239.064      -91.128        3.340      122.005       82.797       49.633    14885.160     6855.411     2463.397        4.483        1.210      255.843       58.686        0.053      340.594       14.718      863.424
05/18/2013  21:53:00     -264.801     -115.852      -13.785      125.222       91.619       53.720    15680.451     8394.101     2885.795        5.534        1.348      289.035       56.345        0.038      340.591       14.712      863.443
05/18/2013  21:54:00     -345.020      -75.168      -24.191       94.733       65.483       45.240     8974.395     4288.064     2046.675        7.029        0.765      353.114       33.507        0.009      340.582       14.698      863.463
05/18/2013  21:55:00     -373.864      -46.525      -25.831      100.565       87.461       63.932    10113.279     7649.387     4087.272        8.222        1.092      376.748       64.834        0.030      340.576       14.689      863.477
05/18/2013  21:56:00     -338.886      -56.832      -23.784      167.874      128.669       63.403    28181.699    16555.671     4019.898        8.369        2.438      343.619       85.904        0.062      340.573       14.684      863.465
05/18/2013  21:57:00     -269.327      -45.091      -14.979      150.805      117.492       53.404    22742.176    13804.459     2851.994        5.709        1.970      273.075       56.796        0.043      340.556       14.655      863.463
05/18/2013  21:58:00     -338.838      -24.713      -27.359      138.810      103.131       59.542    19268.224    10635.996     3545.207        7.480        1.672      339.738       63.125        0.035      340.556       14.654      863.452
05/18/2013  21:59:00     -364.760      -14.451      -39.045      117.789      110.035       58.510    13874.150    12107.764     3423.461        8.209        1.470      365.046       61.559        0.028      340.532       14.613      863.442
05/18/2013  22:00:00     -332.266      -75.885       -5.737      152.377      112.491       57.479    23218.692    12654.328     3303.876        7.768        1.959      340.821       75.652        0.049      340.522       14.597      863.457
05/18/2013  22:01:00     -273.937      -84.522        1.341      120.309      109.557       56.640    14474.319    12002.661     3208.122        5.593        1.484      286.680       59.244        0.043      340.497       14.556      863.459
05/18/2013  22:02:00     -243.577      -32.974        0.554      123.709       88.180       49.655    15303.848     7775.711     2465.593        4.298        1.277      245.798       55.749        0.051      340.474       14.519      863.461
05/18/2013  22:03:00     -299.768      -40.901      -17.627      225.100      117.784       82.996    50669.883    13873.037     6888.394        8.162        3.572      302.545       92.270        0.093      340.502       14.563      863.483
05/18/2013  22:04:00     -423.577     -109.121      -16.127      169.175      127.258       74.264    28620.306    16194.623     5515.107       12.095        2.517      437.407       81.161        0.034      340.529       14.608      863.453
05/18/2013  22:05:00     -322.214      -38.978      -22.179      182.708       94.260       64.278    33382.299     8884.930     4131.645        7.611        2.320      324.563       84.085        0.067      340.519       14.595      863.463
05/18/2013  22:06:00     -495.004     -135.639      -18.438      158.677      122.589       71.865    25178.391    15028.007     5164.619       15.456        2.269      513.251       70.956        0.019      340.549       14.642      863.476
05/18/2013  22:07:00     -311.472      -15.290       -5.352      164.392      141.538       82.651    27024.703    20032.990     6831.139        7.557        2.694      311.847       90.708        0.085      340.537       14.623      863.480
05/18/2013  22:08:00     -365.288      -63.457       -5.772      115.132      121.447       61.390    13255.395    14749.365     3768.753        8.463        1.589      370.759       49.927        0.018      340.516       14.590      863.481
05/18/2013  22:09:00     -404.987     -148.941      -14.589      177.772      111.058       67.847    31602.975    12333.947     4603.224       11.747        2.427      431.507       72.886        0.029      340.514       14.584      863.492
05/18/2013  22:10:00     -214.802      -50.849       11.415      128.409      127.614       60.808    16488.947    16285.402     3697.643        4.266        1.824      220.738       66.412        0.091      340.477       14.522      863.489
05/18/2013  22:11:00     -310.781      -76.102      -16.777      137.451      103.857       52.065    18892.752    10786.325     2710.816        6.752        1.619      319.963       58.800        0.034      340.479       14.522      863.513
05/18/2013  22:12:00     -235.871      -79.642        7.022      120.027      106.419       51.331    14406.454    11325.020     2634.832        4.519        1.418      248.954       61.252        0.061      340.467       14.504      863.522
05/18/2013  22:13:00     -196.364       11.557       -8.385      110.563       72.355       64.672    12224.228     5235.241     4182.502        3.020        1.082      196.704       60.038        0.093      340.464       14.499      863.525
05/18/2013  22:14:00     -290.990      -39.631      -10.337      146.522       96.632       63.744    21468.828     9337.697     4063.279        6.060        1.743      293.677       60.876        0.043      340.468       14.504      863.553
05/18/2013  22:15:00     -263.167      -43.584      -13.347      107.007      108.317       50.159    11450.477    11732.582     2515.975        4.851        1.285      266.752       53.763        0.041      340.447       14.469      863.550
05/18/2013  22:16:00     -210.132      -42.382      -10.269      150.164       99.459       61.556    22549.254     9892.152     3789.111        4.114        1.812      214.363       70.926        0.109      340.439       14.459      863.550
05/18/2013  22:17:00     -248.625      -67.567        2.042      161.657       98.418       62.842    26132.937     9686.074     3949.132        5.307        1.988      257.643       75.847        0.087      340.425       14.434      863.565
05/18/2013  22:18:00     -424.137     -138.953      -18.778      140.202      109.835       59.949    19656.615    12063.770     3593.912       11.743        1.766      446.319       66.206        0.022      340.445       14.466      863.565
05/18/2013  22:19:00     -392.009      -78.558       -6.029      172.350      141.885       85.005    29704.463    20131.236     7225.820       10.846        2.853      399.803       82.471        0.043      340.424       14.433      863.568
05/18/2013  22:20:00     -233.078      -90.261       -5.028      108.029       95.516       51.698    11670.163     9123.370     2672.686        4.298        1.173      249.945       52.038        0.043      340.396       14.386      863.582
05/18/2013  22:21:00     -248.697      -72.367       -6.929      146.667      111.653       62.636    21511.305    12466.439     3923.330        5.251        1.895      259.012       72.497        0.078      340.406       14.400      863.578
05/18/2013  22:22:00     -213.543      -67.615      -10.756      136.382      101.195       47.875    18600.075    10240.483     2292.054        4.070        1.557      223.992       61.961        0.077      340.403       14.396      863.571
05/18/2013  22:23:00     -277.260     -115.911       -3.839      150.248      103.019       56.143    22574.519    10612.945     3152.006        6.332        1.817      300.513       66.120        0.048      340.420       14.424      863.579
05/18/2013  22:24:00     -248.966     -101.519        5.339      138.609      123.039       62.406    19212.504    15138.523     3894.478        5.527        1.912      268.868       66.143        0.061      340.391       14.376      863.567
05/18/2013  22:25:00     -288.349       10.547      -18.586      148.646      103.937       55.321    22095.685    10802.804     3060.439        5.977        1.798      288.542       65.941        0.052      340.385       14.366      863.562
05/18/2013  22:26:00     -204.100      -45.303       20.432      146.279      122.719       72.440    21397.610    15059.869     5247.499        4.291        2.085      209.067       92.282        0.195      340.400       14.391      863.557
05/18/2013  22:27:00     -253.511      -96.848       -5.280      133.429      130.231       61.403    17803.363    16960.118     3770.281        5.610        1.927      271.381       60.704        0.050      340.390       14.374      863.588
05/18/2013  22:28:00     -304.398      -58.894      -15.161      110.844       89.681       47.318    12286.421     8042.698     2239.038        5.946        1.128      310.043       49.484        0.025      340.404       14.397      863.607
05/18/2013  22:29:00     -301.794      -18.416      -13.861      101.781      111.472       59.519    10359.468    12426.070     3542.510        5.896        1.316      302.355       51.751        0.029      340.351       14.308      863.617
05/18/2013  22:30:00     -387.582      -16.768      -32.720      174.272      127.046       76.153    30370.635    16140.771     5799.219       10.193        2.616      387.945       79.361        0.042      340.353       14.313      863.626
05/18/2013  22:31:00     -323.971      -93.477       -6.787      175.725      119.976       67.683    30879.110    14394.238     4580.964        8.179        2.493      337.187       69.703        0.043      340.348       14.304      863.633
05/18/2013  22:32:00     -241.030      -48.984       -4.495      187.919      117.111       73.750    35313.543    13714.892     5439.113        5.748        2.723      245.957       73.415        0.089      340.352       14.311      863.620
05/18/2013  22:33:00     -258.176      -88.805       -8.958      112.179      110.497       69.711    12584.078    12209.578     4859.663        5.213        1.483      273.023       77.489        0.081      340.341       14.290      863.649
05/18/2013  22:34:00     -279.395       -0.944      -13.089      139.087      105.976       54.608    19345.292    11230.829     2982.004        5.589        1.678      279.396       51.988        0.035      340.314       14.246      863.653
05/18/2013  22:35:00     -319.113      -80.655      -11.535      133.524      141.317       52.087    17828.762    19970.372     2713.027        7.448        2.026      329.148       54.992        0.028      340.302       14.226      863.632
05/18/2013  22:36:00     -190.712      -91.712        1.325      158.325       92.843       53.558    25066.863     8619.798     2868.441        4.066        1.828      211.618       61.999        0.086      340.297       14.219      863.645
05/18/2013  22:37:00     -277.422      -11.380      -14.666      139.929       97.018       58.716    19580.101     9412.519     3447.586        5.487        1.622      277.655       63.754        0.053      340.272       14.175      863.647
05/18/2013  22:38:00     -416.062      -90.161       -2.325      161.433      111.502       81.980    26060.624    12432.675     6720.703       11.322        2.261      425.719       81.358        0.037      340.289       14.202      863.637
05/18/2013  22:39:00     -282.715      -80.488       -0.114      159.541      114.969       64.093    25453.266    13217.879     4107.884        6.458        2.139      293.950       79.049        0.072      340.288       14.202      863.641
05/18/2013  22:40:00     -352.544      -37.061      -15.957      122.240      116.424       60.354    14942.604    13554.614     3642.558        7.902        1.607      354.487       58.215        0.027      340.311       14.242      863.631
05/18/2013  22:41:00     -391.445      -75.630      -15.249      166.308      105.025       69.055    27658.345    11030.283     4768.613       10.131        2.173      398.684       80.719        0.041      340.286       14.198      863.604
05/18/2013  22:42:00     -344.520      -53.155       -2.552      160.629      162.603       72.977    25801.780    26439.819     5325.675        8.954        2.878      348.596       77.179        0.049      340.286       14.196      863.602
05/18/2013  22:43:00     -262.046      -55.205       -9.465      129.372       97.290       56.280    16737.094     9465.317     3167.463        5.058        1.468      267.798       50.597        0.036      340.263       14.160      863.611
05/18/2013  22:44:00     -360.982      -38.219      -22.369      129.349      115.762       66.224    16731.158    13400.847     4385.620        8.339        1.726      362.999       68.707        0.036      340.245       14.128      863.618
05/18/2013  22:45:00     -350.426      -45.087      -14.952      131.361      102.284       54.098    17255.667    10462.039     2926.621        7.784        1.532      353.314       58.156        0.027      340.221       14.087      863.633
05/18/2013  22:46:00     -276.599      -90.636      -10.746       98.477      104.753       53.250     9697.720    10973.210     2835.510        5.417        1.175      291.071       50.002        0.030      340.184       14.026      863.637
05/18/2013  22:47:00     -380.037      -49.772      -17.000      124.243       97.048       50.197    15436.416     9418.402     2519.724        8.728        1.369      383.282       54.358        0.020      340.181       14.021      863.661
05/18/2013  22:48:00     -284.237      -43.147       -8.127       95.557       75.884       49.817     9131.157     5758.368     2481.696        5.004        0.869      287.493       43.281        0.023      340.170       14.002      863.661
05/18/2013  22:49:00     -269.057      -20.627      -23.302      101.528       84.719       51.503    10307.951     7177.274     2652.564        4.674        1.007      269.847       54.679        0.041      340.171       14.005      863.663
05/18/2013  22:50:00     -264.184      -42.864      -30.749       97.261       85.298       49.621     9459.731     7275.740     2462.242        4.588        0.960      267.639       48.780        0.033      340.151       13.971      863.667
05/18/2013  22:51:00     -327.596      -27.466      -33.945      131.061      106.568       48.191    17176.921    11356.691     2322.356        7.003        1.543      328.745       44.566        0.018      340.124       13.925      863.673
05/18/2013  22:52:00     -344.432      -39.645       -3.223      159.343      115.382       73.400    25390.246    13313.064     5387.606        8.214        2.205      346.706       79.566        0.053      340.096       13.877      863.669
05/18/2013  22:53:00     -392.280      -42.448      -18.863      146.877      106.623       69.918    21572.856    11368.540     4888.523        9.693        1.891      394.569       70.016        0.031      340.105       13.893      863.678
05/18/2013  22:54:00     -320.565      -76.522       -7.050      147.949       92.171       60.974    21888.938     8495.491     3717.824        7.138        1.705      329.572       64.725        0.039      340.085       13.860      863.683
05/18/2013  22:55:00     -300.795     -134.182       -3.952      151.473       84.486       63.187    22944.099     7137.811     3992.605        7.128        1.704      329.366       68.761        0.044      340.100       13.883      863.679
05/18/2013  22:56:00     -418.093     -142.523      -29.360      169.984      132.699       70.480    28894.568    17609.067     4967.390       12.371        2.574      441.717       68.109        0.024      340.120       13.918      863.651
05/18/2013  22:57:00     -390.344     -114.695      -16.825      113.248      141.833       60.327    12825.000    20116.657     3639.300       10.119        1.829      406.845       49.636        0.015      340.087       13.863      863.661
05/18/2013  22:58:00     -293.215      -69.208      -11.002       98.893       94.976       47.239     9779.783     9020.471     2231.530        5.595        1.052      301.272       46.897        0.024      340.046       13.793      863.666
05/18/2013  22:59:00     -285.109      -60.999       -3.734      127.170      124.148       68.834    16172.145    15412.649     4738.172        6.067        1.816      291.562       65.668        0.051      340.025       13.758      863.652
05/18/2013  23:00:00     -308.856      -46.146       -3.920      138.865      122.484       65.537    19283.509    15002.288     4295.139        6.805        1.929      312.284       74.140        0.056      340.040       13.782      863.655
05/18/2013  23:01:00     -386.652     -122.885      -18.183      105.647      108.527       66.587    11161.251    11778.109     4433.873        9.615        1.369      405.710       52.742        0.017      340.064       13.824      863.649
05/18/2013  23:02:00     -320.353     -107.537       -7.693      120.436       86.770       58.349    14504.735     7528.980     3404.593        6.984        1.272      337.921       60.505        0.032      340.044       13.787      863.656
05/18/2013  23:03:00     -391.209     -119.892       -8.707      183.000      105.243       63.260    33488.938    11076.096     4001.775       10.802        2.428      409.168       71.713        0.031      340.045       13.792      863.668
05/18/2013  23:04:00     -274.562      -75.159       -1.188      110.110      105.169       48.624    12124.229    11060.621     2364.303        5.329        1.277      284.664       55.408        0.038      340.026       13.758      863.674
05/18/2013  23:05:00     -280.396      -38.633      -14.197       98.258       81.912       53.452     9654.571     6709.511     2857.131        4.976        0.961      283.045       54.122        0.037      340.003       13.720      863.683
05/18/2013  23:06:00     -232.500      -63.443       -2.498      127.213      110.168       54.288    16183.074    12136.990     2947.167        4.467        1.563      241.000       60.120        0.062      340.007       13.728      863.683
05/18/2013  23:07:00     -170.702      -73.627       -0.010      143.609      152.434       70.072    20623.419    23236.190     4910.049        4.165        2.438      185.904       66.562        0.128      340.011       13.735      863.665
05/18/2013  23:08:00     -439.312      -89.776      -27.971      110.940      112.626       60.624    12307.788    12684.712     3675.257       11.525        1.433      448.391       50.887        0.013      340.024       13.755      863.676
05/18/2013  23:09:00     -406.741     -104.574      -37.444      110.037       88.247       52.410    12108.105     7787.562     2746.817       10.020        1.132      419.969       49.385        0.014      340.009       13.732      863.683
05/18/2013  23:10:00     -243.288      -26.104       -2.884      103.963      115.961       55.390    10808.327    13447.026     3068.014        4.360        1.366      244.685       56.017        0.052      339.980       13.682      863.691
05/18/2013  23:11:00     -287.421      -40.758       -5.670      136.229       98.732       52.481    18558.387     9748.091     2754.251        5.768        1.553      290.297       57.641        0.039      339.980       13.682      863.693
05/18/2013  23:12:00     -386.405      -26.715      -27.669      132.774      121.545       63.685    17628.948    14773.277     4055.738        9.362        1.823      387.328       61.746        0.025      339.966       13.657      863.700
05/18/2013  23:13:00     -278.214      -28.638      -16.542      124.823      106.896       57.169    15580.822    11426.760     3268.320        5.438        1.514      279.684       63.954        0.052      339.970       13.665      863.713
05/18/2013  23:14:00     -293.585      -29.794      -28.580      110.256       90.949       48.682    12156.345     8271.774     2369.942        5.534        1.140      295.092       46.861        0.025      339.962       13.652      863.727
05/18/2013  23:15:00     -347.381      -81.480       -8.341      151.693       77.319       64.490    23010.694     5978.164     4158.899        8.026        1.657      356.809       76.837        0.046      339.955       13.640      863.735
05/18/2013  23:16:00     -314.642      -79.975      -14.242      120.808       85.937       56.346    14594.500     7385.182     3174.823        6.537        1.258      324.647       46.675        0.021      339.954       13.637      863.746
05/18/2013  23:17:00     -307.918       23.152      -26.628       92.747       90.424       47.908     8602.025     8176.579     2295.167        5.756        0.954      308.787       44.529        0.021      339.958       13.644      863.761
05/18/2013  23:18:00     -307.343     -120.192       -7.316       98.802       90.300       59.185     9761.792     8154.143     3502.871        6.518        1.071      330.009       51.762        0.025      339.940       13.615      863.764
05/18/2013  23:19:00     -253.707      -85.171      -11.276      105.523      109.036       45.493    11135.065    11888.868     2069.597        4.842        1.255      267.622       50.209        0.035      339.947       13.625      863.778
05/18/2013  23:20:00     -229.264      -38.178      -11.240      139.003       78.362       50.208    19321.960     6140.616     2520.807        4.106        1.399      232.421       59.609        0.066      339.904       13.555      863.806
05/18/2013  23:21:00     -338.011       14.508      -35.285      113.861       68.964       57.168    12964.314     4756.000     3268.164        6.834        1.049      338.322       64.379        0.036      339.894       13.535      863.830
05/18/2013  23:22:00     -252.492      -74.542      -14.705      103.392      105.046       42.000    10689.812    11034.744     1763.995        4.650        1.174      263.265       47.455        0.032      339.856       13.472      863.838
05/18/2013  23:23:00     -215.844      -25.295      -21.432       74.244       74.830       41.754     5512.129     5599.578     1743.378        3.027        0.643      217.321       41.946        0.037      339.833       13.434      863.860
05/18/2013  23:24:00     -238.303      -80.337       -7.356       99.348       89.873       56.855     9869.995     8077.089     3232.503        4.223        1.059      251.480       57.547        0.052      339.825       13.420      863.865
05/18/2013  23:25:00     -325.334      -13.454      -32.379      108.523      117.546       47.671    11777.346    13817.179     2272.553        6.746        1.393      325.612       51.913        0.025      339.844       13.452      863.888
05/18/2013  23:26:00     -340.877      -57.428      -25.724      103.564      107.073       57.848    10725.504    11464.719     3346.416        7.284        1.277      345.681       50.247        0.021      339.853       13.466      863.898
05/18/2013  23:27:00     -311.289      -43.153      -11.835      152.468      100.052       61.922    23246.604    10010.476     3834.313        6.799        1.855      314.266       73.605        0.055      339.852       13.465      863.908
05/18/2013  23:28:00     -302.053      -35.721      -11.627      123.558      125.739       57.935    15266.607    15810.303     3356.473        6.353        1.722      304.158       35.852        0.014      339.871       13.496      863.915
05/18/2013  23:29:00     -333.670      -57.506      -26.864      133.025       96.655       54.763    17695.547     9342.094     2998.978        7.269        1.502      338.589       59.439        0.031      339.888       13.525      863.933
05/18/2013  23:30:00     -257.686     -138.858       -2.005      140.784       80.690       56.560    19820.157     6510.950     3199.078        5.760        1.477      292.718       62.040        0.045      339.883       13.518      863.932
05/18/2013  23:31:00     -332.432     -112.590      -19.692      147.069      102.077       54.795    21629.363    10419.794     3002.513        7.931        1.753      350.980       43.879        0.016      339.911       13.563      863.937
05/18/2013  23:32:00     -345.630      -49.449      -31.845      105.572       87.158       53.662    11145.380     7596.550     2879.647        7.227        1.081      349.149       58.342        0.028      339.920       13.581      863.951
05/18/2013  23:33:00     -177.052      -65.608       -0.371       90.831       68.637       49.255     8250.287     4711.030     2426.095        2.552        0.769      188.817       38.861        0.042      339.877       13.510      863.967
05/18/2013  23:34:00     -279.350      -45.941      -12.358      136.654       83.928       61.092    18674.255     7043.956     3732.285        5.487        1.473      283.102       67.402        0.057      339.893       13.535      863.983
05/18/2013  23:35:00     -271.052      -32.999       -6.280      119.347      108.020       59.360    14243.641    11668.331     3523.651        5.201        1.472      273.053       56.959        0.044      339.929       13.595      863.975
05/18/2013  23:36:00     -266.581       -3.567      -10.366       98.823       81.244       48.072     9766.002     6600.534     2310.913        4.493        0.934      266.605       51.597        0.037      339.934       13.606      863.978
05/18/2013  23:37:00     -286.654       -9.088      -29.078       81.210       70.664       41.156     6595.051     4993.331     1693.831        4.819        0.664      286.798       38.767        0.018      339.939       13.613      864.003
05/18/2013  23:38:00     -231.857      -41.024      -23.379       69.942       77.627       38.362     4891.939     6025.986     1471.616        3.419        0.619      235.458       35.251        0.022      339.926       13.592      864.008
05/18/2013  23:39:00     -270.584      -58.055       -5.280      101.084       74.005       45.485    10217.921     5476.700     2068.865        4.718        0.888      276.741       43.312        0.024      339.915       13.571      864.016
05/18/2013  23:40:00     -205.286      -83.088       -2.562      105.551       69.529       51.316    11141.021     4834.216     2633.307        3.383        0.930      221.463       48.450        0.048      339.894       13.536      864.039
05/18/2013  23:41:00     -187.538      -24.471       -6.982      103.648       88.299       54.620    10742.926     7796.700     2983.351        2.867        1.076      189.128       50.086        0.070      339.906       13.557      864.053
05/18/2013  23:42:00     -251.904      -31.581      -28.203      110.022       83.668       41.234    12104.923     7000.354     1700.279        4.302        1.040      253.876       30.924        0.015      339.909       13.562      864.073
05/18/2013  23:43:00     -165.875      -59.269       -5.189       55.820       74.691       37.796     3115.833     5578.711     1428.575        2.059        0.506      176.146       31.442        0.032      339.889       13.529      864.089
05/18/2013  23:44:00     -192.935      -28.021       -1.314       98.556       86.192       47.844     9713.299     7429.082     2289.077        2.872        0.972      194.959       36.864        0.036      339.882       13.517      864.103
05/18/2013  23:45:00     -190.934      -21.972      -15.771       96.383       85.609       43.961     9289.658     7328.931     1932.527        2.787        0.928      192.194       45.025        0.055      339.922       13.585      864.120
05/18/2013  23:46:00     -258.979        7.913      -21.873       95.797       65.880       45.120     9177.144     4340.119     2035.832        4.158        0.778      259.100       42.273        0.027      339.898       13.542      864.141
05/18/2013  23:47:00     -189.231      -66.923       -9.727       76.196       76.946       48.157     5805.866     5920.756     2319.061        2.721        0.702      200.716       40.899        0.042      339.894       13.537      864.137
05/18/2013  23:48:00     -163.982      -35.210       -8.809       70.449       69.641       48.146     4963.069     4849.839     2318.016        2.017        0.607      167.719       35.867        0.046      339.894       13.538      864.142
05/18/2013  23:49:00     -187.133      -28.444      -24.160       72.524       67.136       39.052     5259.717     4507.188     1525.074        2.385        0.565      189.282       30.378        0.026      339.892       13.534      864.165
05/18/2013  23:50:00     -195.684       55.928      -13.838       63.002       64.024       44.287     3969.283     4099.121     1961.380        2.582        0.501      203.519       34.233        0.028      339.884       13.522      864.181
05/18/2013  23:51:00     -329.390       21.195      -24.365       94.877       70.842       47.132     9001.640     5018.590     2221.384        6.289        0.812      330.071       36.723        0.012      339.910       13.563      864.217
05/18/2013  23:52:00     -236.928       -5.271      -18.903       72.925       66.058       35.312     5318.033     4363.599     1246.953        3.372        0.546      236.986       39.236        0.027      339.884       13.517      864.248
05/18/2013  23:53:00     -176.406      -33.562      -14.389       71.969       53.729       36.701     5179.476     2886.778     1346.990        2.093        0.471      179.570       30.998        0.030      339.875       13.504      864.274
05/18/2013  23:54:00     -178.688      -18.009       -4.604       70.834       74.226       37.100     5017.506     5509.538     1376.429        2.209        0.595      179.593       19.171        0.011      339.849       13.462      864.293
05/18/2013  23:55:00     -239.734      -52.916      -29.339       69.788       56.239       34.714     4870.371     3162.855     1205.070        3.518        0.462      245.505       23.887        0.009      339.876       13.506      864.312
05/18/2013  23:56:00     -177.740       21.964      -19.993       88.171       93.396       40.896     7774.174     8722.880     1672.474        2.532        0.908      179.092       38.830        0.047      339.879       13.512      864.336
05/18/2013  23:57:00     -110.941       53.433      -11.727       67.270       56.996       27.744     4525.214     3248.574      769.724        1.192        0.427      123.138       20.271        0.027      339.886       13.524      864.365
05/18/2013  23:58:00      -54.856       66.895       -7.992       64.957       62.121       22.448     4219.467     3859.015      503.929        0.806        0.429       86.511       26.328        0.093      339.884       13.525      864.383
05/18/2013  23:59:00      -36.684      136.946      -11.997       39.569       47.988       31.440     1565.738     2302.849      988.466        1.255        0.243      141.774       25.462        0.032      339.778       13.345      864.400
